     2.10           OBSERVATION DATA    G (GPS)             RINEX VERSION / TYPE
teqc 2005Sep1 20060621 13:29:39UTC                          PGM / RUN BY / DATE
MSXP|IAx86-PII|bcc32 5.0|MSWin95->XP|486/DX+                COMMENT
JPS2RIN 1.40 RUN BY 19-JUN-06 11:58                         COMMENT
build Feb 6 2004 (c) Javad Navigation Systems               COMMENT
Use -p (profile) switch to override ANTENNA TYPE and DELTA  COMMENT
and other fields                                            COMMENT
ylt20513b.jps                                               COMMENT
SE TPS 00000000                                             COMMENT
ylt20513b_3858                                              MARKER NAME
OBSERVER AGENCY                                             OBSERVER / AGENCY
MT310933858 TPS LEGACY 2.3 Apr,28,2004 p4                   REC # / TYPE / VERS
ylt20513b -Unknown-                                         ANT # / TYPE
   895315.3126  -269121.0886  6288122.7449                  APPROX POSITION XYZ
        0.0000        0.0000        0.0000                  ANTENNA: DELTA H/E/N
     1     1                                                WAVELENGTH FACT L1/2
     7    C1    P1    P2    L1    L2    D1    D2            # / TYPES OF OBSERV
    30.0000                                                 INTERVAL
Forced Modulo Decimation to 30 seconds                      COMMENT
teqc windowed: start @ 2006 May 13 14:55:00.000             COMMENT
teqc windowed: end @ 2006 May 13 23:59:30.000               COMMENT
  2006     5    13    14    55    0.0000000     GPS         TIME OF FIRST OBS
                                                            END OF HEADER
 06  5 13 14 55  0.0000000  0  4G 2G10G13G23
  23425171.781    23425171.7674   23425168.2984  123100109.027 7  95922179.32645
     -4262.891       -3321.732
  21221884.257    21221883.4594   21221884.7004  111521754.501 8  86900083.26546
       677.850         528.193
  22032280.380    22032280.5884   22032276.3244  115780416.038 8  90218519.07645
     -3233.208       -2519.382
  24506052.851    24506052.0524   24506050.8784  128780172.062 6 100348205.32044
     -4522.170       -3523.799
 06  5 13 14 55 30.0000000  0  4G 2G10G13G23
  23449503.017    23449502.6784   23449501.5834  123227968.320 7  96021809.89944
     -4260.025       -3319.500
  21218037.666    21218036.8304   21218037.9524  111501539.800 8  86884331.46946
       669.506         521.669
  22050750.371    22050750.1834   22050749.4684  115877476.543 8  90294150.59845
     -3236.888       -2522.250
  24531851.235    24531850.5574   24531849.4804  128915741.981 7 100453844.23744
     -4515.025       -3518.201
 06  5 13 14 56  0.0000000  0  4G 2G10G13G23
  23473819.215    23473819.0594   23473818.2434  123355751.384 7  96121381.05844
     -4258.544       -3318.346
  21214234.640    21214233.8284   21214234.9074  111481554.282 8  86868758.26946
       662.348         516.091
  22069239.698    22069239.7814   22069239.6304  115974640.013 8  90369862.27545
     -3239.953       -2524.638
  24557609.035    24557609.1494   24557607.4774  129051102.855 7 100559320.19244
     -4507.961       -3512.697
 06  5 13 14 56 30.0000000  0  3G 2G10G23
  23498116.218                                   123483431.500 7
     -4253.948
  21210471.041    21210470.1884   21210471.2524  111461775.714 8  86853346.35846
       656.004         511.171
  24583322.921                                   129186245.709 7
     -4499.996
 06  5 13 14 57  0.0000000  0  3G 2G10G23
  23522388.232    23522387.9494   23522387.2194  123610982.017 7  96320260.95745
     -4249.713       -3311.477
  21206742.141    21206741.3264   21206742.4004  111442180.099 8  86838076.96046
       649.909         506.404
  24608986.765    24608986.2854   24608985.2454  129321108.532 7 100769700.81644
     -4491.120       -3499.575
 06  5 13 14 57 30.0000000  0  2G 2G10
  23546633.451    23546632.7234   23546631.7934  123738389.126 7  96419539.16245
     -4244.672       -3307.538
  21203046.653    21203045.8284   21203046.7764  111422759.565 8  86822944.03246
       644.297         502.045
 06  5 13 14 58  0.0000000  0  2G 2G10
  23570850.772    23570850.2454   23570849.3224  123865653.048 7  96518705.76744
     -4240.024       -3303.903
  21199385.177    21199384.1034   21199385.2694  111403517.831 8  86807950.48446
       638.166         497.280
 06  5 13 14 58 30.0000000  0  2G 2G10
  23595041.703    23595041.7594   23595040.9064  123992778.663 7  96617764.58944
     -4235.609       -3300.466
  21195758.921    21195758.2324   21195759.3474  111384463.838 8  86793103.27546
       631.537         492.110
 06  5 13 14 59  0.0000000  0  2G 2G10
  23619207.042    23619206.7314   23619205.5464  124119766.336 7  96716715.94044
     -4231.046       -3296.910
  21192169.578    21192168.7744   21192169.9594  111365601.999 8  86778405.86346
       625.039         487.047
 06  5 13 14 59 30.0000000  0  2G 2G10
  23643349.242    23643348.9904   23643348.2654  124246634.038 7  96815573.79844
     -4227.112       -3293.857
  21188621.098    21188620.2404   21188621.3464  111346954.292 8  86763875.24246
       617.765         481.357
 06  5 13 15  0  0.0000000  0  8G 2G 6G 7G 8G10G13G21G27
  23667466.139    23667465.9964   23667465.1504  124373369.476 7  96914328.53144
     -4221.559       -3289.526
  22844172.075                                   120046938.618 7
     -2438.191
  23112958.644    23112958.4064   23112958.0464  121459415.094 7  94643717.95744
      1291.986        1006.742
  24868713.651                                   130685972.716 7
      3416.283
  21185111.750    21185110.8844   21185112.0814  111328512.688 8  86749505.25046
       610.880         476.012
  22217513.115    22217513.4384   22217511.7044  116753822.421 7  90977018.59945
     -3253.498       -2535.193
  24635563.806                                   129460784.180 6
      3011.148
  23016179.289    23016178.5684   23016176.2894  120950837.032 7  94247420.97645
      1850.516        1441.960
 06  5 13 15  0 30.0000000  0 10G 2G 6G 7G 8G10G13G16G21G23G27
  23691560.494    23691560.0964   23691559.2114  124499985.790 7  97012990.54344
     -4218.765       -3287.348
  22858099.954    22858099.7824   22858100.4104  120120127.257 7  93600112.08744
     -2441.539       -1902.484
  23105594.038    23105593.7424   23105595.3044  121420713.988 7  94613561.30644
      1288.156        1003.773
  24849172.877    24849172.2474   24849174.3464  130583287.092 6 101753225.35443
      3426.967        2670.415
  21181644.909    21181644.0024   21181644.9954  111310293.892 8  86735308.80146
       603.240         470.053
  22236092.378    22236092.4694   22236092.0854  116851456.067 8  91053096.69545
     -3255.784       -2536.962
  22430367.484                                   117872377.173 7
     -1132.377
  24618352.137    24618351.1824   24618352.3744  129370337.422 6 100808054.74043
      3017.748        2351.481
  24787203.703                                   130257639.946 6
     -4430.103
  23005614.538    23005614.1834   23005614.9934  120895320.484 7  94204161.45645
      1850.393        1441.852
 06  5 13 15  1  0.0000000  0 10G 2G 6G 7G 8G10G13G16G21G23G27
  23715634.636    23715634.3464   23715632.9474  124626494.518 7  97111568.69544
     -4215.547       -3284.833
  22872049.936    22872049.7484   22872050.4334  120193436.056 7  93657235.89044
     -2445.782       -1905.805
  23098250.144    23098249.5114   23098251.4234  121382120.661 7  94583488.63544
      1284.301        1000.773
  24829584.879    24829584.3304   24829585.7074  130480350.005 6 101673014.75943
      3435.066        2676.698
  21178223.507    21178222.5644   21178223.4784  111292313.674 8  86721298.16946
       595.083         463.708
  22254686.172    22254686.3594   22254685.8634  116949166.326 8  91129234.51545
     -3258.542       -2539.123
  22436855.368    22436854.9404   22436854.4174  117906473.587 7  91875187.68345
     -1141.034        -889.100
  24601108.272    24601108.3084   24601108.6234  129279722.695 6 100737445.99843
      3022.844        2355.491
  24812470.727    24812470.9784   24812469.9514  130390421.557 6 101602933.65943
     -4422.518       -3446.117
  22995051.092    22995051.2304   22995051.5044  120839810.461 7  94160906.95745
      1849.927        1441.498
 06  5 13 15  1 30.0000000  0 10G 2G 6G 7G 8G10G13G16G21G23G27
  23739689.587    23739689.1974   23739688.4244  124752904.582 7  97210069.98144
     -4212.548       -3282.508
  22886024.667    22886024.2904   22886025.3864  120266874.272 7  93714460.46844
     -2450.583       -1909.546
  23090929.178    23090928.7364   23090930.4584  121343648.661 7  94553510.54544
      1279.793         997.234
  24809951.384    24809951.1584   24809952.0834  130377175.624 7 101592619.15643
      3442.449        2682.435
  21174849.862    21174849.0424   21174849.7594  111274585.079 8  86707483.67746
       586.190         456.767
  22273296.046    22273296.2284   22273296.0774  117046962.281 8  91205439.07445
     -3261.837       -2541.704
  22443392.560    22443392.1644   22443391.9184  117940827.541 7  91901956.98745
     -1149.843        -895.980
  24583836.205    24583835.5604   24583834.7924  129188953.935 6 100666717.17443
      3027.778        2359.303
  24837694.613    24837694.9334   24837693.1244  130522975.764 6 101706222.64243
     -4415.314       -3440.508
  22984491.795    22984491.3804   22984491.7574  120784319.879 7  94117667.55545
      1848.929        1440.724
 06  5 13 15  2  0.0000000  0 10G 2G 6G 7G 8G10G13G16G21G23G27
  23763727.663    23763727.6054   23763726.2674  124879226.183 7  97308502.33444
     -4209.753       -3280.312
  22900026.066    22900025.9104   22900026.6494  120340452.778 7  93771794.31144
     -2455.365       -1913.255
  23083633.769    23083633.4064   23083635.1214  121305312.694 7  94523638.41444
      1275.009         993.516
  24790275.869    24790275.5494   24790276.0354  130273779.643 7 101512050.94543
      3449.773        2688.199
  21171526.723    21171525.9864   21171526.7004  111257122.218 8  86693876.16446
       577.091         449.693
  22291924.590    22291924.7634   22291924.1244  117144854.777 7  91281718.92545
     -3265.197       -2544.290
  22449981.309    22449980.9124   22449980.7474  117975451.393 7  91928936.63645
     -1159.324        -903.368
  24566536.631    24566536.5344   24566536.4284  129098046.879 6 100595880.59843
      3032.086        2362.646
  24862878.438    24862878.0324   24862877.3854  130655313.597 6 101809342.99543
     -4408.331       -3435.073
  22973938.823    22973938.4654   22973938.7684  120728864.220 7  94074455.34945
      1847.573        1439.677
 06  5 13 15  2 30.0000000  0 10G 2G 6G 7G 8G10G13G16G21G23G27
  23787751.601    23787751.2534   23787750.1754  125005470.492 7  97406874.49744
     -4206.859       -3278.086
  22914056.930    22914056.7584   22914057.7624  120414184.583 7  93829247.66844
     -2460.220       -1917.057
  23076367.647    23076367.1834   23076368.8424  121267128.651 7  94493884.68944
      1270.192         989.741
  24770560.789    24770561.1434   24770561.5054  130170178.843 6 101431322.91143
      3456.841        2693.640
  21168257.185    21168256.4194   21168257.3734  111239940.166 8  86680487.42646
       567.913         442.530
  22310573.222    22310573.6014   22310573.1174  117242855.424 8  91358083.00345
     -3268.539       -2546.916
  22456623.846    22456623.4154   22456623.3774  118010358.833 7  91956137.30445
     -1168.225        -910.323
  24549214.240    24549214.1544   24549214.2734  129007018.300 6 100524949.29343
      3036.278        2365.937
  24888022.213    24888022.5564   24888021.2324  130787447.145 6 101912304.13143
     -4401.056       -3429.391
  22963395.955    22963395.4744   22963395.6964  120673459.402 7  94031282.77345
      1845.933        1438.378
 06  5 13 15  3  0.0000000  0 10G 2G 6G 7G 8G10G13G16G21G23G27
  23811759.428    23811759.1404   23811758.7214  125131633.751 7  97505183.49844
     -4204.360       -3276.113
  22928116.782    22928116.4044   22928116.8674  120488066.803 7  93886818.25144
     -2465.531       -1921.186
  23069130.807    23069130.2524   23069131.8844  121229097.584 7  94464250.14444
      1264.799         985.550
  24750808.193    24750807.2574   24750808.7964  130066373.905 7 101350435.28643
      3463.237        2698.642
  21165041.316    21165040.3964   21165041.4594  111223039.496 8  86667317.98446
       558.378         435.100
  22329242.232    22329242.2444   22329241.8174  117340961.243 8  91434529.05345
     -3272.244       -2549.802
  22463319.928    22463319.7314   22463319.2154  118045548.276 7  91983557.66645
     -1177.860        -917.825
  24531869.600    24531869.0624   24531869.6834  128915870.529 6 100453925.11643
      3039.966        2368.802
  24913128.312    24913126.4814   24913124.5204  130919372.817 6 102015103.28043
     -4394.265       -3424.125
  22952862.258    22952862.0124   22952862.1824  120618106.320 7  93988150.46245
      1843.896        1436.806
 06  5 13 15  3 30.0000000  0 10G 2G 6G 7G 8G10G13G16G21G23G27
  23835754.423    23835754.2524   23835753.4044  125257728.432 7  97603439.04044
     -4202.441       -3274.623
  22942206.716    22942206.5114   22942207.0044  120562111.928 7  93944515.72044
     -2471.092       -1925.531
  23061925.771    23061925.0064   23061926.7704  121191236.041 7  94434747.72344
      1258.902         980.951
  24731019.059    24731018.8624   24731020.5354  129962384.804 6 101269404.85143
      3468.917        2703.119
  21161881.940    21161881.0494   21161881.9204  111206435.909 8  86654380.05546
       548.084         427.085
  22347933.612    22347933.6254   22347933.2134  117439184.395 7  91511066.56945
     -3276.417       -2553.036
  22470072.707    22470072.5594   22470072.1244  118081033.616 7  92011208.59245
     -1188.183        -925.854
  24514505.440    24514504.8154   24514505.2334  128824620.108 6 100382820.94443
      3043.151        2371.280
  24938194.551    24938194.7224   24938192.9284  131051103.096 6 102117750.19743
     -4387.959       -3419.186
  22942341.983    22942341.8934   22942342.5314  120562821.771 7  93945071.56345
      1841.215        1434.711
 06  5 13 15  4  0.0000000  0 10G 2G 6G 7G 8G10G13G16G21G23G27
  23859738.369    23859738.0944   23859736.7064  125383762.040 7  97701646.98844
     -4200.495       -3273.117
  22956329.773    22956329.8524   22956329.5564  120636329.217 7  94002347.44444
     -2477.287       -1930.368
  23054755.154    23054754.9994   23054756.6114  121153556.166 7  94405386.87444
      1252.514         975.979
  24711198.097    24711197.5904   24711199.2784  129858224.234 6 101188240.98443
      3474.349        2707.262
  21158780.976    21158780.2024   21158781.2004  111190140.919 7  86641682.57846
       537.542         418.868
  22366648.552    22366648.4404   22366648.1884  117537532.819 7  91587701.65845
     -3280.779       -2556.438
  22476883.726    22476883.3464   22476883.0694  118116824.612 7  92039097.68544
     -1198.719        -934.062
  24497123.085    24497123.0564   24497123.6494  128733280.271 6 100311647.15043
      3045.865        2373.382
  24963226.358    24963226.4264   24963225.2284  131182646.263 6 102220251.29243
     -4382.156       -3414.669
  22931837.083    22931836.6914   22931837.8824  120507618.269 7  93902055.84445
      1838.327        1432.473
 06  5 13 15  4 30.0000000  0 10G 2G 6G 7G 8G10G13G16G21G23G27
  23883711.269    23883711.2204   23883710.1504  125509742.418 7  97799813.49844
     -4198.694       -3271.713
  22970487.201    22970487.0584   22970487.4364  120710726.859 7  94060319.59744
     -2483.130       -1934.917
  23047622.341    23047622.0254   23047622.9454  121116070.577 7  94376177.41144
      1246.108         971.002
  24691346.822    24691346.0384   24691348.0344  129753904.630 7 101106953.09243
      3480.015        2711.738
  21155741.104    21155740.3014   21155741.4834  111174166.648 8  86629235.04846
       526.924         410.596
  22385389.050    22385389.2704   22385388.9224  117636015.273 7  91664441.22145
     -3285.147       -2559.841
  22483755.067    22483754.3504   22483753.9434  118152931.392 7  92067232.86545
     -1209.003        -942.081
  24479728.644    24479727.4804   24479727.0714  128641864.486 6 100240414.12943
      3048.449        2375.443
  24988224.505    24988224.5624   24988223.1094  131314010.738 6 102322613.16743
     -4375.972       -3409.857
  22921349.887    22921349.5604   22921350.9754  120452508.871 7  93859113.49845
      1835.361        1430.174
 06  5 13 15  5  0.0000000  0 10G 2G 6G 7G 8G10G13G16G21G23G27
  23907675.077    23907674.7924   23907674.1584  125635671.640 7  97897940.13644
     -4197.309       -3270.624
  22984679.271    22984679.5724   22984680.2054  120785308.339 7  94118435.05644
     -2489.583       -1939.955
  23040527.270    23040526.5144   23040528.0124  121078786.081 7  94347124.62544
      1238.924         965.393
  24671466.468    24671466.0324   24671467.8144  129649433.928 6 101025547.53343
      3484.353        2715.091
  21152763.422    21152762.8794   21152764.0724  111158518.891 8  86617041.91446
       515.627         401.798
  22404155.398    22404155.5804   22404155.6114  117734633.837 7  91741286.84545
     -3290.001       -2563.637
  22490686.459    22490686.0394   22490685.3744  118189357.737 7  92095617.05245
     -1220.013        -950.677
  24462318.957    24462318.4414   24462318.8734  128550380.422 6 100169127.87743
      3050.085        2376.704
  25013188.925    25013188.4374   25013187.6354  131445199.417 6 102424838.07943
     -4370.555       -3405.640
  22910881.972    22910881.7804   22910882.8864  120397499.776 7  93816249.26945
      1831.419        1427.088
 06  5 13 15  5 30.0000000  0 10G 2G 6G 7G 8G10G13G16G21G23G27
  23931631.984    23931631.6634   23931630.9374  125761566.627 7  97996040.07345
     -4196.100       -3269.673
  22998910.232    22998909.8054   22998910.9604  120860091.049 7  94176707.22244
     -2496.430       -1945.262
  23033474.074    23033473.7864   23033475.1184  121041723.731 7  94318244.94344
      1231.404         959.533
  24651561.775    24651561.6874   24651562.7164  129544834.763 6 100944041.83743
      3488.345        2718.180
  21149852.066    21149851.3824   21149852.4504  111143218.386 7  86605119.39146
       503.930         392.670
  22422951.441    22422951.6704   22422951.1284  117833405.848 8  91818252.00045
     -3295.214       -2567.716
  22497682.853    22497682.2854   22497681.5484  118226122.977 7  92124265.30545
     -1231.448        -959.571
  24444901.686    24444901.3854   24444901.2874  128458850.700 6 100097805.99843
      3051.524        2377.794
  25038123.359    25038122.5114   25038122.1544  131576229.151 6 102526939.12842
     -4365.368       -3401.635
  22900437.433    22900437.2804   22900438.2124  120342612.908 7  93773480.31145
      1827.088        1423.695
 06  5 13 15  6  0.0000000  0 10G 2G 6G 7G 8G10G13G16G21G23G27
  23955580.609    23955580.3284   23955579.5934  125887417.096 7  98094105.26144
     -4194.187       -3268.196
  23013177.096    23013177.2864   23013177.9444  120935065.668 7  94235128.86444
     -2502.387       -1949.902
  23026462.830    23026462.1844   23026463.4234  121004878.136 7  94289534.13844
      1224.413         954.103
  24631632.132    24631631.1114   24631633.3794  129440102.072 6 100862431.88643
      3493.280        2722.101
  21147005.545    21147004.5864   21147005.7594  111128258.817 8  86593462.55046
       492.930         384.104
  22441774.580    22441774.6724   22441774.4364  117932321.821 7  91895329.37345
     -3299.690       -2571.187
  22504741.855    22504741.4264   22504740.6504  118263218.685 7  92153171.07445
     -1242.083        -967.839
  24427474.404    24427473.5884   24427473.5654  128367270.069 6 100026444.49043
      3053.184        2379.080
  25063024.850    25063024.1934   25063023.5204  131707090.274 6 102628908.77642
     -4359.259       -3396.853
  22890015.317    22890014.8514   22890015.7584  120287842.595 7  93730802.16645
      1823.537        1420.929
 06  5 13 15  6 30.0000000  0 10G 2G 6G 7G 8G10G13G16G21G23G27
  23979521.855    23979521.5754   23979521.0114  126013229.057 7  98192140.43344
     -4193.751       -3267.833
  23027482.553    23027482.5104   23027483.3844  121010238.931 7  94293705.30744
     -2509.850       -1955.719
  23019494.669    23019494.0514   23019495.2574  120968259.333 7  94261000.03244
      1216.165         947.659
  24611679.017    24611677.6824   24611680.6894  129335247.204 6 100780726.68243
      3496.578        2724.607
  21144225.450    21144224.6314   21144225.6994  111113649.677 8  86582078.78046
       480.475         374.410
  22460626.156    22460626.3284   22460626.1204  118031387.635 7  91972523.51945
     -3305.302       -2575.562
  22511865.442    22511864.6474   22511864.1794  118300652.655 7  92182340.42745
     -1254.078        -977.196
  24410039.906    24410039.0834   24410038.5944  128275649.821 6  99955052.05643
      3053.875        2379.665
  25087896.328    25087895.9884   25087895.1924  131837789.515 6 102730752.25042
     -4354.557       -3393.144
  22879616.987    22879616.5264   22879617.5904  120233199.174 7  93688222.83945
      1818.679        1417.165
 06  5 13 15  7  0.0000000  0 10G 2G 6G 7G 8G10G13G16G21G23G27
  24003459.334    24003459.0614   24003458.3814  126139019.740 7  98290159.06044
     -4192.560       -3266.901
  23041828.723    23041828.5224   23041829.8544  121085629.048 7  94352450.76044
     -2516.476       -1960.870
  23012573.377    23012572.9184   23012574.2594  120931889.184 7  94232659.67744
      1208.223         941.502
  24591706.387    24591705.8494   24591708.1324  129230293.705 6 100698944.94043
      3500.358        2727.553
  21141516.082    21141515.2484   21141516.3774  111099411.771 8  86570984.25246
       468.389         364.999
  22479509.940    22479510.0214   22479509.6694  118130620.718 7  92049847.98145
     -3310.509       -2579.592
  22519056.795    22519056.5384   22519055.4904  118338443.902 7  92211788.16345
     -1265.637        -986.173
  24392601.582    24392601.2474   24392600.6784  128184012.537 6  99883646.38543
      3054.914        2380.454
  25112740.068    25112739.8394   25112738.6824  131968344.415 6 102832483.21342
     -4349.325       -3389.066
  22869246.989    22869246.6304   22869247.4614  120178704.824 7  93645759.71045
      1813.997        1413.515
 06  5 13 15  7 30.0000000  0  9G 2G 6G 7G 8G10G13G16G21G27
  24027391.145    24027391.1154   24027390.5854  126264782.823 7  98388156.15644
     -4191.854       -3266.379
  23056215.300    23056215.2314   23056216.7904  121161230.449 7  94411360.85344
     -2523.738       -1966.536
  23005699.414    23005699.1814   23005700.2214  120895765.774 7  94204511.60244
      1199.843         934.922
  24571715.008    24571714.7394   24571717.1034  129125240.433 6 100617085.51443
      3503.222        2729.790
  21138876.762    21138876.0774   21138877.0834  111085542.776 8  86560177.24246
       455.904         355.243
  22498423.615    22498423.9354   22498423.7264  118230015.561 7  92127298.48245
     -3316.126       -2583.982
  22526315.583    22526314.8584   22526314.4164  118376588.155 7  92241510.94345
     -1277.508        -995.467
  24375160.342    24375159.8114   24375159.7374  128092357.355 6  99812226.77443
      3055.058        2380.548
  22858904.937    22858904.7914   22858905.9944  120124357.680 7  93603411.26045
      1808.873        1409.501
 06  5 13 15  8  0.0000000  0  9G 2G 6G 7G 8G10G13G16G21G27
  24051319.295    24051319.0994   24051318.5144  126390526.829 7  98486138.46444
     -4191.051       -3265.757
  23070643.769    23070643.8894   23070645.2544  121237052.252 7  94470442.61844
     -2531.182       -1972.342
  22998874.844    22998874.5584   22998875.5274  120859902.081 7  94176565.89044
      1191.003         928.048
  24551707.724    24551707.5884   24551709.7284  129020100.541 6 100535158.37043
      3505.830        2731.819
  21136310.079    21136309.3924   21136310.3694  111072055.162 8  86549667.56546
       443.115         345.272
  22517370.456    22517370.5424   22517370.1814  118329580.506 7  92204881.53444
     -3321.796       -2588.430
  22533643.006    22533642.8564   22533642.0754  118415095.632 7  92271516.75645
     -1289.708       -1004.979
  24357717.909    24357717.8124   24357717.6664  128000698.451 6  99740804.25443
      3055.245        2380.704
  22848593.684    22848593.5704   22848594.5964  120070170.768 7  93561187.70445
      1803.484        1405.311
 06  5 13 15  8 30.0000000  0  9G 2G 6G 7G 8G10G13G16G21G27
  24075244.207    24075243.6204   24075243.1834  126516251.114 7  98584105.31144
     -4190.949       -3265.654
  23085114.375    23085114.3244   23085115.6244  121313094.960 7  94529696.55344
     -2539.056       -1978.485
  22992100.399    22992099.7614   22992101.1474  120824302.042 7  94148825.61844
      1181.689         920.793
  24531685.125    24531684.1474   24531686.6804  128914879.745 6 100453168.25143
      3508.087        2733.576
  21133816.463    21133815.9404   21133816.8484  111058951.868 7  86539457.40246
       429.860         334.951
  22536349.342    22536349.6394   22536349.4384  118429315.805 7  92282597.32944
     -3327.860       -2593.123
  22541040.206    22541039.8904   22541039.3124  118453967.974 7  92301806.86845
     -1302.451       -1014.894
  24340276.200    24340276.1174   24340275.9214  127909040.289 6  99669382.28843
      3054.813        2380.378
  22838313.592    22838313.4584   22838314.5604  120016148.920 7  93519092.74845
      1797.394        1400.556
 06  5 13 15  9  0.0000000  0  9G 2G 6G 7G 8G10G13G16G21G27
  24099166.522    24099166.1204   24099165.9894  126641963.644 7  98682062.91244
     -4190.396       -3265.228
  23099629.191    23099628.7294   23099629.8824  121389367.896 7  94589130.04644
     -2546.358       -1984.162
  22985378.223    22985377.9524   22985379.1614  120788978.324 7  94121300.64144
      1172.768         913.851
  24511648.836    24511648.7284   24511651.4034  128809591.347 6 100371125.27043
      3510.642        2735.601
  21131398.383    21131397.5664   21131398.5264  111046244.780 8  86529555.89046
       416.795         324.772
  22555362.377    22555362.3574   22555362.2884  118529229.744 7  92360452.33944
     -3333.553       -2597.566
  22548508.610    22548508.4474   22548507.7324  118493214.949 7  92332388.91345
     -1314.609       -1024.369
  24322837.123    24322836.7764   24322836.0644  127817396.773 6  99597971.68043
      3054.392        2380.078
  22828067.369    22828067.2144   22828068.0754  119962304.606 7  93477136.16545
      1791.750        1396.179
 06  5 13 15  9 30.0000000  0  9G 2G 6G 7G 8G10G13G16G21G27
  24123087.702    24123087.2904   24123086.7254  126767668.541 7  98780014.53744
     -4190.528       -3265.344
  23114187.508    23114187.4484   23114188.2894  121465875.073 7  94648746.08244
     -2554.581       -1990.568
  22978710.730    22978710.5244   22978711.7764  120753938.932 7  94093997.20644
      1162.798         906.076
  24491602.304    24491602.1404   24491603.8584  128704244.900 6 100289037.00343
      3511.859        2736.510
  21129056.954    21129056.2834   21129057.3334  111033941.341 8  86519968.85646
       402.950         313.982
  22574410.421    22574410.2204   22574409.9694  118629326.603 7  92438449.88744
     -3340.132       -2602.701
  22556049.443    22556048.9924   22556048.3694  118532842.192 7  92363267.27745
     -1327.730       -1034.609
  24305402.107    24305401.3464   24305401.8034  127725777.349 6  99526579.96343
      3053.041        2378.977
  22817856.497    22817856.3784   22817857.0004  119908645.828 7  93435324.09845
      1784.974        1390.898
 06  5 13 15 10  0.0000000  0  9G 2G 6G 7G 8G10G13G16G21G27
  24147008.455    24147008.4304   24147008.3154  126893374.532 7  98877967.20544
     -4190.685       -3265.473
  23128792.496    23128792.6124   23128793.1874  121542625.844 7  94708551.98444
     -2562.864       -1997.044
  22972099.670    22972099.1534   22972100.2684  120719196.846 7  94066925.44044
      1152.603         898.126
  24471547.252    24471546.9094   24471549.4634  128598855.021 6 100206915.28143
      3513.220        2737.587
  21126794.866    21126793.9214   21126794.9684  111022053.372 8  86510705.56946
       388.820         302.966
  22593494.524    22593494.6234   22593494.4054  118729614.671 7  92516596.42244
     -3346.632       -2607.764
  22563664.265    22563664.0674   22563663.5484  118572859.597 7  92394449.64245
     -1340.869       -1044.834
  24287975.026    24287974.1384   24287974.9264  127634195.485 6  99455217.47243
      3051.444        2377.743
  22807683.299    22807683.0554   22807683.8914  119855185.734 7  93393666.88045
      1778.145        1385.580
 06  5 13 15 10 30.0000000  0  9G 2G 6G 7G 8G10G13G16G21G27
  24170929.666    24170929.5994   24170929.2774  127019080.496 7  98975919.93444
     -4190.250       -3265.128
  23143443.775    23143443.6734   23143444.4254  121619619.900 7  94768547.48044
     -2570.616       -2003.096
  22965545.792    22965545.1534   22965545.9874  120684755.308 7  94040087.88344
      1142.780         890.473
  24451484.636    24451484.2374   24451486.5144  128493425.465 6 100124762.51943
      3514.817        2738.811
  21124612.114    21124611.2994   21124612.2564  111010583.471 8  86501768.01646
       375.163         292.314
  22612614.642    22612614.9284   22612614.8904  118830093.850 7  92594891.89344
     -3352.665       -2612.493
  22571354.497    22571353.6444   22571353.2384  118613268.459 7  92425937.04945
     -1353.608       -1054.764
  24270555.593    24270554.6834   24270555.0654  127542655.795 6  99383887.82943
      3050.380        2376.884
  22797548.700    22797548.6914   22797549.5714  119801928.053 7  93352167.36845
      1771.639        1380.482
 06  5 13 15 11  0.0000000  0  9G 2G 6G 7G 8G10G13G16G21G27
  24194850.707    24194850.3524   24194850.1984  127144786.698 7  99073872.80044
     -4190.655       -3265.445
  23158141.483    23158141.7994   23158142.9714  121696858.428 7  94828733.41644
     -2579.129       -2009.723
  22959049.743    22959049.2844   22959050.1404  120650619.280 7  94013488.36944
      1132.308         882.317
  24431415.366    24431415.3374   24431417.5454  128387963.184 6 100042584.40843
      3515.465        2739.334
  21122509.643    21122508.9284   21122510.1024  110999535.760 8  86493159.41946
       360.742         281.092
  22631772.186    22631772.0524   22631771.8654  118930764.720 7  92673336.69544
     -3359.355       -2617.692
  22579118.821    22579118.4664   22579117.9594  118654070.872 7  92457731.12145
     -1366.988       -1065.189
  24253145.497    24253144.3284   24253144.3394  127451164.402 6  99312595.94543
      3048.465        2375.385
  22787454.008    22787453.6474   22787454.6574  119748878.201 7  93310829.78645
      1764.438        1374.871
 06  5 13 15 11 30.0000000  0  9G 2G 6G 7G 8G10G13G16G21G27
  24218772.739    24218772.4064   24218772.2984  127270497.750 7  99171829.38944
     -4190.680       -3265.446
  23172887.519    23172887.3104   23172888.4384  121774346.420 7  94889113.63444
     -2587.411       -2016.182
  22952613.631    22952613.1664   22952614.3104  120616797.429 7  93987133.64544
      1121.728         874.078
  24411341.703    24411341.1924   24411343.2754  128282476.457 6  99960386.95343
      3516.309        2739.993
  21120489.258    21120488.4454   21120489.6124  110988918.091 8  86484885.91446
       346.401         269.938
  22650966.283    22650966.6714   22650966.3594  119031631.935 7  92751934.48744
     -3365.831       -2622.728
  22586959.112    22586958.9484   22586958.4764  118695272.960 7  92489836.61345
     -1380.393       -1075.631
  24235745.609    24235745.2594   24235745.2454  127359730.786 6  99241349.09743
      3046.223        2373.696
  22777400.298    22777399.7884   22777400.4854  119696044.773 7  93269660.87745
      1757.175        1369.229
 06  5 13 15 12  0.0000000  0 10G 2G 6G 7G 8G10G13G16G21G27G29
  24242695.280    24242694.6854   24242694.2624  127396209.421 7  99269786.49844
     -4190.843       -3265.594
  23187680.031    23187679.8664   23187680.7624  121852080.455 7  94949685.61344
     -2595.591       -2022.547
  22946237.310    22946236.8854   22946238.1404  120583289.968 7  93961023.90944
      1111.238         865.895
  24391264.390    24391264.1484   24391266.1774  128176967.349 6  99878171.86743
      3516.960        2740.471
  21118550.626    21118549.9954   21118551.0624  110978730.230 8  86476947.30146
       332.042         258.736
  22670197.381    22670197.5464   22670197.7444  119132691.858 7  92830682.46144
     -3372.364       -2627.822
  22594875.157    22594874.8544   22594874.3484  118736872.020 7  92522251.42645
     -1393.613       -1085.913
  24218357.770    24218357.2874   24218356.9354  127268356.881 6  99170148.78143
      3044.337        2372.215
  22767387.176    22767387.2894   22767387.8654  119643428.262 8  93228661.00745
      1749.840        1363.511
  25011569.585                                   131436668.072 4
      3567.000
 06  5 13 15 12 30.0000000  0 10G 2G 6G 7G 8G10G13G16G21G27G29
  24266619.813    24266619.8094   24266619.0994  127521935.398 7  99367754.84344
     -4191.363       -3265.977
  23202521.648    23202521.5024   23202522.5514  121930074.668 7  95010460.33044
     -2604.346       -2029.357
  22939924.350    22939923.5364   22939925.0014  120550114.611 7  93935172.98444
      1100.176         857.275
  24371186.155    24371186.1114   24371188.1114  128071456.094 6  99795955.46643
      3516.677        2740.247
  21116697.220    21116696.3664   21116697.3554  110968989.323 8  86469356.98746
       317.102         247.094
  22689467.806    22689467.9844   22689467.9034  119233957.976 7  92909591.07644
     -3379.145       -2633.098
  22602869.732    22602869.3924   22602868.8614  118778883.304 7  92554987.47345
     -1407.484       -1096.749
  24200985.073    24200984.2084   24200983.9124  127177061.175 6  99099009.36043
      3041.638        2370.113
  22757419.503    22757419.2794   22757420.0544  119591046.700 7  93187844.20645
      1741.992        1357.405
  24991197.707                                   131329614.256 4
      3570.110
 06  5 13 15 13  0.0000000  0 10G 2G 6G 7G 8G10G13G16G21G27G29
  24290546.506    24290545.9014   24290546.3114  127647672.052 7  99465731.33944
     -4191.844       -3266.371
  23217412.792    23217412.1904   23217413.8434  122008327.249 7  95071436.40544
     -2613.197       -2036.268
  22933674.675    22933674.3464   22933675.8624  120517272.837 7  93909581.95744
      1088.816         848.427
  24351107.361    24351107.2834   24351109.6094  127965944.413 6  99713738.81943
      3516.679        2740.268
  21114928.569    21114927.6804   21114928.6454  110959695.355 8  86462114.93146
       301.945         235.283
  22708776.999    22708777.1264   22708777.1014  119335427.751 7  92988658.39944
     -3385.932       -2638.399
  22610942.270    22610941.8764   22610941.7524  118821305.611 7  92588043.78645
     -1421.262       -1107.488
  24183627.583    24183626.0744   24183626.2514  127085845.758 6  99027932.48343
      3038.819        2367.911
  22747497.015    22747496.4744   22747497.1904  119538901.567 7  93147211.64845
      1733.903        1351.104
  24970806.902                                   131222467.390 5
      3572.507
 06  5 13 15 13 30.0000000  0 10G 2G 6G 7G 8G10G13G16G21G27G29
  24314476.333    24314475.8984   24314475.7324  127773421.580 7  99563717.80944
     -4192.412       -3266.860
  23232353.073    23232352.8944   23232354.5714  122086839.837 7  95132614.98544
     -2621.897       -2043.047
  22927489.921    22927489.4034   22927490.5064  120484770.457 7  93884255.40045
      1077.188         839.359
  24331030.859    24331030.0574   24331032.6344  127860439.112 6  99631526.87543
      3516.201        2739.862
  21113246.050    21113245.3464   21113246.1614  110950853.467 8  86455225.11446
       286.585         223.293
  22728125.212    22728125.2904   22728125.1524  119437103.192 7  93067885.97044
     -3393.064       -2643.969
  22619093.953    22619093.7094   22619093.1944  118864142.096 7  92621422.83245
     -1435.301       -1118.434
  24166286.316    24166286.2894   24166285.1924  126994717.356 7  98956923.42043
      3035.575        2365.380
  22737620.062    22737619.7734   22737620.4734  119486999.339 7  93106768.36745
      1725.403        1344.458
  24950400.979                                   131115234.199 4
      3575.455
 06  5 13 15 14  0.0000000  0 10G 2G 6G 7G 8G10G13G16G21G27G29
  24338408.723    24338408.6124   24338408.6544  127899188.476 7  99661718.02444
     -4192.768       -3267.101
  23247344.007    23247343.9594   23247345.2964  122165617.768 7  95194000.38044
     -2630.541       -2049.807
  22921371.195    22921370.8324   22921371.6724  120452615.790 7  93859199.79445
      1065.706         830.427
  24310957.115    24310956.7564   24310959.0374  127754950.238 7  99549327.78143
      3515.669        2739.482
  21111650.852    21111650.1134   21111651.1794  110942471.266 8  86448693.50046
       271.287         211.386
  22747513.322    22747513.5374   22747513.3724  119538988.600 7  93147277.18144
     -3400.048       -2649.376
  22627325.652    22627325.1594   22627324.5834  118907398.636 7  92655129.19645
     -1449.296       -1129.316
  24148963.315    24148962.8994   24148962.2754  126903686.151 7  98885990.09643
      3032.466        2362.936
  22727791.183    22727790.9084   22727791.3724  119435348.286 7  93066520.81745
      1717.088        1337.990
  24929979.813                                   131007923.365 5
      3577.690
 06  5 13 15 14 30.0000000  0 10G 2G 6G 7G 8G10G13G16G21G27G29
  24362345.219    24362345.0784   24362344.3434  128024975.415 7  99759733.84144
     -4192.938       -3267.215
  23262386.021    23262386.2394   23262387.1344  122244664.300 7  95255595.06944
     -2638.928       -2056.323
  22915320.163    22915319.4984   22915320.4044  120420816.134 7  93834420.82545
      1054.339         821.550
  24290888.163    24290887.2604   24290889.7804  127649486.480 7  99467148.33144
      3515.243        2739.126
  21110144.471    21110143.7494   21110144.7404  110934555.669 8  86442525.49246
       256.446         199.824
  22766942.077    22766942.1664   22766941.9434  119641087.123 7  93226834.43244
     -3406.375       -2654.320
  22635637.726    22635637.2384   22635636.6744  118951079.782 7  92689166.40845
     -1462.679       -1139.752
  24131660.789    24131660.1674   24131659.7694  126812761.041 6  98815139.40543
      3029.526        2360.658
  22718011.651    22718011.2924   22718011.6964  119383956.197 7  93026475.02845
      1709.072        1331.729
  24909548.274    24909545.5624   24909547.6524  130900544.262 5 102000450.85741
      3581.007        2790.383
 06  5 13 15 15  0.0000000  0 11G 2G 3G 6G 7G 8G10G13G16G21G27G29
  24386285.286    24386285.4834   24386284.8474  128150782.049 7  99857764.92844
     -4194.084       -3268.126
  25074406.977    25074406.3534   25074409.0894  131766902.946 6 102675521.13942
      3300.116        2571.497
  23277479.533    23277479.2124   23277480.8374  122323980.452 7  95317399.86244
     -2648.461       -2063.749
  22909336.682    22909336.3304   22909337.4904  120389375.638 7  93809921.74844
      1041.917         811.868
  24270824.283    24270823.8144   24270826.1314  127544053.444 6  99384992.90444
      3513.968        2738.144
  21108727.568    21108726.8954   21108727.9434  110927109.421 8  86436723.18546
       240.353         187.276
  22786411.295    22786411.8634   22786411.3614  119743399.080 7  93306558.01544
     -3414.018       -2660.287
  22644030.631    22644030.4584   22644030.3234  118995186.672 7  92723535.39544
     -1477.487       -1151.305
  24114378.813    24114378.1574   24114378.4004  126721946.808 7  98744375.11343
      3025.130        2357.214
  22708281.919    22708281.5624   22708282.1464  119332827.211 7  92986634.26745
      1699.762        1324.491
  24889102.946    24889101.4474   24889103.3374  130793100.990 5 101916728.78541
      3582.399        2791.396
 06  5 13 15 15 30.0000000  0 11G 2G 3G 6G 7G 8G10G13G16G21G27G29
  24410226.404    24410226.5224   24410226.2374  128276593.849 7  99955799.94644
     -4193.883       -3267.907
  25055568.975    25055569.1704   25055571.3374  131667908.900 6 102598382.92643
      3298.984        2570.644
  23292621.161    23292621.3504   23292622.6054  122403551.349 7  95379403.13544
     -2656.699       -2070.123
  22903420.210    22903419.7634   22903420.9634  120358283.879 7  93785694.42544
      1030.429         802.946
  24250765.181    24250764.8684   24250767.1304  127438641.615 6  99302853.99944
      3513.152        2737.520
  21107397.920    21107397.1754   21107398.1534  110920121.411 8  86431277.91046
       225.073         175.393
  22805918.625    22805919.1564   22805918.6094  119845910.139 7  93386436.71844
     -3420.470       -2665.276
  22652502.579    22652502.2114   22652502.1284  119039706.539 7  92758226.18844
     -1491.011       -1161.806
  24097116.941    24097116.8264   24097116.0564  126631234.265 6  98673690.07143
      3021.854        2354.677
  22698600.753    22698600.3494   22698601.1184  119281951.657 7  92946990.98245
      1691.526        1318.096
  24868642.080    24868642.2634   24868645.2934  130685584.733 5 101832950.17641
      3585.408        2793.840
 06  5 13 15 16  0.0000000  0 11G 2G 3G 6G 7G 8G10G13G16G21G27G29
  24434171.919    24434171.6384   24434171.1284  128402424.770 7 100053850.00543
     -4194.585       -3268.510
  25036740.894    25036741.1184   25036742.9684  131568965.717 6 102521284.40143
      3297.375        2569.350
  23307814.009    23307814.1044   23307815.2614  122483391.722 7  95441616.38744
     -2665.708       -2077.170
  22897573.211    22897572.7994   22897574.1014  120327558.601 7  93761752.69044
      1018.050         793.287
  24230713.586    24230713.0014   24230715.5464  127333270.312 6  99220746.62544
      3511.791        2736.461
  21106158.840    21106157.9434   21106158.9064  110913608.578 8  86426202.84946
       209.206         163.031
  22825466.458    22825466.4624   22825466.5294  119948634.039 7  93466481.29444
     -3427.629       -2670.883
  22661055.682    22661055.7384   22661054.9464  119084654.494 7  92793250.57044
     -1505.300       -1172.946
  24079877.856    24079877.6354   24079877.1494  126540642.187 7  98603098.90643
      3017.697        2351.465
  22688970.832    22688970.7854   22688971.1074  119231347.175 7  92907558.93145
      1682.347        1310.919
  24848172.085    24848173.0384   24848173.8384  130578013.320 5 101749128.31141
      3586.852        2795.034
 06  5 13 15 16 30.0000000  0 11G 2G 3G 6G 7G 8G10G13G16G21G27G29
  24458119.875    24458119.7814   24458119.7634  128528273.981 7 100151914.16043
     -4195.479       -3269.199
  25017922.900    25017922.9284   25017925.4034  131470078.734 6 102444229.66243
      3294.914        2567.488
  23323059.171    23323058.4964   23323059.4614  122563501.791 7  95504039.77644
     -2674.965       -2084.383
  22891797.106    22891796.4684   22891797.6974  120297203.461 7  93738099.37545
      1005.212         783.284
  24210670.694    24210670.6144   24210672.2574  127227944.738 7  99138674.90944
      3509.616        2734.746
  21105010.502    21105009.6634   21105010.7044  110907573.876 8  86421500.39546
       192.843         150.275
  22845054.578    22845054.7864   22845054.5334  120051570.759 7  93546691.70344
     -3435.015       -2676.615
  22669691.003    22669690.7764   22669689.8684  119130031.589 7  92828609.35245
     -1520.039       -1184.441
  24062662.447    24062662.7114   24062661.2614  126450175.968 6  98532605.81443
      3013.492        2348.167
  22679393.415    22679393.1454   22679394.0844  119181018.294 7  92868341.61545
      1672.713        1303.427
  24827692.644    24827691.4384   24827694.9814  130470391.682 5 101665267.39141
      3588.029        2795.820
 06  5 13 15 17  0.0000000  0 11G 2G 3G 6G 7G 8G10G13G16G21G27G29
  24482070.736    24482070.5634   24482070.3404  128654135.839 6 100249988.17443
     -4195.638       -3269.348
  24999116.033    24999115.6674   24999118.9144  131371247.442 6 102367218.30343
      3293.458        2566.336
  23338353.999    23338353.2734   23338354.2914  122643876.138 7  95566669.10644
     -2683.551       -2091.094
  22886090.733    22886090.1244   22886091.5584  120267216.618 7  93714733.04544
       993.313         774.021
  24190636.218    24190636.0024   24190638.4564  127122664.276 6  99056638.31944
      3508.578        2733.955
  21103952.682    21103951.8044   21103953.0074  110902014.568 8  86417168.35946
       177.369         138.205
  22864682.406    22864682.8294   22864682.2724  120154714.586 7  93627063.48544
     -3441.429       -2681.655
  22678406.932    22678406.7894   22678405.8634  119175833.444 7  92864299.13944
     -1533.741       -1195.143
  24045471.140    24045470.9754   24045470.5094  126359835.179 6  98462210.46543
      3009.335        2344.923
  22669868.338    22669868.1694   22669868.8494  119130962.854 7  92829337.37345
      1664.017        1296.611
  24807201.903    24807203.6544   24807202.5664  130362719.145 5 101581366.79441
      3589.799        2797.286
 06  5 13 15 17 30.0000000  0 11G 2G 3G 6G 7G 8G10G13G16G21G27G29
  24506024.523    24506024.1084   24506024.5264  128780012.218 6 100348073.42843
     -4196.331       -3269.867
  24980320.908    24980320.9534   24980323.1004  131272479.664 6 102290256.45343
      3290.735        2564.209
  23353698.465    23353698.1284   23353700.2924  122724517.309 6  95629506.35044
     -2692.751       -2098.243
  22880455.699    22880455.1774   22880456.3034  120237604.197 7  93691658.45445
       980.402         763.954
  24170611.706    24170611.9864   24170614.3774  127017436.356 6  98974642.61244
      3506.418        2732.284
  21102986.360    21102985.6644   21102986.7644  110896935.999 8  86413210.92446
       160.945         125.426
  22884349.876    22884350.0194   22884349.7794  120258067.769 7  93707598.41444
     -3448.876       -2687.444
  22687203.887    22687203.8294   22687203.3334  119222062.646 7  92900321.89544
     -1548.321       -1206.474
  24028305.134    24028304.8394   24028304.4614  126269626.923 7  98391918.42543
      3004.391        2341.084
  22660396.506    22660396.2754   22660396.7094  119081187.415 7  92790551.32045
      1654.118        1288.932
  24786704.975    24786705.1634   24786707.4884  130255002.728 5 101497432.16841
      3590.888        2798.052
 06  5 13 15 18  0.0000000  0 11G 2G 3G 6G 7G 8G10G13G16G21G27G29
  24529983.454    24529983.6024   24529983.2524  128905918.420 6 100446181.98843
     -4197.269       -3270.591
  24961542.032    24961542.1624   24961544.6074  131173796.186 6 102213360.28443
      3288.218        2562.220
  23369098.083    23369097.8594   23369099.2204  122805440.688 7  95692563.41144
     -2701.995       -2105.458
  22874895.270    22874894.8684   22874896.2524  120208385.222 7  93668890.45344
       967.417         753.828
  24150601.402    24150601.3554   24150603.4484  126912281.381 6  98892703.57344
      3504.017        2730.386
  21102115.084    21102114.1824   21102115.3084  110892356.564 8  86409642.44646
       144.502         112.596
  22904059.888    22904059.9524   22904060.0814  120361645.271 7  93788308.13244
     -3456.206       -2693.167
  22696085.383    22696085.1244   22696084.8464  119268736.501 7  92936691.14244
     -1563.047       -1217.948
  24011168.285    24011167.8804   24011167.6644  126179571.510 6  98321745.41543
      2999.469        2337.221
  22650981.551    22650981.4414   22650981.9444  119031711.659 7  92751998.77745
      1644.387        1281.320
  24766202.238    24766202.9524   24766205.0714  130147262.015 5 101413478.33441
      3591.725        2798.726
 06  5 13 15 18 30.0000000  0 11G 2G 3G 6G 7G 8G10G13G16G21G27G29
  24553943.006    24553942.9964   24553942.8214  129031826.352 6 100544292.11543
     -4197.188       -3270.512
  24942774.762    24942774.7874   24942777.0964  131075174.396 6 102136512.19343
      3286.083        2560.622
  23384546.529    23384546.1594   23384546.6904  122886618.361 7  95755818.66644
     -2710.342       -2111.961
  22869405.323    22869404.9774   22869405.9664  120179535.402 7  93646410.09344
       955.266         744.367
  24130601.272    24130601.0744   24130603.0864  126807177.393 6  98810804.40344
      3502.292        2729.031
  21101333.763    21101333.1114   21101334.1074  110888251.250 8  86406443.44146
       128.672         100.269
  22923807.748    22923807.8604   22923807.4004  120465419.129 7  93869170.84044
     -3462.617       -2698.151
  22705046.572    22705046.4074   22705046.0264  119315828.025 7  92973385.82644
     -1576.861       -1228.725
  23994056.753    23994055.3174   23994055.2474  126089646.066 7  98251673.66143
      2995.090        2333.821
  22641619.243    22641618.8404   22641619.2764  118982511.691 7  92713661.14545
      1635.136        1274.133
  24745691.098    24745692.4154   24745695.9114  130039473.986 5 101329487.68041
      3593.381        2800.081
 06  5 13 15 19  0.0000000  0 11G 2G 3G 6G 7G 8G10G13G16G21G27G29
  24577906.022    24577905.8514   24577905.5784  129157750.230 6 100642414.36743
     -4198.013       -3271.174
  24924023.707    24924023.2754   24924025.8374  130976634.846 6 102059728.17643
      3282.760        2558.009
  23400045.727    23400045.6024   23400046.0444  122968066.271 7  95819284.50144
     -2720.033       -2119.524
  22863988.973    22863988.9184   22863989.8764  120151074.240 7  93624232.57044
       941.727         733.815
  24110613.944    24110613.5554   24110615.8014  126702144.609 6  98728960.78844
      3499.411        2726.798
  21100646.441    21100645.4904   21100646.5384  110884638.027 8  86403627.88446
       111.817          87.127
  22943595.400    22943595.7254   22943595.3274  120569405.142 7  93950198.87244
     -3470.133       -2704.007
  22714090.615    22714090.4514   22714090.1744  119363353.427 7  93010418.62744
     -1591.725       -1240.305
  23976972.144    23976971.7974   23976971.6524  125999871.385 7  98181719.41243
      2989.432        2329.423
  22632312.828    22632312.6744   22632313.0054  118933606.724 7  92675553.37745
      1624.839        1266.105
  24725173.997    24725173.6644   24725175.8804  129931659.352 5 101245476.43241
      3593.614        2800.174
 06  5 13 15 19 30.0000000  0 11G 2G 3G 6G 7G 8G10G13G16G21G27G29
  24601871.740    24601871.7604   24601871.2424  129283690.258 6 100740549.39243
     -4198.709       -3271.715
  24905288.803    24905288.2484   24905290.5964  130878182.548 6 101983012.11243
      3279.727        2555.628
  23415596.077    23415596.0654   23415596.2934  123049784.106 7  95882960.73244
     -2728.854       -2126.397
  22858647.815    22858647.4314   22858648.6214  120123004.735 7  93602360.25344
       928.823         723.738
  24090640.908    24090640.9764   24090642.8414  126597187.611 6  98647176.18744
      3496.735        2724.717
  21100052.768    21100052.0834   21100053.0604  110881519.246 8  86401197.61046
        95.190          74.165
  22963423.565    22963423.4024   22963423.0274  120673601.995 7  94031391.17444
     -3477.151       -2709.490
  22723217.166    22723216.7944   22723216.0244  119411313.468 7  93047790.09444
     -1606.415       -1251.761
  23959918.566    23959918.2944   23959917.5094  125910251.900 7  98111886.09543
      2984.200        2325.333
  22623063.580    22623063.3104   22623063.5654  118885000.469 8  92637678.36745
      1614.723        1258.218
  24704653.755    24704652.7504   24704655.3194  129823821.859 5 101161447.35241
      3594.474        2800.918
 06  5 13 15 20  0.0000000  0 11G 2G 3G 6G 7G 8G10G13G16G21G27G29
  24625841.192    24625840.9024   24625841.2684  129409649.634 6 100838699.48643
     -4199.136       -3272.057
  24886572.381    24886572.2144   24886574.3744  130779827.123 6 101906371.55443
      3276.694        2553.285
  23431198.958    23431198.8564   23431199.4304  123131775.938 7  95946850.45944
     -2737.787       -2133.348
  22853382.192    22853381.7674   22853383.0604  120095334.824 7  93580799.32844
       915.392         713.292
  24070685.172    24070684.5754   24070686.8174  126492315.673 7  98565457.81044
      3493.955        2722.570
  21099554.762    21099553.9654   21099555.0524  110878901.858 8  86399158.05246
        78.682          61.311
  22983292.740    22983292.5634   22983292.1814  120778013.896 7  94112751.09244
     -3484.044       -2714.824
  22732427.253    22732427.0414   22732427.0184  119459713.222 7  93085504.18444
     -1620.689       -1262.871
  23942895.452    23942895.3624   23942894.9964  125820796.842 7  98042180.92943
      2978.930        2321.250
  22613872.601    22613872.1434   22613872.7274  118836700.999 8  92600042.41645
      1604.670        1250.396
  24684131.321    24684129.7924   24684130.5334  129715970.309 5 101077407.24241
      3594.980        2801.244
 06  5 13 15 20 30.0000000  0 11G 2G 3G 6G 7G 8G10G13G16G21G27G29
  24649813.222    24649812.9564   24649813.3124  129535625.515 7 100936862.33043
     -4199.721       -3272.514
  24867874.170    24867874.4284   24867876.5884  130681570.960 6 101829808.30643
      3273.247        2550.598
  23446852.884    23446852.9334   23446853.4594  123214039.532 7  96010951.93044
     -2746.929       -2140.478
  22848193.036    22848192.5514   22848194.1144  120068065.336 7  93559550.39944
       902.007         702.861
  24050745.022    24050744.6954   24050746.6094  126387531.483 7  98483807.81544
      3490.924        2720.210
  21099152.000    21099151.3444   21099152.5144  110876786.226 8  86397509.52746
        61.834          48.188
  23003201.789    23003201.8744   23003201.3364  120882638.522 7  94194276.74944
     -3491.365       -2720.545
  22741720.771    22741720.3864   22741719.8194  119508550.243 7  93123558.98444
     -1635.528       -1274.431
  23925904.200    23925903.9324   23925903.9364  125731508.409 7  97972605.57943
      2973.210        2316.765
  22604740.080    22604739.6664   22604740.2784  118788709.713 7  92562646.60945
      1594.188        1242.230
  24663604.310    24663605.2284   24663605.4214  129608107.336 5 100993358.36641
      3595.529        2801.723
 06  5 13 15 21  0.0000000  0 11G 2G 3G 6G 7G 8G10G13G16G21G27G29
  24673789.373    24673789.2714   24673788.4904  129661619.606 6 101035039.38843
     -4200.271       -3272.958
  24849197.696    24849197.8304   24849199.8704  130583421.296 6 101753328.03643
      3269.637        2547.743
  23462559.295    23462559.3934   23462559.7414  123296576.933 7  96075266.77144
     -2756.076       -2147.613
  22843081.294    22843080.9774   22843081.6674  120041201.944 7  93538617.88444
       888.400         692.243
  24030824.113    24030823.2444   24030825.4104  126282842.546 7  98402232.08644
      3487.703        2717.681
  21098845.745    21098845.0614   21098846.4194  110875176.982 8  86396255.58146
        44.888          34.972
  23023152.015    23023151.9074   23023151.7264  120987477.235 7  94275969.23644
     -3498.399       -2726.047
  22751097.968    22751097.7654   22751097.5214  119557828.768 7  93161957.83244
     -1650.235       -1285.903
  23908946.640    23908945.7084   23908946.0964  125642393.683 7  97903165.56943
      2967.215        2312.117
  22595667.255    22595667.0104   22595667.4214  118741032.566 7  92525495.59245
      1583.667        1234.007
  24643077.119    24643075.8124   24643079.5674  129500239.082 5 100909305.35041
      3595.055        2801.311
 06  5 13 15 21 30.0000000  0 11G 2G 3G 6G 7G 8G10G13G16G21G27G29
  24697769.824    24697769.5094   24697769.4524  129787636.683 6 101133234.43543
     -4200.812       -3273.342
  24830543.202    24830542.1894   24830544.2584  130485388.369 6 101676938.75643
      3265.884        2544.871
  23478318.024    23478318.1234   23478319.2084  123379392.745 6  96139798.50844
     -2765.229       -2154.700
  22838048.100    22838047.7324   22838049.0004  120014752.996 7  93518008.34944
       874.700         681.573
  24010921.831    24010921.6474   24010923.4004  126178258.720 6  98320738.28644
      3484.284        2715.028
  21098637.473    21098636.6074   21098637.9544  110874081.545 8  86395402.01246
        28.016          21.832
  23043144.115    23043144.2674   23043143.6504  121092534.713 7  94357832.18544
     -3505.558       -2731.599
  22760560.240    22760559.9054   22760559.4264  119607553.914 7  93200704.72944
     -1664.940       -1297.361
  23892023.540    23892023.1004   23892023.2324  125553462.632 7  97833868.62843
      2961.308        2307.520
  22586656.410    22586655.9034   22586656.4034  118693678.259 7  92488596.11045
      1573.042        1225.749
  24622552.094    24622550.9564   24622553.4004  129392375.005 5 100825255.51141
      3595.614        2801.798
 06  5 13 15 22  0.0000000  0 11G 2G 3G 6G 7G 8G10G13G16G21G27G29
  24721753.126    24721753.8954   24721753.2404  129913668.824 7 101231441.22043
     -4201.423       -3273.834
  24811909.316    24811909.3184   24811911.2534  130387470.857 7 101600639.37543
      3261.804        2541.656
  23494128.781    23494128.9184   23494130.1264  123462480.768 6  96204542.39243
     -2774.065       -2161.618
  22833093.247    22833092.7324   22833094.0734  119988715.194 7  93497719.14344
       860.943         670.860
  23991039.397    23991039.6164   23991041.2654  126073777.787 7  98239324.62644
      3480.932        2712.385
  21098525.572    21098525.1834   21098526.4684  110873495.602 8  86394945.43046
        10.968           8.535
  23063175.712    23063176.1524   23063175.8294  121197804.048 7  94439860.19544
     -3512.535       -2737.045
  22770106.380    22770106.1674   22770106.1534  119657719.392 7  93239794.71244
     -1679.677       -1308.856
  23875135.243    23875134.7504   23875134.3344  125464713.072 7  97764713.09943
      2955.206        2302.759
  22577706.107    22577705.5994   22577705.9474  118646643.825 8  92451945.89845
      1562.365        1217.419
  24602026.540    24602026.2774   24602028.2804  129284512.971 5 100741207.32441
      3595.272        2801.521
 06  5 13 15 22 30.0000000  0 11G 2G 3G 6G 7G 8G10G13G16G21G27G29
  24745738.972    24745739.9094   24745739.3614  130039716.283 6 101329659.45343
     -4202.098       -3274.314
  24793299.430    24793299.0604   24793301.4384  130289674.904 6 101524434.73343
      3257.500        2538.308
  23509991.641    23509991.9954   23509992.6814  123545841.271 6  96269498.53943
     -2783.405       -2168.895
  22828217.836    22828217.3814   22828218.3574  119963093.023 7  93477753.78944
       846.928         659.958
  23971178.350    23971178.2384   23971179.6944  125969406.654 7  98157996.56044
      3476.863        2709.261
  21098512.141    21098511.2444   21098512.5474  110873423.109 8  86394888.98046
        -6.470          -5.026
  23083248.504    23083248.7604   23083248.6444  121303286.042 8  94522053.96044
     -3519.892       -2742.756
  22779736.933    22779736.5434   22779736.1784  119708327.037 7  93279229.23744
     -1694.635       -1320.477
  23858282.195    23858281.9784   23858281.7234  125376151.204 7  97695703.79744
      2948.614        2297.632
  22568817.523    22568817.2864   22568817.5434  118599934.571 7  92415549.07145
      1551.323        1208.832
  24581502.117    24581503.2554   24581504.0614  129176659.010 5 100657165.45141
      3594.793        2801.140
 06  5 13 15 23  0.0000000  0 11G 2G 3G 6G 7G 8G10G13G16G21G27G29
  24769728.463    24769728.8974   24769728.7364  130165780.066 6 101427891.01143
     -4203.240       -3275.270
  24774713.564    24774712.9674   24774715.9734  130192004.980 6 101448328.30243
      3252.668        2534.546
  23525906.776    23525906.4564   23525908.4864  123629474.078 6  96334666.87443
     -2793.021       -2176.360
  22823421.649    22823421.1294   22823422.3274  119937889.282 7  93458114.50344
       832.282         648.547
  23951338.471    23951338.4454   23951340.3844  125865149.389 6  98076757.16244
      3472.589        2705.902
  21098596.377    21098595.3754   21098596.7324  110873865.764 8  86395233.95246
       -24.184         -18.844
  23103361.569    23103361.5404   23103361.1304  121408979.698 7  94604412.64344
     -3527.489       -2748.698
  22789451.471    22789450.8584   22789450.7654  119759377.363 7  93319008.68244
     -1709.817       -1332.312
  23841465.973    23841465.7454   23841465.5574  125287781.391 7  97626844.19344
      2941.610        2292.154
  22559991.580    22559991.2304   22559991.3484  118553553.532 7  92379407.98545
      1539.711        1199.783
  24560981.240    24560980.3994   24560982.9034  129068816.649 5 100573132.52841
      3593.657        2800.252
 06  5 13 15 23 30.0000000  0 11G 2G 3G 6G 7G 8G10G13G16G21G27G29
  24793722.257    24793721.1644   24793722.4194  130291865.880 6 101526139.32543
     -4203.148       -3275.142
  24756154.374    24756153.9644   24756156.3384  130094474.747 6 101372330.77943
      3248.740        2531.488
  23541874.757    23541875.3144   23541876.1474  123713387.287 6  96400053.72243
     -2801.706       -2183.122
  22818707.368    22818706.9864   22818707.7404  119913115.723 7  93438810.39044
       818.752         637.997
  23931523.313    23931523.4654   23931524.6134  125761019.398 7  97995616.97144
      3468.920        2703.044
  21098780.504    21098779.8474   21098781.0844  110874834.273 8  86395988.63746
       -40.989         -31.933
  23123516.099    23123515.9284   23123516.0064  121514892.891 7  94686942.38144
     -3533.932       -2753.708
  22799251.875    22799251.5054   22799251.1034  119810879.411 7  93359140.12944
     -1724.157       -1343.498
  23824688.695    23824688.0884   23824688.6694  125199616.671 7  97558144.41144
      2935.387        2287.328
  22551230.018    22551229.6874   22551230.3344  118507512.327 8  92343531.70745
      1529.098        1191.525
  24540462.424    24540462.7964   24540465.9504  128960998.847 5 100489118.74541
      3593.628        2800.266
 06  5 13 15 24  0.0000000  0 11G 2G 3G 6G 7G 8G10G13G16G21G27G29
  24817719.178    24817719.3714   24817719.7104  130417970.700 6 101624402.67943
     -4203.829       -3275.723
  24737621.762    24737621.2634   24737623.3374  129997085.310 6 101296442.93343
      3243.808        2527.639
  23557896.501    23557896.2714   23557897.2684  123797577.080 6  96465656.12543
     -2811.145       -2190.507
  22814074.996    22814074.5934   22814075.2634  119888771.645 7  93419840.93044
       804.196         626.636
  23911732.924    23911732.3764   23911734.3254  125657017.708 6  97914576.78444
      3464.616        2699.676
  21099064.621    21099063.9374   21099065.0974  110876327.034 8  86397151.79246
       -58.559         -45.643
  23143711.740    23143712.1264   23143711.6744  121621021.668 7  94769640.11144
     -3541.404       -2759.538
  22809137.298    22809137.2954   22809136.9894  119862829.618 7  93399620.78444
     -1739.161       -1355.205
  23807950.872    23807950.3054   23807949.9504  125111658.134 7  97489605.28844
      2928.383        2281.834
  22542533.153    22542533.0114   22542533.7074  118461811.155 8  92307920.40245
      1517.557        1182.503
  24519951.236    24519950.7204   24519951.8464  128853206.563 5 100405124.88942
      3592.430        2799.263
 06  5 13 15 24 30.0000000  0 11G 2G 3G 6G 7G 8G10G13G16G21G27G29
  24841719.226    24841719.2024   24841719.7124  130544091.926 6 101722678.71843
     -4204.815       -3276.452
  24719116.559    24719116.5374   24719118.4064  129899840.374 6 101220667.69344
      3238.778        2523.720
  23573968.732    23573969.1014   23573969.5244  123882041.585 6  96531472.58443
     -2820.526       -2197.836
  22809524.397    22809524.0064   22809524.7734  119864858.894 7  93401207.54844
       789.434         615.146
  23891967.012    23891966.7124   23891968.6144  125553147.660 7  97833639.14944
      3459.661        2695.855
  21099448.639    21099447.9094   21099449.1864  110878345.009 8  86398724.26846
       -76.398         -59.516
  23163947.872    23163948.1864   23163948.1414  121727364.028 7  94852504.26844
     -3548.750       -2765.260
  22819108.191    22819107.8684   22819108.1884  119915227.014 7  93440449.87244
     -1754.618       -1367.228
  23791252.919    23791252.7794   23791252.6204  125023909.017 7  97421229.33644
      2920.980        2276.096
  22533901.481    22533901.5084   22533902.1244  118416452.346 7  92272575.86845
      1505.823        1173.380
  24499444.114    24499443.6884   24499445.9704  128745442.443 5 100321152.92042
      3591.037        2798.255
 06  5 13 15 25  0.0000000  0 11G 2G 3G 6G 7G 8G10G13G16G21G27G29
  24865722.911    24865721.8704   24865722.7244  130670231.000 6 101820969.41643
     -4205.417       -3277.011
  24700640.024    24700639.4904   24700641.8904  129802745.556 7 101145009.39043
      3233.620        2519.694
  23590094.654    23590094.5804   23590095.3894  123966781.055 6  96597503.30843
     -2829.465       -2204.756
  22805056.699    22805056.0594   22805057.7464  119841381.432 7  93382913.36144
       774.735         603.685
  23872227.518    23872227.1024   23872228.6634  125449415.025 7  97752808.60244
      3455.350        2692.474
  21099933.106    21099932.4554   21099933.5744  110880891.388 8  86400708.52246
       -94.043         -73.280
  23184224.781    23184224.8934   23184224.7684  121833920.004 7  94935534.86644
     -3555.801       -2770.755
  22829164.469    22829164.6134   22829164.2894  119968072.970 7  93481628.48344
     -1769.354       -1378.721
  23774595.870    23774595.8304   23774594.5954  124936374.789 7  97353020.86244
      2913.827        2270.496
  22525336.070    22525335.8604   22525336.5164  118371439.871 7  92237501.21045
      1494.183        1164.288
  24478943.132    24478944.6724   24478944.4154  128637711.701 5 100237206.95342
      3589.996        2797.365
 06  5 13 15 25 30.0000000  0 11G 2G 3G 6G 7G 8G10G13G16G21G27G29
  24889728.470    24889728.0554   24889728.0334  130796382.603 6 101919269.87143
     -4205.507       -3277.054
  24682192.022    24682192.2484   24682193.6874  129705802.449 7 101069469.30844
      3228.635        2515.807
  23606271.687    23606271.5964   23606272.4294  124051792.376 6  96663745.89142
     -2838.563       -2211.872
  22800672.047    22800671.4694   22800672.6384  119818338.966 7  93364958.15644
       760.447         592.554
  23852514.244    23852513.3574   23852515.1794  125345821.116 7  97672086.14744
      3450.418        2688.641
  21100518.024    21100517.3554   21100518.2734  110883964.936 8  86403103.58446
      -111.645         -86.996
  23204541.624    23204542.0474   23204541.5474  121940685.854 7  95018728.99244
     -3562.706       -2776.120
  22839305.838    22839305.5224   22839305.1844  120021364.471 7  93523154.28944
     -1784.131       -1390.224
  23757979.700    23757979.5384   23757978.8954  124849056.504 7  97284980.65944
      2906.649        2264.907
  22516836.456    22516836.1664   22516837.1174  118326774.000 7  92202696.61345
      1482.680        1155.328
  24458450.170    24458448.8574   24458451.1644  128530015.515 6 100153287.91542
      3588.789        2796.414
 06  5 13 15 26  0.0000000  0 11G 2G 3G 6G 7G 8G10G13G16G21G27G29
  24913735.611    24913735.5754   24913735.2764  130922542.037 6 102017575.76543
     -4205.507       -3277.016
  24663773.448    24663773.6424   24663776.2584  129609013.240 6 100994049.14244
      3223.695        2511.953
  23622499.994    23622499.7294   23622501.1154  124137072.173 6  96730197.64043
     -2846.892       -2218.359
  22796369.793    22796369.4344   22796370.8784  119795731.724 7  93347342.08844
       746.271         581.503
  23832827.745    23832826.6384   23832828.1544  125242367.823 7  97591473.25344
      3446.119        2685.277
  21101202.782    21101202.3874   21101203.2514  110887564.589 8  86405908.49846
      -128.840        -100.398
  23224898.040    23224898.1444   23224898.1524  122047658.555 7  95102084.30244
     -3569.271       -2781.230
  22849531.382    22849531.3794   22849530.6974  120075098.960 7  93565025.27344
     -1798.531       -1401.432
  23741405.132    23741404.1924   23741404.1764  124761956.144 7  97217110.23744
      2899.551        2259.390
  22508402.542    22508402.5614   22508403.5694  118282455.710 8  92168162.86545
      1471.308        1146.481
  24437962.810    24437962.7924   24437964.3244  128422355.276 5 100069396.89942
      3587.942        2795.808
 06  5 13 15 26 30.0000000  0 11G 2G 3G 6G 7G 8G10G13G16G21G27G29
  24937742.226    24937742.7204   24937741.8904  131048697.678 6 102115878.65743
     -4205.959       -3277.361
  24645383.731    24645383.1424   24645385.8014  129512370.794 6 100918743.37644
      3218.284        2507.780
  23638776.711    23638776.4404   23638778.0694  124222607.498 6  96796848.50143
     -2856.136       -2225.552
  22792149.072    22792148.8604   22792149.7384  119773550.584 7  93330058.08544
       731.544         570.047
  23813166.262    23813166.0704   23813167.1664  125139047.818 7  97510964.19444
      3440.871        2681.171
  21101986.122    21101985.3024   21101986.4484  110891680.517 8  86409115.70346
      -146.623        -114.257
  23245290.951    23245291.0124   23245290.8544  122154824.950 7  95185590.54244
     -3576.170       -2786.613
  22859838.644    22859838.4364   22859838.2394  120129264.708 7  93607232.31544
     -1813.396       -1413.034
  23724870.221    23724870.1594   23724869.7224  124675066.156 7  97149403.74644
      2892.004        2253.497
  22500033.857    22500033.5434   22500034.3144  118238475.886 7  92133892.86445
      1459.534        1137.311
  24417481.117    24417481.4344   24417482.7864  128314723.233 5  99985527.81142
      3586.191        2794.411
 06  5 13 15 27  0.0000000  0 11G 2G 3G 6G 7G 8G10G13G16G21G27G29
  24961752.483    24961752.6324   24961752.5204  131174874.450 6 102214198.26443
     -4206.132       -3277.533
  24627026.524    24627026.1814   24627028.1704  129415904.924 7 100843575.20944
      3212.810        2503.492
  23655106.895    23655106.7784   23655108.4384  124308422.990 6  96863717.67443
     -2864.925       -2232.433
  22788014.442    22788013.9774   22788015.3024  119751823.383 7  93313127.82744
       716.754         558.515
  23793536.463    23793536.0304   23793537.2014  125035891.260 7  97430582.50044
      3435.987        2677.414
  21102872.905    21102872.0854   21102873.0864  110896339.840 8  86412746.39446
      -164.206        -127.952
  23265725.975    23265725.8464   23265725.6744  122262209.445 7  95269266.73244
     -3583.050       -2791.983
  22870232.889    22870232.7974   22870232.7654  120183886.941 7  93649795.05344
     -1828.246       -1424.588
  23708381.044    23708380.8244   23708380.3964  124588416.186 7  97081884.23544
      2884.430        2247.635
  22491734.380    22491734.1584   22491734.7834  118194862.786 7  92099908.60745
      1447.927        1128.262
  24397010.487    24397009.5364   24397012.3934  128207148.475 5  99901703.39142
      3584.794        2793.313
 06  5 13 15 27 30.0000000  0 11G 2G 3G 6G 7G 8G10G13G16G21G27G29
  24985765.207    24985765.5514   24985765.7724  131301058.290 6 102312523.05743
     -4206.043       -3277.426
  24608701.940    24608702.1404   24608703.9494  129319608.566 7 100768539.12644
      3207.085        2499.044
  23671488.006    23671488.3734   23671489.8124  124394506.535 6  96930795.71443
     -2873.775       -2239.291
  22783964.440    22783963.9934   22783965.6174  119730541.138 7  93296544.30044
       702.077         547.069
  23773935.968    23773935.9764   23773937.0964  124932890.710 7  97350322.37744
      3430.858        2673.410
  21103860.712    21103860.1484   21103861.2584  110901532.415 8  86416792.58346
      -181.940        -141.759
  23286199.062    23286199.7854   23286199.1264  122369799.515 7  95353103.12644
     -3589.652       -2797.132
  22880711.891    22880711.6914   22880711.2584  120238953.838 7  93692704.29444
     -1842.837       -1435.973
  23691936.712    23691936.4624   23691936.3044  124501998.677 7  97014545.90144
      2876.760        2241.626
  22483503.440    22483503.0124   22483503.6664  118151607.994 8  92066203.57145
      1435.854        1118.860
  24376548.760    24376548.8784   24376549.5134  128099623.550 6  99817917.83142
      3583.288        2792.161
 06  5 13 15 28  0.0000000  0 11G 2G 3G 6G 7G 8G10G13G16G21G27G29
  25009778.514    25009777.6694   25009778.2054  131427243.871 6 102410848.93243
     -4206.638       -3277.907
  24590409.696    24590409.2034   24590411.9894  129223481.687 7 100693635.12744
      3201.119        2494.391
  23687919.423    23687919.6204   23687920.9244  124480853.174 6  96998078.78043
     -2883.014       -2246.498
  22779998.617    22779998.6934   22779999.6634  119709701.984 7  93280306.03144
       686.805         535.171
  23754365.090    23754364.8804   23754366.0044  124830045.785 7  97270183.50744
      3425.244        2669.035
  21104949.829    21104949.1904   21104950.2634  110907255.472 8  86421252.10846
      -200.013        -155.854
  23306711.324    23306711.2504   23306711.3534  122477589.785 7  95437095.50744
     -3596.695       -2802.623
  22891274.796    22891274.4844   22891274.0544  120294460.792 7  93735956.44944
     -1857.998       -1447.795
  23675536.460    23675536.0924   23675535.6334  124415813.710 7  96947388.83744
      2868.415        2235.143
  22475340.292    22475340.1794   22475340.7444  118108710.208 7  92032776.71445
      1423.515        1109.250
  24356096.952    24356096.6954   24356097.7044  127992147.817 6  99734170.63342
      3581.299        2790.617
 06  5 13 15 28 30.0000000  0 11G 2G 3G 6G 7G 8G10G13G16G21G27G29
  25033791.444    25033791.5144   25033792.5324  131553436.379 6 102509180.81742
     -4206.481       -3277.775
  24572150.488    24572150.8054   24572152.6844  129127533.403 7 100618870.26744
      3195.353        2489.899
  23704401.791    23704401.5514   23704402.1334  124567466.326 7  97065569.51544
     -2891.497       -2253.104
  22776119.180    22776118.7564   22776119.8154  119689312.866 7  93264418.42144
       672.161         523.748
  23734825.410    23734824.9864   23734826.8554  124727365.500 7  97190172.93444
      3419.865        2664.848
  21106141.256    21106140.3704   21106141.4384  110913515.196 8  86426129.83446
      -217.595        -169.554
  23327261.578    23327262.1814   23327261.9894  122585583.881 7  95521246.74444
     -3603.060       -2807.588
  22901921.888    22901921.7564   22901921.2804  120350412.257 7  93779555.00744
     -1872.293       -1458.930
  23659181.709    23659181.2804   23659180.6874  124329869.685 7  96880419.57644
      2860.691        2229.114
  22467246.713    22467246.1344   22467246.9184  118066176.482 8  91999633.54445
      1411.693        1100.026
  24335655.757    24335655.5924   24335657.5534  127884729.717 5  99650468.28942
      3579.591        2789.256
 06  5 13 15 29  0.0000000  0 12G 2G 3G 6G 7G 8G10G13G15G16G21G27G29
  25057804.616    25057804.0044   25057805.1404  131679626.432 6 102607510.93342
     -4206.027       -3277.379
  24553925.944    24553925.7374   24553927.8764  129031760.707 7 100544242.23044
      3189.594        2485.366
  23720932.949    23720932.7644   23720933.4064  124654337.446 7  97133261.27244
     -2899.870       -2259.615
  22772323.774    22772323.6384   22772324.5784  119669368.799 7  93248877.58844
       657.494         512.334
  23715316.586    23715316.3504   23715317.7324  124624846.980 7  97110288.44144
      3414.765        2660.846
  21107433.174    21107432.6234   21107433.4514  110920305.614 8  86431421.08846
      -235.084        -183.184
  23347849.543    23347849.7514   23347849.5954  122693773.092 7  95605550.00444
     -3609.409       -2812.554
  25273845.512    25273844.8794   25273847.1024  132814957.526 6 103492189.59842
      3755.709        2926.482
  22912652.322    22912651.9514   22912651.9134  120406800.552 7  93823493.89444
     -1886.708       -1470.161
  23642871.792    23642871.6634   23642870.6704  124244163.063 7  96813635.28044
      2853.031        2223.157
  22459220.846    22459220.7534   22459221.5434  118024002.634 7  91966770.80445
      1399.894        1090.818
  24315224.863    24315224.9624   24315225.9064  127777365.721 5  99566808.16742
      3577.778        2787.870
 06  5 13 15 29 30.0000000  0 12G 2G 3G 6G 7G 8G10G13G15G16G21G27G29
  25081816.447    25081816.4514   25081816.5634  131805811.278 6 102705837.09242
     -4206.141       -3277.547
  24535735.487    24535734.8824   24535737.4124  128936166.311 7 100469753.08944
      3183.219        2480.444
  23737512.602    23737512.4564   23737513.5764  124741464.272 6  97201152.25344
     -2908.812       -2266.598
  22768613.946    22768613.1674   22768614.3244  119649870.557 7  93233684.10044
       642.215         500.441
  23695839.308    23695839.3134   23695841.0074  124522493.212 7  97030532.30344
      3408.859        2656.235
  21108826.648    21108825.7264   21108826.8224  110927626.673 8  86437125.83646
      -253.044        -197.172
  23368474.020    23368474.1144   23368474.1804  122802154.830 7  95690003.28744
     -3616.077       -2817.715
  25252405.859    25252405.4934   25252407.9504  132702293.537 6 103404399.54043
      3754.890        2925.868
  22923465.315    22923464.9194   22923465.1024  120463624.090 7  93867771.91244
     -1901.459       -1481.666
  23626608.447    23626607.6524   23626607.5944  124158696.082 7  96747037.64444
      2844.675        2216.640
  22451264.446    22451264.1154   22451264.8574  117982189.711 8  91934189.30145
      1387.433        1081.112
  24294804.280    24294804.4784   24294807.0094  127670058.065 6  99483191.93542
      3575.678        2786.240
 06  5 13 15 30  0.0000000  0 12G 2G 3G 6G 7G 8G10G13G15G16G21G27G29
  25105829.249    25105828.3064   25105827.6854  131931999.067 6 102804165.52942
     -4206.379       -3277.715
  24517580.824    24517581.0164   24517582.6664  128840764.739 6 100395414.23944
      3176.835        2475.439
  23754143.150    23754142.6324   23754143.5044  124828855.779 7  97269249.52144
     -2917.259       -2273.187
  22764990.323    22764989.8934   22764990.9904  119630830.715 7  93218847.81044
       626.975         488.548
  23676396.369    23676395.7424   23676397.7174  124420317.993 7  96950915.24044
      3402.811        2651.541
  21110322.620    21110321.9554   21110323.0854  110935489.516 8  86443252.73446
      -271.032        -211.184
  23389135.476    23389136.4764   23389136.8904  122910738.028 7  95774613.53944
     -3622.951       -2823.093
  25230971.721    25230970.6024   25230973.8164  132589654.006 6 103316628.53243
      3754.172        2925.366
  22934363.271    22934362.8284   22934362.3724  120520892.270 7  93912396.42244
     -1916.312       -1493.224
  23610392.718    23610392.2194   23610392.3764  124073483.826 7  96680638.59744
      2836.126        2209.964
  22443379.169    22443378.6984   22443379.3674  117940750.822 7  91901899.24745
      1375.087        1071.508
  24274397.875    24274398.0884   24274398.2214  127562820.585 6  99399630.39242
      3573.660        2784.675
 06  5 13 15 30 30.0000000  0 12G 2G 3G 6G 7G 8G10G13G15G16G21G27G29
  25129841.267    25129841.7174   25129840.1254  132058182.149 6 102902489.54842
     -4206.096       -3277.500
  24499462.529    24499462.7454   24499464.7504  128745554.670 6 100321224.61144
      3170.396        2470.426
  23770822.463    23770822.3054   23770822.8324  124916505.135 7  97337547.65944
     -2926.038       -2280.053
  22761453.990    22761453.7274   22761454.4924  119612245.857 7  93204366.10244
       612.053         476.920
  23656986.892    23656986.4294   23656988.0464  124318320.305 7  96871436.56644
      3396.809        2646.856
  21111920.933    21111920.4164   21111921.5474  110943889.854 8  86449798.45746
      -288.961        -225.168
  23409836.438    23409836.4084   23409836.8124  123019516.241 7  95859375.75044
     -3629.188       -2827.935
  25209541.162    25209540.1154   25209541.9664  132477037.531 6 103228875.50043
      3753.445        2924.763
  22945344.432    22945344.3644   22945343.8454  120578599.332 7  93957362.97344
     -1930.870       -1504.567
  23594225.101    23594224.9364   23594224.4874  123988524.218 7  96614436.40044
      2827.705        2203.394
  22435564.176    22435563.8624   22435564.5834  117899683.320 7  91869898.59845
      1362.710        1061.850
  24254004.306    24254003.8224   24254006.1024  127455651.347 6  99316122.01742
      3571.144        2782.682
 06  5 13 15 31  0.0000000  0 12G 2G 3G 6G 7G 8G10G13G15G16G21G27G29
  25153851.268    25153850.7184   25153851.4884  132184357.064 6 103000808.23242
     -4205.991       -3277.371
  24481381.215    24481380.9834   24481383.3274  128650535.107 6 100247183.42744
      3163.724        2465.232
  23787549.199    23787549.4014   23787549.6794  125004406.261 7  97406042.03644
     -2934.545       -2286.680
  22758003.080    22758003.0214   22758003.8344  119594112.854 7  93190236.49945
       596.681         464.950
  23637610.584    23637610.1244   23637611.6714  124216498.649 7  96792095.07144
      3390.813        2642.208
  21113621.236    21113620.5684   21113621.6604  110952823.813 8  86456759.98846
      -306.918        -239.158
  23430571.762    23430572.2114   23430572.7044  123128482.614 7  95944284.57544
     -3635.684       -2832.992
  25188115.287    25188114.2274   25188116.9294  132364442.633 6 103141139.29543
      3752.437        2923.938
  22956408.054    22956408.1364   22956408.0104  120636739.069 7  94002666.61044
     -1945.396       -1515.908
  23578105.815    23578105.1694   23578105.0724  123903815.644 7  96548429.82944
      2819.065        2196.680
  22427819.056    22427818.8644   22427819.7854  117858984.397 8  91838185.15145
      1350.238        1052.139
  24233622.870    24233622.8464   24233625.0454  127348548.684 6  99232665.47942
      3568.487        2780.669
 06  5 13 15 31 30.0000000  0 12G 2G 3G 6G 7G 8G10G13G15G16G21G27G29
  25177859.289    25177858.5704   25177858.0004  132310518.596 6 103099115.94042
     -4205.366       -3276.881
  24463336.455    24463336.1434   24463338.5764  128555709.505 6 100173293.42844
      3157.402        2460.313
  23804323.953    23804323.7424   23804324.1364  125092557.189 7  97474731.10344
     -2942.688       -2292.999
  22754639.173    22754638.7894   22754639.6064  119576432.961 7  93176459.90845
       581.608         453.208
  23618268.624    23618267.8134   23618269.6314  124114856.289 7  96712893.24844
      3384.776        2637.474
  21115422.869    21115422.1784   21115423.2814  110962291.661 8  86464137.50546
      -324.741        -253.053
  23451343.431    23451343.2514   23451343.2594  123237635.144 7  96029338.48544
     -3641.820       -2837.789
  25166693.838    25166693.2984   25166695.9314  132251872.599 6 103053422.43643
      3751.586        2923.275
  22967554.001    22967553.8714   22967553.6514  120695310.413 7  94048306.54644
     -1959.836       -1527.153
  23562034.479    23562034.0654   23562033.8154  123819361.099 7  96482621.07844
      2810.614        2190.101
  22420144.940    22420144.5104   22420145.4374  117818655.577 8  91806760.10345
      1337.898        1042.508
  24213255.931    24213255.5124   24213256.0284  127241515.807 6  99149263.33242
      3566.482        2779.113
 06  5 13 15 32  0.0000000  0 11G 3G 6G 7G 8G10G13G15G16G21G27G29
  24445329.251    24445329.3814   24445331.6974  128461082.589 6 100099558.25244
      3150.817        2455.170
  23821145.638    23821145.4864   23821146.1794  125180957.159 7  97543614.18544
     -2951.091       -2299.556
  22751361.368    22751360.9334   22751361.8344  119559208.874 7  93163038.52445
       566.275         441.245
  23598961.858    23598961.6564   23598963.0174  124013398.070 7  96633834.94344
      3378.631        2632.694
  21117326.362    21117325.7974   21117326.9004  110972294.999 8  86471932.32846
      -342.598        -266.963
  23472149.068    23472149.6884   23472149.7144  123346973.044 7  96114536.81344
     -3647.971       -2842.584
  25145278.491    25145277.6794   25145279.1464  132139331.722 6 102965728.31043
      3750.703        2922.611
  22978782.019    22978781.7474   22978781.4574  120754313.630 7  94094283.10744
     -1974.224       -1538.362
  23546012.996    23546012.4304   23546011.9984  123735165.811 7  96417014.35844
      2801.879        2183.261
  22412542.081    22412541.4334   22412542.0094  117778700.242 7  91775626.09845
      1325.375        1032.761
  24192901.750    24192902.3254   24192902.8644  127134556.572 6  99065918.59042
      3563.618        2776.914
 06  5 13 15 32 30.0000000  0 11G 3G 6G 7G 8G10G13G15G16G21G27G29
  24427361.302    24427361.4464   24427363.9664  128366661.171 6 100025983.17444
      3143.915        2449.809
  23838015.230    23838014.8174   23838015.9694  125269607.748 7  97612692.47444
     -2959.134       -2305.811
  22748171.571    22748170.9694   22748172.0634  119542445.564 7  93149976.21745
       550.957         429.319
  23579691.507    23579690.8804   23579692.4404  123912130.739 7  96554925.37644
      3372.260        2627.733
  21119332.618    21119331.9904   21119333.1144  110982837.888 8  86480147.60446
      -360.546        -280.940
  23492991.378    23492992.1694   23492991.8244  123456497.921 7  96199880.84444
     -3654.045       -2847.287
  25123868.839    25123868.2904   25123870.8424  132026826.875 6 102878062.20443
      3749.508        2921.681
  22990092.433    22990092.3384   22990091.8844  120813750.601 7  94140597.69944
     -1988.575       -1549.541
  23530041.441    23530041.1894   23530040.4974  123651236.097 7  96351614.59144
      2793.165        2176.483
  22405010.616    22405010.2704   22405011.1154  117739123.861 7  91744787.36845
      1312.718        1022.902
  24172563.733    24172563.5714   24172564.3764  127027677.387 6  98982636.16142
      3561.387        2775.051
 06  5 13 15 33  0.0000000  0 11G 3G 6G 7G 8G10G13G15G16G21G27G29
  24409434.731    24409434.4584   24409436.8614  128272455.026 6  99952575.77344
      3136.458        2443.992
  23854932.234    23854932.5314   23854934.4904  125358513.633 6  97681969.74944
     -2967.944       -2312.697
  22745070.715    22745070.3984   22745070.9944  119526150.542 7  93137278.81345
       535.069         416.935
  23560459.275    23560458.7584   23560460.0654  123811064.053 7  96476172.16244
      3365.298        2622.312
  21121442.679    21121442.1674   21121443.2034  110993926.750 8  86488788.26946
      -378.932        -295.270
  23513869.929    23513869.9584   23513870.3464  123566214.030 7  96285373.89544
     -3660.546       -2852.383
  25102468.872    25102468.2224   25102470.2384  131914367.467 6 102790431.52843
      3747.699        2920.257
  23001486.015    23001485.8934   23001485.6224  120873626.055 7  94187253.94044
     -2003.316       -1561.017
  23514122.410    23514122.3244   23514121.9914  123567580.749 7  96286428.61644
      2783.617        2169.036
  22397553.046    22397552.8874   22397553.5864  117699934.651 8  91714250.32345
      1299.663        1012.726
  24152241.629    24152242.3414   24152243.2414  126920887.596 6  98899423.41542
      3558.023        2772.497
 06  5 13 15 33 30.0000000  0 11G 3G 6G 7G 8G10G13G15G16G21G27G29
  24391548.761    24391548.7414   24391550.9714  128178462.948 6  99879335.18744
      3129.442        2438.549
  23871898.605    23871898.5424   23871899.8684  125447667.944 6  97751440.57244
     -2976.096       -2319.040
  22742058.096    22742057.8554   22742058.5344  119510320.325 7  93124943.59945
       519.706         404.967
  23541264.516    23541264.2874   23541265.4434  123710196.221 7  96397573.88344
      3358.715        2617.170
  21123655.811    21123655.2034   21123656.3144  111005556.921 8  86497850.71146
      -396.794        -309.193
  23534783.441    23534783.3914   23534783.3264  123676114.420 7  96371010.54344
     -3666.350       -2856.896
  25081076.682    25081076.3844   25081078.0984  131801951.936 7 102702835.00943
      3746.280        2919.231
  23012962.307    23012961.8174   23012962.0324  120933934.237 7  94234247.35444
     -2017.465       -1572.050
  23498255.178    23498255.1044   23498254.7074  123484198.814 7  96221455.75244
      2774.717        2162.119
  22390168.502    22390168.5024   22390169.2014  117661129.504 7  91684012.54745
      1286.983        1002.852
  24131937.452    24131936.8814   24131938.2124  126814185.203 6  98816278.74143
      3555.293        2770.371
 06  5 13 15 34  0.0000000  0 11G 3G 6G 7G 8G10G13G15G16G21G27G29
  24373703.707    24373703.2684   24373705.5944  128084687.243 6  99806263.31344
      3122.160        2432.817
  23888910.677    23888910.4504   23888912.0604  125537067.283 6  97821102.37844
     -2984.358       -2325.506
  22739133.950    22739133.7514   22739135.0724  119494954.864 7  93112970.48845
       504.129         392.825
  23522108.144    23522107.5304   23522109.1194  123609529.352 7  96319132.19544
      3351.999        2611.939
  21125972.140    21125971.3944   21125972.2994  111017727.494 8  86507334.26246
      -414.874        -323.303
  23555731.234    23555731.2624   23555731.0894  123786195.788 7  96456788.19544
     -3672.594       -2861.772
  25059693.068    25059692.8854   25059694.8634  131689582.110 6 102615274.15643
      3744.596        2917.874
  23024520.143    23024519.9694   23024519.7994  120994672.185 7  94281575.64244
     -2031.950       -1583.369
  23482440.117    23482440.2854   23482439.7534  123401091.818 7  96156697.14244
      2765.177        2154.683
  22382857.447    22382857.2764   22382858.0344  117622708.587 7  91654074.16245
      1274.031         992.741
  24111649.208    24111649.1914   24111650.9184  126707572.027 6  98733203.61143
      3552.111        2767.886
 06  5 13 15 34 30.0000000  0 11G 3G 6G 7G 8G10G13G15G16G21G27G29
  24355901.928    24355901.6114   24355903.7004  127991137.944 6  99733367.80644
      3114.286        2426.728
  23905970.272    23905970.2704   23905971.3734  125626716.513 6  97890958.84544
     -2992.579       -2331.892
  22736300.352    22736299.6144   22736300.8504  119480062.102 7  93101365.73945
       488.383         380.555
  23502991.928    23502991.5524   23502992.7974  123509073.852 7  96240855.23244
      3344.613        2606.190
  21128392.088    21128391.6144   21128392.5554  111030445.823 8  86517244.63346
      -433.214        -337.576
  23576714.195    23576714.5774   23576714.2514  123896462.949 7  96542710.62944
     -3678.999       -2866.768
  25038320.420    25038320.3524   25038322.5984  131577268.131 6 102527756.76043
      3742.606        2916.324
  23036161.364    23036160.7414   23036160.6444  121055845.229 7  94329242.99244
     -2046.680       -1594.818
  23466679.945    23466679.6944   23466679.4464  123318269.435 7  96092160.23844
      2755.656        2147.273
  22375620.900    22375620.8154   22375621.5954  117584680.444 7  91624441.85545
      1260.777         982.430
  24091380.121    24091380.1954   24091381.2384  126601057.335 6  98650205.21143
      3548.572        2765.103
 06  5 13 15 35  0.0000000  0 11G 3G 6G 7G 8G10G13G15G16G21G27G29
  24338143.211    24338142.9054   24338145.4234  127897816.345 6  99660649.75644
      3106.485        2420.613
  23923076.476    23923076.8534   23923078.2424  125716611.842 6  97961007.16344
     -3000.670       -2338.166
  22733555.903    22733555.6664   22733556.8314  119465641.244 7  93090128.73145
       472.421         368.121
  23483915.934    23483915.3014   23483917.5724  123408830.741 7  96162743.76944
      3337.545        2600.688
  21130916.252    21130915.6284   21130916.5514  111043709.936 8  86527580.30746
      -451.654        -351.933
  23597732.135    23597731.6084   23597731.4544  124006911.577 7  96628774.45643
     -3685.065       -2871.479
  25016958.914    25016958.4424   25016960.5084  131465011.122 6 102440283.83443
      3740.461        2914.654
  23047884.169    23047884.1554   23047883.6604  121117449.890 7  94377246.61944
     -2061.043       -1605.994
  23450974.064    23450973.6504   23450973.1524  123235732.677 7  96027845.88444
      2746.038        2139.766
  22368458.921    22368458.6964   22368459.6854  117547044.745 7  91595115.35245
      1247.519         972.097
  24071130.440    24071129.6234   24071131.0864  126494642.016 6  98567284.24343
      3545.163        2762.457
 06  5 13 15 35 30.0000000  0 11G 3G 6G 7G 8G10G13G15G16G21G27G29
  24320428.317    24320428.6194   24320430.2274  127804725.503 6  99588111.52944
      3099.329        2415.059
  23940229.520    23940229.4324   23940231.1134  125806750.650 6  98031245.15844
     -3008.541       -2344.328
  22730901.589    22730901.3894   22730902.9064  119451693.274 7  93079260.26145
       457.111         356.173
  23464881.405    23464880.9394   23464883.0004  123308802.984 7  96084800.13344
      3330.744        2595.377
  21133544.288    21133543.5544   21133544.6754  111057519.534 8  86538341.03246
      -469.362        -365.740
  23618783.152    23618783.7134   23618783.3154  124117539.489 7  96714977.99843
     -3690.467       -2875.695
  24995607.781    24995607.9504   24995610.0914  131352813.920 6 102352857.55443
      3739.021        2913.516
  23059688.874    23059688.9994   23059688.7114  121179484.183 7  94425585.00644
     -2074.922       -1616.815
  23435322.396    23435322.1254   23435321.8024  123153484.533 7  95963756.47244
      2736.829        2132.577
  22361372.261    22361372.1174   22361372.8394  117509803.322 7  91566096.06945
      1234.767         962.136
  24050899.167    24050898.8434   24050899.8894  126388328.617 6  98484442.68443
      3542.112        2760.103
 06  5 13 15 36  0.0000000  0 11G 3G 6G 7G 8G10G13G15G16G21G27G29
  24302758.357    24302757.7754   24302759.6774  127711865.996 6  99515753.54944
      3091.124        2408.671
  23957428.234    23957428.0674   23957429.6174  125897128.304 6  98101669.21344
     -3016.992       -2350.889
  22728337.419    22728336.6794   22728338.0674  119438216.428 7  93068758.88245
       440.936         343.607
  23445887.946    23445887.4084   23445888.8934  123208991.144 7  96007024.69744
      3322.961        2589.344
  21136275.487    21136274.8394   21136275.9774  111071872.184 8  86549524.89346
      -487.886        -380.165
  23639868.381    23639868.6754   23639868.4794  124228342.078 7  96801317.63843
     -3696.646       -2880.522
  24974269.720    24974268.7154   24974271.1524  131240677.064 6 102265478.22843
      3736.419        2911.478
  23071575.032    23071574.8794   23071574.3664  121241944.496 7  94474255.39144
     -2089.574       -1628.242
  23419725.983    23419725.4294   23419725.0534  123071525.291 7  95899892.20044
      2726.799        2124.771
  22354360.373    22354360.0584   22354360.6914  117472955.136 7  91537383.20745
      1221.229         951.618
  24030688.189    24030687.6164   24030688.7734  126282117.584 6  98401680.88443
      3538.143        2757.002
 06  5 13 15 36 30.0000000  0 11G 3G 6G 7G 8G10G13G15G16G21G27G29
  24285133.523    24285133.0044   24285135.5014  127619248.483 6  99443584.10544
      3083.316        2402.587
  23974672.991    23974673.1214   23974674.1364  125987750.324 7  98172283.73844
     -3024.662       -2356.892
  22725863.816    22725863.3254   22725864.3544  119425219.298 7  93058631.39445
       425.251         331.355
  23426937.072    23426936.8124   23426938.6494  123109405.854 7  95929425.82944
      3315.680        2583.637
  21139111.385    21139110.7944   21139111.7814  111086775.243 8  86561137.65946
      -505.838        -394.164
  23660987.456    23660987.7534   23660988.0854  124339324.394 6  96887797.31943
     -3702.344       -2884.963
  24952944.275    24952943.2174   24952945.4884  131128611.083 6 102178154.17943
      3734.184        2909.776
  23083542.763    23083542.5804   23083541.8354  121304836.261 7  94523261.96544
     -2103.527       -1639.115
  23404186.764    23404186.3844   23404185.8974  122989864.644 7  95836260.47844
      2716.979        2117.127
  22347424.577    22347424.5814   22347425.2944  117436508.901 8  91508983.57145
      1208.171         941.440
  24010497.675    24010497.3374   24010499.1944  126176018.482 6  98319006.29543
      3534.702        2754.295
 06  5 13 15 37  0.0000000  0 12G 3G 6G 7G 8G10G13G15G16G21G26G27G29
  24267554.784    24267554.5554   24267556.4424  127526872.042 6  99371602.50544
      3075.246        2396.285
  23991962.804    23991962.6954   23991964.1734  126078610.204 7  98243083.66944
     -3032.563       -2363.042
  22723481.052    22723480.6114   22723481.2134  119412698.358 7  93048874.95545
       409.337         318.948
  23408029.722    23408029.1054   23408030.5684  123010046.094 7  95852002.69944
      3308.144        2577.787
  21142051.072    21142050.6484   21142051.7294  111102224.389 8  86573175.93946
      -524.172        -408.462
  23682140.003    23682140.3764   23682140.4674  124450479.985 7  96974412.01143
     -3708.089       -2889.429
  24931631.515    24931630.6794   24931633.4774  131016614.503 6 102090884.16843
      3732.012        2908.059
  23095591.613    23095591.3524   23095591.0604  121368153.522 7  94572600.11144
     -2117.726       -1650.188
  23388704.050    23388703.1554   23388703.3414  122908501.878 7  95772860.92744
      2707.039        2109.369
  24960425.882                                   131167908.727 4
      4224.704
  22340565.259    22340564.9384   22340565.6974  117400461.655 7  91480894.81145
      1194.923         931.108
  23990328.655    23990328.1684   23990331.1124  126070030.104 6  98236417.99243
      3530.906        2751.347
 06  5 13 15 37 30.0000000  0 12G 3G 6G 7G 8G10G13G15G16G21G26G27G29
  24250022.888    24250022.6424   24250024.8854  127434741.856 6  99299812.79944
      3066.810        2389.709
  24009298.219    24009298.1564   24009299.4624  126169707.636 6  98314068.66044
     -3040.709       -2369.384
  22721189.843    22721189.2514   22721190.0294  119400656.496 7  93039491.68544
       393.208         306.407
  23389166.180    23389165.5774   23389167.7094  122910916.743 7  95774759.10744
      3300.208        2571.591
  21145095.426    21145094.5494   21145095.7124  111118221.292 8  86585641.06046
      -542.615        -422.824
  23703325.341    23703326.1544   23703325.3804  124561808.592 7  97061161.55243
     -3714.181       -2894.203
  24910333.376    24910332.8844   24910335.2244  130904692.470 6 102003672.31443
      3729.409        2906.029
  23107721.599    23107721.2334   23107720.4754  121431896.733 7  94622270.16644
     -2132.062       -1661.339
  23373278.453    23373277.9334   23373277.5984  122827441.847 7  95709697.28744
      2696.756        2101.365
  24936311.723                                   131041189.564 4
      4223.598
  22333782.049    22333781.9574   22333782.7434  117364817.137 7  91453119.89345
      1181.271         920.457
  23970181.158    23970180.8184   23970182.5494  125964157.180 6  98153919.64143
      3527.076        2748.331
 06  5 13 15 38  0.0000000  0 12G 3G 6G 7G 8G10G13G15G16G21G26G27G29
  24232538.429    24232538.0514   24232539.7944  127342858.230 6  99228215.21043
      3058.690        2383.400
  24026677.414    24026677.7544   24026679.0714  126261037.536 6  98385234.79744
     -3048.243       -2375.228
  22718988.898    22718988.6144   22718989.0454  119389091.748 7  93030480.24845
       377.504         294.158
  23370346.391    23370345.3514   23370347.8834  122812018.120 7  95697695.31944
      3292.788        2565.810
  21148243.176    21148242.3884   21148243.5974  111134763.320 8  86598530.99046
      -560.433        -436.696
  23724542.710    23724542.6554   23724542.7854  124673304.890 7  97148041.75243
     -3719.317       -2898.160
  24889049.781    24889048.9274   24889050.4284  130792845.064 6 101916518.57643
      3726.997        2904.141
  23119931.741    23119931.2314   23119930.6734  121496061.302 7  94672268.56244
     -2145.750       -1672.017
  23357910.759    23357910.5454   23357909.6844  122746684.619 7  95646769.59244
      2686.886        2093.679
  24912202.267                                   130914489.100 5
      4223.320
  22327075.472    22327075.5024   22327076.2314  117329573.963 8  91425657.69745
      1168.167         910.260
  23950056.664    23950055.8224   23950058.3444  125858399.431 6  98071511.03443
      3523.410        2745.545
 06  5 13 15 38 30.0000000  0 12G 3G 6G 7G 8G10G13G15G16G21G26G27G29
  24215100.211    24215099.7294   24215102.2564  127251222.326 6  99156810.70843
      3050.196        2376.762
  24044100.422    24044100.8714   24044102.1304  126352595.712 6  98456578.84244
     -3056.074       -2381.386
  22716878.623    22716878.1594   22716878.9134  119378002.864 7  93021839.56945
       361.400         281.593
  23351570.363    23351569.9524   23351572.0484  122713350.923 7  95620811.84944
      3284.760        2559.580
  21151494.421    21151493.5354   21151494.5464  111151848.089 8  86611843.82646
      -578.899        -451.090
  23745790.799    23745790.8154   23745790.3824  124784964.682 7  97235049.35343
     -3724.920       -2902.565
  24867780.232    24867779.5584   24867781.7414  130681073.199 6 101829423.72143
      3723.940        2901.760
  23132221.102    23132220.8824   23132220.4694  121560643.007 7  94722591.99544
     -2159.992       -1683.113
  23342601.307    23342600.6854   23342599.7504  122666230.558 7  95584078.10444
      2676.444        2085.535
  24888095.949                                   130787807.760 5
      4222.224
  22320445.286    22320445.0014   22320445.9574  117294731.181 8  91398507.51045
      1154.434         899.546
  23929953.526    23929953.5184   23929954.7774  125752757.283 6  97989192.45443
      3519.092        2742.158
 06  5 13 15 39  0.0000000  0 12G 3G 6G 7G 8G10G13G15G16G21G26G27G29
  24197711.685    24197710.6534   24197712.7934  127159840.739 6  99085604.34444
      3041.879        2370.292
  24061567.279    24061567.4414   24061568.9174  126444383.092 6  98528101.38444
     -3063.155       -2386.859
  22714859.546    22714859.6314   22714860.5724  119367394.251 7  93013573.17045
       345.782         269.440
  23332839.776    23332839.4574   23332840.9874  122614921.753 7  95544113.86444
      3277.156        2553.638
  21154849.157    21154848.5744   21154849.7004  111169478.696 8  86625581.96446
      -596.583        -464.866
  23767069.646    23767070.0834   23767070.2474  124896789.194 7  97322185.36043
     -3730.054       -2906.537
  24846526.144    24846525.5304   24846527.7364  130569383.366 6 101742392.75443
      3721.538        2899.907
  23144590.470    23144590.0554   23144589.8584  121625643.679 7  94773241.83944
     -2173.431       -1693.584
  23327350.240    23327350.0434   23327348.8704  122586086.019 7  95521627.79444
      2666.365        2077.706
  24863993.381    24863993.0114   24863997.1854  130661152.017 5 101813907.5694
      4221.815        3289.770
  22313892.237    22313891.9784   22313892.7424  117260293.896 8  91371673.26545
      1141.312         889.339
  23909873.825    23909873.6964   23909875.3864  125647236.958 6  97906968.84043
      3515.476        2739.338
 06  5 13 15 39 30.0000000  0 12G 3G 6G 7G 8G10G13G15G16G21G26G27G29
  24180370.789    24180370.7194   24180372.7114  127068719.144 6  99014600.61644
      3032.796        2363.240
  24079077.730    24079077.9584   24079078.8864  126536400.049 6  98599802.85544
     -3071.326       -2393.227
  22712933.112    22712932.7874   22712933.6374  119357269.096 7  93005683.45545
       329.142         256.481
  23314155.641    23314155.3354   23314157.1564  122516736.251 7  95467605.75544
      3268.510        2546.903
  21158308.664    21158307.8684   21158308.9244  111187657.651 8  86639747.39446
      -615.403        -479.533
  23788381.353    23788381.2174   23788381.0064  125008778.616 6  97409449.79843
     -3735.908       -2911.075
  24825289.203    24825288.5344   24825290.2864  130457781.248 6 101655430.11943
      3718.216        2897.287
  23157039.538    23157039.4784   23157038.8744  121691064.061 7  94824218.71244
     -2187.943       -1704.907
  23312159.201    23312158.8024   23312157.7524  122506255.843 7  95459422.45144
      2655.427        2069.163
  24839897.175    24839896.2594   24839898.9944  130534526.944 5 101715238.83341
      4220.025        3288.373
  22307416.416    22307416.5344   22307417.3034  117226266.161 7  91345158.15345
      1127.175         878.310
  23889818.293    23889818.1884   23889819.8844  125541843.631 6  97824844.16943
      3510.641        2735.561
 06  5 13 15 40  0.0000000  0 12G 3G 6G 7G 8G10G13G15G16G21G26G27G29
  24163079.144    24163079.4144   24163081.3874  126977852.880 6  98943795.85644
      3024.286        2356.564
  24096630.009    24096630.3454   24096631.4854  126628636.638 6  98671675.50144
     -3078.542       -2398.873
  22711096.914    22711096.6134   22711097.3944  119347620.325 7  92998164.94045
       313.425         244.211
  23295517.481    23295516.8774   23295518.5134  122418789.894 7  95391283.96844
      3260.642        2540.739
  21161870.875    21161870.1404   21161871.0334  111206376.701 8  86654333.66046
      -633.271        -493.459
  23809721.234    23809721.6364   23809722.3634  125120923.081 7  97496835.05843
     -3740.904       -2914.976
  24804067.191    24804066.5774   24804069.3414  130346261.996 6 101568532.09143
      3715.660        2895.338
  23169567.101    23169566.6034   23169566.3894  121756894.716 7  94875515.28744
     -2201.383       -1715.357
  23297026.763    23297026.5174   23297025.5674  122426735.937 7  95397458.88344
      2645.195        2061.180
  24815806.478    24815805.6214   24815806.3044  130407928.200 5 101616590.60541
      4219.134        3287.677
  22301017.914    22301017.5804   22301018.9714  117192641.161 8  91318956.86245
      1113.832         867.917
  23869785.461    23869786.0254   23869786.4104  125436572.054 6  97742814.37943
      3506.567        2732.362
 06  5 13 15 40 30.0000000  0 12G 3G 6G 7G 8G10G13G15G16G21G26G27G29
  24145838.859    24145838.4454   24145840.5684  126887251.284 6  98873197.30844
      3015.311        2349.599
  24114224.618    24114224.5254   24114225.9184  126721097.166 6  98743722.66644
     -3085.841       -2404.541
  22709352.880    22709352.6164   22709353.5034  119338455.225 7  92991023.30445
       297.244         231.621
  23276925.659    23276925.5984   23276926.8314  122321091.843 7  95315155.65944
      3252.115        2534.123
  21165536.865    21165536.2064   21165537.2264  111225642.079 8  86669345.64946
      -651.548        -507.700
  23831092.711    23831092.4094   23831092.6764  125233226.343 7  97584344.00943
     -3746.303       -2919.206
  24782863.483    24782862.8724   24782865.0344  130234834.864 6 101481705.83643
      3712.436        2892.787
  23182172.981    23182172.4414   23182172.5554  121823140.112 7  94927135.06044
     -2215.299       -1726.213
  23281955.363    23281954.7764   23281954.3824  122347535.102 7  95335743.93244
      2634.351        2052.745
  24791721.307    24791720.8144   24791725.0994  130281364.832 5 101517969.87941
      4218.228        3286.968
  22294697.440    22294697.2234   22294698.2094  117159426.716 8  91293075.50045
      1100.096         857.235
  23849777.409    23849778.0234   23849779.5294  125331431.295 6  97660886.55343
      3502.224        2728.991
 06  5 13 15 41  0.0000000  0 12G 3G 6G 7G 8G10G13G15G16G21G26G27G29
  24128648.907    24128648.6324   24128650.4364  126796918.712 6  98802808.36244
      3006.450        2342.691
  24131861.686    24131861.8054   24131862.9944  126813780.224 7  98815943.16444
     -3093.078       -2410.180
  22707701.445    22707700.9334   22707701.8394  119329775.374 7  92984259.78245
       281.306         219.184
  23258382.346    23258382.0274   23258383.4674  122223646.598 7  95239224.33144
      3243.831        2527.660
  21169306.852    21169306.3954   21169307.3304  111245454.598 8  86684783.98046
      -669.423        -521.624
  23852492.313    23852492.6644   23852493.2104  125345687.217 7  97671975.76643
     -3751.332       -2923.134
  24761678.095    24761677.0484   24761679.7534  130123504.024 6 101394954.60543
      3709.477        2890.492
  23194858.001    23194857.6954   23194857.1104  121889799.499 7  94979077.39644
     -2228.754       -1736.692
  23266945.690    23266945.2404   23266944.3464  122268657.075 7  95274280.53345
      2623.889        2044.600
  24767644.812    24767643.7664   24767646.9064  130154841.168 5 101419380.12041
      4216.815        3285.718
  22288455.642    22288455.4554   22288456.1974  117126625.089 7  91267515.79545
      1086.525         846.644
  23829795.910    23829795.9854   23829797.0184  125226425.033 6  97579063.48943
      3498.074        2725.781
 06  5 13 15 41 30.0000000  0 12G 3G 6G 7G 8G10G13G15G16G21G26G27G29
  24111510.723    24111510.9904   24111512.0274  126706856.265 6  98732629.93843
      2997.522        2335.709
  24149540.236    24149540.1554   24149540.8964  126906681.566 6  98888333.75544
     -3100.386       -2415.917
  22706141.581    22706141.1424   22706142.0584  119321579.822 7  92977873.69845
       265.065         206.530
  23239887.920    23239887.5624   23239888.9144  122126454.918 7  95163490.58244
      3235.417        2521.086
  21173180.975    21173180.2704   21173181.2834  111265812.125 8  86700646.99346
      -687.745        -535.908
  23873922.840    23873922.5564   23873922.9384  125458301.773 6  97759727.26443
     -3756.260       -2926.958
  24740511.044    24740509.7464   24740512.2414  130012270.710 6 101308279.38343
      3706.106        2887.885
  23207620.565    23207620.4444   23207620.3584  121956868.758 7  95031339.11344
     -2242.499       -1747.409
  23251997.319    23251996.8734   23251996.1984  122190102.277 7  95213068.99945
      2613.005        2036.107
  24743576.174    24743577.9434   24743581.4224  130028358.337 5 101320822.26541
      4215.061        3284.454
  22282292.003    22282292.0774   22282292.5724  117094236.025 8  91242277.59445
      1072.722         835.885
  23809839.552    23809839.5584   23809840.5654  125121554.113 6  97497345.92043
      3493.264        2722.028
 06  5 13 15 42  0.0000000  0 12G 3G 6G 7G 8G10G13G15G16G21G26G27G29
  24094427.202    24094426.2004   24094428.1944  126617078.018 6  98662672.95443
      2987.698        2328.050
  24167262.172    24167261.7694   24167263.2174  126999809.943 7  98960901.29344
     -3108.124       -2421.936
  22704676.297    22704675.8884   22704676.7444  119313879.650 7  92971873.57145
       248.297         193.470
  23221443.778    23221443.6124   23221444.6414  122029530.689 7  95087965.20645
      3226.196        2513.919
  21177160.506    21177159.8254   21177160.8034  111286724.917 8  86716942.68146
      -706.581        -550.606
  23895383.494    23895383.7924   23895383.4404  125571078.252 6  97847604.89243
     -3762.076       -2931.488
  24719364.771    24719363.8114   24719365.7004  129901148.570 6 101221690.77143
      3702.175        2884.833
  23220463.486    23220462.7654   23220463.0374  122024357.073 7  95083927.35344
     -2256.654       -1758.437
  23237112.822    23237112.3724   23237111.9184  122111884.557 8  95152120.13145
      2601.444        2027.077
  24719516.515    24719517.5074   24719519.8364  129901929.689 5 101222306.45241
      4213.123        3282.937
  22276209.728    22276209.3564   22276210.2584  117062271.918 8  91217370.50345
      1058.217         824.576
  23789911.514    23789911.0914   23789912.3664  125016831.768 6  97415744.13043
      3488.067        2717.965
 06  5 13 15 42 30.0000000  0 12G 3G 6G 7G 8G10G13G15G16G21G26G27G29
  24077395.460    24077395.4464   24077397.1774  126527581.646 6  98592935.59443
      2978.475        2320.896
  24185025.488    24185025.5144   24185026.6674  127093157.583 7  99033639.73344
     -3115.183       -2427.397
  22703304.687    22703304.1274   22703304.8924  119306670.567 7  92966256.07245
       231.977         180.769
  23203050.270    23203049.8314   23203050.7314  121932871.347 7  95012646.23744
      3217.524        2507.181
  21181244.818    21181243.9684   21181245.0634  111308187.330 8  86733666.61546
      -724.530        -564.562
  23916872.865    23916873.8384   23916874.0724  125684009.322 6  97935603.01743
     -3766.779       -2935.158
  24698239.370    24698238.7034   24698241.3344  129790135.335 6 101135186.99743
      3698.656        2882.095
  23233384.172    23233384.1364   23233383.5424  122092257.456 7  95136836.67944
     -2270.138       -1768.916
  23222292.317    23222291.4894   23222291.4044  122034001.998 7  95091432.43245
      2590.470        2018.559
  24695468.839    24695466.3604   24695470.9224  129775553.649 5 101123831.80541
      4212.046        3282.138
  22270206.890    22270206.8744   22270207.4574  117030728.207 8  91192791.02145
      1044.505         813.906
  23770011.297    23770011.5754   23770012.1474  124912255.493 6  97334256.16843
      3483.242        2714.240
 06  5 13 15 43  0.0000000  0 12G 3G 6G 7G 8G10G13G15G16G21G26G27G29
  24060418.122    24060417.4854   24060419.3094  126438363.327 6  98523414.90243
      2969.377        2313.790
  24202828.703    24202829.0104   24202830.1094  127186715.203 7  99106541.72044
     -3122.167       -2432.844
  22702024.559    22702024.2914   22702025.6894  119299946.312 7  92961016.39945
       216.080         168.369
  23184706.446    23184705.9164   23184706.5034  121836473.346 7  94937530.93644
      3208.858        2500.390
  21185431.896    21185431.3194   21185432.4554  111330191.893 8  86750813.00446
      -742.547        -578.609
  23938391.329    23938391.2844   23938392.1224  125797085.805 6  98023714.43143
     -3771.922       -2939.115
  24677133.839    24677133.5214   24677136.5224  129679226.981 6 101048764.95443
      3694.937        2879.202
  23246382.007    23246381.8464   23246381.4744  122160560.887 7  95190060.12044
     -2283.551       -1779.393
  23207533.984    23207533.8734   23207533.8624  121956450.144 7  95031002.44045
      2579.475        2009.980
  24671428.751    24671428.0284   24671431.2294  129649225.903 5 101025394.76941
      4209.858        3280.407
  22264283.319    22264283.0254   22264283.9574  116999599.358 8  91168534.80345
      1030.645         803.094
  23750138.257    23750138.0094   23750139.0464  124807821.071 6  97252878.81543
      3478.836        2710.817
 06  5 13 15 43 30.0000000  0 12G 3G 6G 7G 8G10G13G15G16G21G26G27G29
  24043494.562    24043494.5064   24043496.9214  126349433.175 6  98454118.76143
      2959.323        2305.980
  24220673.136    24220672.8264   24220674.2834  127280487.412 7  99179610.86744
     -3129.291       -2438.382
  22700839.352    22700838.2374   22700839.3314  119293714.348 7  92956160.37745
       199.459         155.424
  23166414.127    23166413.4674   23166414.2674  121740346.795 7  94862627.12144
      3199.521        2493.136
  21189724.043    21189723.2274   21189724.2414  111352745.321 8  86768387.07446
      -761.012        -592.987
  23959937.548    23959937.9514   23959938.2554  125910312.514 6  98111942.98643
     -3776.600       -2942.779
  24656050.810    24656049.8594   24656052.4254  129568433.622 6 100962432.55243
      3691.080        2876.179
  23259457.091    23259457.3034   23259456.5684  122229272.530 7  95243601.63544
     -2297.175       -1790.021
  23192841.216    23192840.6164   23192840.4924  121879238.272 7  94970837.38245
      2567.995        2001.048
  24647401.000    24647400.5634   24647401.8494  129522956.678 5 100927003.44341
      4207.752        3278.812
  22258440.198    22258440.0614   22258440.5954  116968893.864 8  91144608.45445
      1016.367         791.985
  23730293.916    23730293.6054   23730294.4134  124703537.824 6  97171619.22643
      3473.499        2706.596
 06  5 13 15 44  0.0000000  0 12G 3G 6G 7G 8G10G13G15G16G21G26G27G29
  24026628.056    24026627.6344   24026630.0824  126260799.573 6  98385053.71543
      2949.781        2298.537
  24238558.969    24238558.7884   24238559.8884  127374477.655 7  99252850.01744
     -3136.315       -2443.884
  22699747.673    22699747.4134   22699748.0904  119287980.443 7  92951692.39744
       183.088         142.671
  23148175.053    23148174.5894   23148175.4944  121644499.475 7  94787940.81745
      3190.435        2486.047
  21194121.158    21194120.4464   21194121.3584  111375852.330 8  86786392.49146
      -779.225        -607.193
  23981512.830    23981513.3044   23981513.9714  126023692.150 6  98200290.69443
     -3781.357       -2946.493
  24634990.750    24634990.2754   24634992.9804  129457763.428 6 100876196.07743
      3687.057        2873.001
  23272611.060    23272611.0524   23272610.5884  122298395.706 7  95297463.83244
     -2310.619       -1800.486
  23178214.521    23178213.8524   23178214.0394  121802374.224 7  94910943.33945
      2556.500        1992.081
  24623385.388    24623385.2124   24623387.2254  129396753.711 5 100828663.63641
      4205.617        3277.082
  22252678.771    22252678.6594   22252679.1624  116938617.702 8  91121016.64445
      1002.282         780.988
  23710478.957    23710478.9184   23710480.6584  124599413.605 6  97090483.51243
      3468.374        2702.645
 06  5 13 15 44 30.0000000  0 12G 3G 6G 7G 8G10G13G15G16G21G26G27G29
  24009815.907    24009816.6194   24009818.0274  126172455.978 6  98316214.65743
      2939.666        2290.638
  24256483.893    24256484.0994   24256484.8634  127468673.918 7  99326249.69944
     -3143.713       -2449.668
  22698749.695    22698748.9404   22698750.3204  119282735.696 7  92947605.57244
       166.317         129.614
  23129987.642    23129987.1794   23129988.7474  121548925.494 7  94713467.67845
      3180.815        2478.527
  21198621.539    21198620.9664   21198621.9314  111399503.077 8  86804821.62846
      -797.571        -621.484
  24003115.071    24003115.3304   24003115.8344  126137213.458 6  98288748.92843
     -3786.801       -2950.747
  24613952.818    24613952.5714   24613955.0124  129347210.139 6 100790050.71743
      3682.896        2869.789
  23285840.779    23285840.4594   23285840.7984  122367918.636 7  95351637.45844
     -2324.408       -1811.232
  23163652.599    23163652.3684   23163652.0624  121725851.217 8  94851315.06645
      2544.754        1982.913
  24599380.218    24599381.6234   24599383.7124  129270610.984 5 100730370.67541
      4203.486        3275.478
  22246997.869    22246997.5654   22246998.2374  116908762.913 7  91097753.17345
       987.856         769.761
  23690694.229    23690694.0164   23690694.8814  124495441.554 6  97009466.30543
      3462.904        2698.365
 06  5 13 15 45  0.0000000  0 12G 3G 6G 7G 8G10G13G15G16G21G26G27G29
  23993063.503    23993063.2804   23993065.3294  126084417.022 6  98247612.95443
      2929.334        2282.583
  24274449.727    24274449.4494   24274450.5484  127563085.331 7  99399817.00444
     -3150.873       -2455.242
  22697847.193    22697846.6194   22697847.6414  119277992.472 7  92943909.54144
       149.528         116.514
  23111855.138    23111854.9254   23111856.1494  121453639.541 7  94639219.01445
      3171.169        2471.039
  21203227.634    21203226.9854   21203228.2284  111423708.692 8  86823683.09546
      -816.276        -636.062
  24024746.475    24024746.9094   24024747.3074  126250885.518 6  98377324.67943
     -3791.931       -2954.733
  24592940.515    24592940.0914   24592941.8314  129236788.386 6 100704007.84043
      3678.190        2866.106
  23299148.575    23299148.2114   23299147.8864  122437851.487 7  95406130.64644
     -2338.155       -1821.937
  23149158.785    23149158.3364   23149157.9004  121649684.114 8  94791964.09745
      2532.787        1973.583
  24575391.609    24575390.4734   24575393.5704  129144542.921 5 100632135.85141
      4200.968        3273.520
  22241399.346    22241398.9244   22241399.4704  116879342.159 8  91074827.91845
       973.244         758.367
  23670940.630    23670940.9514   23670941.6634  124391636.152 6  96928579.01943
      3457.236        2693.958
 06  5 13 15 45 30.0000000  0 12G 3G 6G 7G 8G10G13G15G16G21G26G27G29
  23976368.622    23976368.2064   23976370.3654  125996684.988 6  98179250.40243
      2919.196        2274.688
  24292455.627    24292455.8304   24292457.1304  127657709.062 7  99473549.72644
     -3157.586       -2460.431
  22697040.259    22697039.6984   22697040.7974  119273750.258 7  92940603.87745
       132.997         103.629
  23093777.839    23093777.4294   23093778.8774  121358643.274 7  94565196.00645
      3161.645        2463.629
  21207939.339    21207938.5584   21207939.7324  111448467.871 8  86842975.93746
      -834.578        -650.307
  24046405.611    24046406.1714   24046405.5854  126364704.832 6  98466015.08843
     -3796.311       -2958.187
  24571952.855    24571952.4894   24571954.9654  129126500.196 6 100618069.08243
      3674.130        2862.923
  23312533.869    23312533.5084   23312533.2344  122508191.374 7  95460941.11144
     -2351.558       -1832.378
  23134732.315    23134732.1684   23134731.4534  121573874.428 7  94732891.63445
      2521.010        1964.434
  24551415.106    24551416.9594   24551418.1514  129018551.789 5 100533960.94241
      4198.367        3271.425
  22235883.208    22235883.0804   22235883.8264  116850355.758 8  91052241.11045
       959.016         747.291
  23651219.357    23651219.6164   23651220.8104  124287999.180 6  96847822.99343
      3451.654        2689.600
 06  5 13 15 46  0.0000000  0 12G 3G 6G 7G 8G10G13G15G16G21G26G27G29
  23959730.462    23959730.7204   23959732.4144  125909253.507 6  98111122.06943
      2909.450        2267.073
  24310500.623    24310500.1424   24310501.8344  127752532.577 7  99547438.07344
     -3164.214       -2465.640
  22696326.171    22696325.8544   22696327.0654  119269999.959 7  92937681.58145
       116.806          90.999
  23075755.045    23075754.0144   23075755.5604  121263929.988 7  94491393.47445
      3152.423        2456.410
  21212754.153    21212753.4774   21212754.6914  111473770.468 8  86862692.27146
      -852.458        -664.260
  24068089.795    24068090.7374   24068090.4274  126478659.418 6  98554810.85543
     -3800.800       -2961.647
  24550990.723    24550989.8764   24550991.3014  129016338.963 6 100532229.24043
      3669.771        2859.544
  23325994.242    23325993.8804   23325994.1254  122578926.307 7  95516059.26744
     -2364.422       -1842.416
  23120373.075    23120372.6434   23120371.8844  121498415.424 7  94674092.43245
      2509.493        1955.450
  24527453.540    24527454.4624   24527456.1634  128892631.083 5 100435840.94341
      4195.985        3269.590
  22230448.260    22230448.3024   22230448.6954  116821795.296 8  91029986.21845
       944.891         736.273
  23631528.008    23631528.4354   23631529.8004  124184523.317 6  96767192.46943
      3446.452        2685.553
 06  5 13 15 46 30.0000000  0 12G 3G 6G 7G 8G10G13G15G16G21G26G27G29
  23943151.337    23943151.2804   23943152.8534  125822127.172 6  98043231.49943
      2898.770        2258.759
  24328582.662    24328582.6594   24328584.1454  127847555.419 6  99621481.67944
     -3170.789       -2470.757
  22695706.221    22695706.0254   22695707.3354  119266743.688 7  92935144.22345
       100.145          78.021
  23057785.919    23057785.6264   23057786.8184  121169504.674 7  94417815.32645
      3142.552        2448.734
  21217672.780    21217672.1144   21217673.1324  111499617.421 8  86882832.74646
      -870.847        -678.585
  24089801.308    24089801.1204   24089801.1944  126592749.173 6  98643711.87543
     -3805.445       -2965.293
  24530052.569    24530052.2974   24530053.5314  128906309.445 6 100446491.96043
      3665.173        2855.985
  23339529.599    23339529.8664   23339529.1904  122650056.007 7  95571485.03844
     -2377.771       -1852.805
  23106081.360    23106081.1254   23106080.1324  121423311.573 8  94615569.99145
      2497.320        1945.962
  24503506.105    24503505.5684   24503507.4404  128766785.363 5 100337779.30941
      4193.114        3267.339
  22225095.102    22225095.0434   22225095.6444  116793663.838 7  91008065.61045
       930.336         724.922
  23611869.404    23611868.6464   23611870.2024  124081213.032 6  96686691.00243
      3440.760        2681.120
 06  5 13 15 47  0.0000000  0 12G 3G 6G 7G 8G10G13G15G16G21G26G27G29
  23926631.130    23926631.1404   23926632.9964  125735315.328 6  97975585.98743
      2888.179        2250.513
  24346704.146    24346704.3234   24346705.3234  127942781.960 7  99695684.02344
     -3177.812       -2476.199
  22695182.017    22695181.6264   22695183.0074  119263988.319 7  92932997.20344
        83.299          64.896
  23039873.850    23039873.5054   23039875.0794  121075376.571 7  94344468.74745
      3132.417        2440.854
  21222695.806    21222695.3274   21222696.2204  111526014.458 8  86903401.84446
      -889.230        -692.910
  24111537.683    24111538.1814   24111537.4704  126706978.177 6  98732721.44043
     -3810.171       -2968.952
  24509141.182    24509140.3014   24509142.6454  128796421.122 6 100360864.69343
      3660.526        2852.387
  23353141.085    23353141.3454   23353140.4964  122721584.838 7  95627221.81844
     -2391.062       -1863.167
  23091858.966    23091858.4094   23091857.4534  121348571.749 7  94557331.20445
      2485.004        1936.346
  24479573.727    24479573.8584   24479575.7334  128641024.284 5 100239783.71341
      4190.242        3265.118
  22219824.934    22219824.8804   22219825.5064  116765968.888 8  90986485.12145
       915.688         713.512
  23592242.776    23592242.7034   23592244.2974  123978077.318 6  96606325.56543
      3434.727        2676.436
 06  5 13 15 47 30.0000000  0 12G 3G 6G 7G 8G10G13G15G16G21G26G27G29
  23910172.964    23910171.6764   23910174.1584  125648823.959 6  97908190.14743
      2877.324        2242.092
  24364864.288    24364863.7564   24364865.3854  128038212.751 7  99770045.60144
     -3184.682       -2481.579
  22694753.558    22694753.4074   22694754.4274  119261737.217 7  92931243.08644
        66.328          51.681
  23022019.796    23022019.3884   23022020.7484  120981551.537 7  94271358.30445
      3122.194        2432.895
  21227824.232    21227823.6344   21227824.5364  111552964.077 8  86924401.53546
      -907.657        -707.253
  24133302.178    24133302.0224   24133302.0534  126821346.816 6  98821839.81043
     -3814.902       -2972.655
  24488259.067    24488258.1994   24488259.3374  128686679.936 6 100275352.09743
      3655.107        2848.162
  23366828.872    23366828.5604   23366828.0024  122793513.611 7  95683270.21644
     -2404.441       -1873.580
  23077706.764    23077706.4104   23077705.0414  121274201.437 7  94499380.34945
      2472.617        1926.730
  24455660.467    24455660.4304   24455662.0114  128515353.778 5 100141858.74541
      4187.468        3262.967
  22214638.482    22214638.6144   22214638.6824  116738714.157 8  90965247.66145
       900.930         702.032
  23572650.858    23572651.2374   23572652.2094  123875121.434 6  96526100.21143
      3428.631        2671.658
 06  5 13 15 48  0.0000000  0 12G 3G 6G 7G 8G10G13G15G16G21G26G27G29
  23893773.821    23893774.3214   23893775.7444  125562652.454 5  97841043.54343
      2866.951        2233.993
  24383061.872    24383061.7494   24383062.6864  128133841.568 7  99844561.44744
     -3190.731       -2486.260
  22694420.804    22694420.4284   22694420.9664  119259987.102 7  92929879.40844
        49.958          38.945
  23004223.058    23004222.8464   23004223.7354  120888029.013 7  94198483.58145
      3112.390        2425.253
  21233056.936    21233056.3634   21233057.3144  111580461.893 8  86945828.41046
      -925.638        -721.270
  24155090.299    24155090.9514   24155090.7964  126935849.159 6  98911062.33943
     -3818.914       -2975.791
  24467402.685    24467402.2094   24467404.7104  128577085.149 6 100189953.58743
      3650.688        2844.683
  23380591.447    23380591.0154   23380590.7674  122865836.829 7  95739625.95144
     -2417.200       -1883.522
  23063624.628    23063624.2614   23063623.3674  121200199.424 7  94441716.44945
      2460.601        1917.379
  24431762.505    24431762.5884   24431765.0004  128389773.155 5 100044003.80341
      4184.571        3260.655
  22209535.515    22209535.2464   22209535.7624  116711897.139 8  90944351.28345
       886.617         690.888
  23553093.012    23553092.9214   23553094.4654  123772344.790 7  96446014.60243
      3422.862        2667.170
 06  5 13 15 48 30.0000000  0 12G 3G 6G 7G 8G10G13G15G16G21G26G27G29
  23877436.686    23877436.5244   23877438.5534  125476798.843 5  97774144.70343
      2856.373        2225.758
  24401296.141    24401295.7814   24401296.6584  128229661.341 7  99919225.99844
     -3196.950       -2491.110
  22694182.038    22694181.9254   22694182.8274  119258733.322 7  92928902.43144
        33.557          26.156
  22986483.529    22986483.1474   22986484.2254  120794807.080 7  94125843.11045
      3102.579        2417.590
  21238393.009    21238392.1704   21238393.3484  111608502.528 8  86967678.28546
      -943.536        -735.229
  24176904.529    24176905.1614   24176904.3574  127050478.440 6  99000383.83743
     -3822.984       -2978.968
  24446575.346    24446574.7804   24446576.8714  128467635.056 6 100104667.90043
      3646.238        2841.203
  23394428.578    23394427.7924   23394427.0334  122938547.451 7  95796283.58744
     -2429.932       -1893.481
  23049612.120    23049611.7574   23049610.6534  121126563.654 7  94384337.93245
      2448.443        1907.884
  24407882.815    24407883.5924   24407884.3574  128264280.510 5  99946217.30341
      4181.487        3258.259
  22204514.690    22204514.5884   22204515.3874  116685514.310 7  90923793.24145
       872.275         679.692
  23533568.988    23533569.3944   23533569.6474  123669744.892 7  96366066.68643
      3417.158        2662.713
 06  5 13 15 49  0.0000000  0 12G 3G 6G 7G 8G10G13G15G16G21G26G27G29
  23861160.110    23861160.2924   23861163.1344  125391266.667 6  97707496.30843
      2845.398        2217.225
  24419565.877    24419565.8684   24419567.3184  128325670.659 7  99994038.50544
     -3203.652       -2496.338
  22694038.176    22694037.7314   22694038.9464  119257977.104 7  92928313.14845
        16.810          13.102
  22968801.849    22968801.1934   22968802.4114  120701889.494 7  94053439.87145
      3091.973        2409.332
  21243831.894    21243831.5274   21243832.5084  111637085.851 8  86989951.00346
      -962.069        -749.660
  24198741.089    24198741.5964   24198741.7074  127165232.655 6  99089802.65443
     -3827.281       -2982.293
  24425776.350    24425775.7204   24425777.8424  128358333.325 6 100019497.82343
      3640.818        2837.000
  23408337.558    23408337.8304   23408337.1584  123011644.127 7  95853242.02544
     -2443.156       -1903.795
  23035669.819    23035669.4644   23035668.7234  121053297.373 7  94327247.29845
      2435.830        1898.050
  24384019.121    24384018.2894   24384021.5474  128138879.685 5  99848502.47341
      4178.597        3256.067
  22199577.411    22199577.2044   22199577.9294  116659567.058 8  90903574.60145
       857.442         668.141
  23514079.613    23514078.9774   23514079.5764  123567324.981 6  96286259.01743
      3410.906        2657.851
 06  5 13 15 49 30.0000000  0 12G 3G 6G 7G 8G10G13G15G16G21G26G27G29
  23844947.069    23844947.4214   23844949.5554  125306065.893 5  97641106.16742
      2834.403        2208.619
  24437872.848    24437872.7444   24437874.1704  128421873.362 6 100069001.57144
     -3210.140       -2501.420
  22693990.883    22693990.1054   22693991.2804  119257725.414 7  92928116.97545
        -0.200          -0.145
  22951179.534    22951179.1764   22951180.5524  120609285.242 7  93981280.76445
      3081.215        2400.944
  21249376.053    21249375.0544   21249376.1694  111666217.770 8  87012651.19446
      -980.535        -764.050
  24220603.051    24220602.9154   24220603.7534  127280116.505 6  99179322.50643
     -3831.800       -2985.793
  24405006.104    24405006.4714   24405008.3514  128249189.847 6  99934451.03343
      3635.219        2832.697
  23422322.134    23422321.5864   23422321.7774  123085131.684 7  95910505.02044
     -2456.277       -1913.998
  23021799.800    23021799.2614   23021798.7534  120980409.758 7  94270451.77245
      2423.066        1888.104
  24360175.119    24360175.8454   24360176.5554  128013580.502 5  99750866.82841
      4174.751        3253.099
  22194724.366    22194723.9034   22194724.5394  116634063.023 8  90883701.34045
       842.490         656.485
  23494625.402    23494625.6864   23494626.1584  123465094.432 7  96206598.89144
      3404.371        2652.770
 06  5 13 15 50  0.0000000  0 12G 3G 6G 7G 8G10G13G15G16G21G26G27G29
  23828796.871    23828796.9054   23828799.7244  125221196.219 6  97574973.94543
      2823.708        2200.259
  24456215.026    24456215.5284   24456216.8884  128518264.058 7 100144111.03144
     -3216.071       -2506.026
  22694038.422    22694037.8604   22694038.6264  119257975.422 7  92928311.75945
       -16.639         -12.963
  22933617.210    22933616.9314   22933618.0854  120516994.398 7  93909365.86845
      3071.206        2393.144
  21255022.853    21255022.4184   21255023.4814  111695894.503 8  87035775.95246
      -998.223        -777.838
  24242488.420    24242487.9144   24242489.0184  127395124.331 6  99268938.92943
     -3835.529       -2988.747
  24384267.739    24384266.9034   24384268.8474  128140204.135 6  99849527.18043
      3630.357        2828.879
  23436379.457    23436379.4814   23436379.0814  123159004.614 7  95968068.31544
     -2468.801       -1923.735
  23008001.386    23008001.0994   23008000.6394  120907900.195 7  94213950.82545
      2410.700        1878.476
  24336350.878    24336350.1294   24336352.1604  127888382.523 5  99653310.07641
      4171.562        3250.613
  22189954.863    22189954.5654   22189955.1534  116609000.218 8  90864171.89745
       828.307         645.424
  23475207.458    23475207.1234   23475208.0824  123363052.282 7  96127085.56144
      3398.483        2648.182
 06  5 13 15 50 30.0000000  0 12G 3G 6G 7G 8G10G13G15G16G21G26G27G29
  23812710.455    23812709.8394   23812711.9654  125136654.533 6  97509097.31443
      2812.170        2191.292
  24474592.095    24474591.7994   24474593.6154  128614834.394 7 100219360.56144
     -3222.235       -2510.820
  22694179.874    22694179.6964   22694180.3704  119258721.307 7  92928892.97944
       -33.426         -26.042
  22916114.159    22916113.7404   22916115.0894  120425014.131 7  93837692.97945
      3060.435        2384.762
  21260772.560    21260771.9804   21260772.9624  111726109.127 8  87059319.81246
     -1016.432        -792.015
  24264395.324    24264396.2484   24264396.1314  127510247.895 6  99358645.55843
     -3839.851       -2992.073
  24363556.821    24363556.3854   24363559.0074  128031373.098 6  99764723.83443
      3624.670        2824.437
  23450509.364    23450508.5014   23450508.3754  123233254.734 7  96025925.57244
     -2481.671       -1933.763
  22994274.977    22994274.6234   22994273.8714  120835765.785 7  94157742.21645
      2397.686        1868.326
  24312546.116    24312546.0114   24312545.3724  127763282.998 5  99555830.01441
      4167.761        3247.647
  22185268.276    22185268.2514   22185268.7884  116584373.573 8  90844982.31345
       813.125         633.604
  23455824.682    23455824.2224   23455825.7954  123261195.293 6  96047716.56744
      3391.690        2642.882
 06  5 13 15 51  0.0000000  0 12G 3G 6G 7G 8G10G13G15G16G21G26G27G29
  23796687.655    23796686.9964   23796688.8924  125052456.016 6  97443488.18543
      2800.612        2182.297
  24493004.973    24493004.7384   24493006.7544  128711594.084 7 100294757.71344
     -3228.774       -2515.953
  22694418.261    22694418.3554   22694419.2264  119259975.410 7  92929870.22945
       -50.641         -39.458
  22898672.862    22898672.3684   22898673.6444  120333358.856 7  93766273.29745
      3049.493        2376.209
  21266626.969    21266626.1784   21266627.2374  111756872.920 8  87083291.59746
     -1034.777        -806.324
  24286326.415    24286327.0904   24286327.6704  127625496.802 6  99448449.85443
     -3843.829       -2995.215
  24342880.479    24342879.2304   24342881.1224  127922711.840 6  99680052.79243
      3618.844        2819.871
  23464711.578    23464711.4534   23464711.6974  123307891.810 7  96084084.38244
     -2494.699       -1943.921
  22980622.121    22980621.7404   22980621.4434  120764020.736 7  94101836.98745
      2384.749        1858.234
  24288760.779    24288760.0634   24288762.0374  127638296.771 5  99458438.28441
      4163.772        3244.453
  22180667.718    22180667.5194   22180668.0914  116560196.092 7  90826142.71145
       798.049         621.852
  23436480.306    23436480.0024   23436480.8424  123159537.912 7  95968503.08144
      3384.942        2637.595
 06  5 13 15 51 30.0000000  0 12G 3G 6G 7G 8G10G13G15G16G21G26G27G29
  23780730.319    23780730.4804   23780731.9174  124968602.300 6  97378147.64543
      2789.375        2173.522
  24511453.353    24511453.1764   24511455.0364  128808539.749 6 100370299.69944
     -3234.574       -2520.437
  22694754.150    22694753.7414   22694754.1214  119261736.826 7  92931242.76845
       -66.786         -52.047
  22881293.780    22881293.2284   22881294.3354  120242030.986 7  93695108.74645
      3038.927        2367.997
  21272585.122    21272584.5224   21272585.6564  111788184.262 8  87107690.05146
     -1052.778        -820.346
  24308281.359    24308281.3784   24308282.0414  127740868.165 6  99538349.55243
     -3847.635       -2998.170
  24322234.950    24322234.8934   24322235.6764  127814222.681 6  99595515.84143
      3613.401        2815.600
  23478987.730    23478987.8454   23478987.6904  123382912.729 7  96142542.24044
     -2506.922       -1953.455
  22967043.935    22967043.6334   22967043.3114  120692666.429 7  94046236.21945
      2372.094        1848.395
  24264998.903    24264999.4514   24264999.6354  127513426.168 5  99361136.55641
      4160.459        3241.887
  22176152.595    22176152.2284   22176152.9804  116536467.999 8  90807653.27945
       783.602         610.590
  23417173.651    23417173.2494   23417174.7614  123058081.936 7  95889446.51544
      3378.801        2632.820
 06  5 13 15 52  0.0000000  0 12G 3G 6G 7G 8G10G13G15G16G21G26G27G29
  23764837.032    23764837.2064   23764838.5444  124885082.726 6  97313067.45143
      2778.105        2164.757
  24529933.359    24529933.1644   24529935.5804  128905654.799 6 100445973.67644
     -3240.700       -2525.216
  22695183.549    22695183.0014   22695183.1764  119263991.982 7  92932999.99945
       -84.104         -65.530
  22863974.609    22863974.0924   22863975.4874  120151019.498 8  93624190.72945
      3027.825        2359.344
  21278644.769    21278644.0724   21278645.2604  111820028.295 8  87132503.57046
     -1070.758        -834.354
  24330255.416    24330255.4414   24330257.0814  127856345.615 6  99628331.93943
     -3851.329       -3001.027
  24301620.710    24301620.2054   24301622.6594  127705894.390 6  99511104.20143
      3607.711        2811.202
  23493333.750    23493333.3054   23493333.3644  123458301.579 7  96201286.77944
     -2519.653       -1963.351
  22953538.184    22953537.8104   22953537.1674  120621691.393 7  93990930.99445
      2358.870        1838.097
  24241256.486    24241256.4424   24241260.3834  127388660.075 5  99263916.26441
      4156.319        3238.761
  22171720.352    22171720.1454   22171720.6274  116513175.952 7  90789503.61645
       768.623         598.938
  23397903.028    23397902.5134   23397903.7374  122956815.980 7  95810538.00044
      3371.910        2627.470
 06  5 13 15 52 30.0000000  0 12G 3G 6G 7G 8G10G13G15G16G21G26G27G29
  23749011.236    23749010.7884   23749012.5884  124801916.072 6  97248262.24243
      2766.411        2155.641
  24548448.104    24548448.6614   24548451.1584  129002953.241 6 100521790.49744
     -3246.581       -2529.783
  22695709.178    22695708.9264   22695709.7014  119266757.155 7  92935154.64045
      -100.777         -78.540
  22846719.363    22846718.7694   22846719.8614  120060342.946 7  93553533.68945
      3016.823        2350.772
  21284808.787    21284807.9244   21284809.3594  111852420.416 8  87157744.17246
     -1088.937        -848.525
  24352252.747    24352253.2854   24352253.9114  127971942.919 6  99718407.69243
     -3855.106       -3003.914
  24281040.287    24281041.0484   24281041.4474  127597746.320 6  99426833.03542
      3601.801        2806.544
  23507752.396    23507752.3744   23507752.1114  123534072.435 7  96260329.04044
     -2532.083       -1973.064
  22940107.920    22940107.4424   22940106.6244  120551114.727 7  93935936.21545
      2345.815        1827.888
  24217537.707    24217537.7494   24217539.9264  127264017.880 5  99166792.52441
      4152.312        3235.555
  22167374.435    22167373.7244   22167374.5864  116490337.248 8  90771707.22845
       753.558         587.184
  23378672.196    23378672.2904   23378672.8954  122855758.563 7  95731791.99444
      3364.964        2622.035
 06  5 13 15 53  0.0000000  0 12G 3G 6G 7G 8G10G13G15G16G21G26G27G29
  23733251.352    23733251.2374   23733253.0444  124719098.061 6  97183728.63843
      2754.656        2146.467
  24566997.079    24566996.5544   24566999.7554  129100425.128 6 100597742.38444
     -3251.795       -2533.858
  22696330.812    22696330.3794   22696331.7394  119270025.336 7  92937701.26844
      -117.588         -91.629
  22829527.261    22829526.7344   22829527.6754  119969997.101 7  93483134.36945
      3005.803        2342.178
  21291075.793    21291074.8364   21291076.0954  111885352.343 8  87183405.39746
     -1106.803        -862.446
  24374271.575    24374272.1664   24374272.7854  128087650.551 6  99808569.44643
     -3859.032       -3007.038
  24260494.035    24260494.2544   24260495.3004  127489774.319 6  99342699.06542
      3595.943        2802.026
  23522241.827    23522241.8104   23522241.5394  123610215.618 7  96319661.37144
     -2544.466       -1982.713
  22926752.577    22926752.1124   22926751.2054  120480931.451 7  93881247.96045
      2332.789        1817.739
  24193842.467    24193840.9034   24193844.0044  127139495.273 5  99069761.95441
      4148.691        3232.723
  22163113.016    22163112.7864   22163113.4854  116467945.435 7  90754259.07345
       738.752         575.648
  23359480.515    23359480.7424   23359481.5474  122754905.075 7  95653204.86144
      3358.239        2616.812
 06  5 13 15 53 30.0000000  0 12G 3G 6G 7G 8G10G13G15G16G21G26G27G29
  23717559.840    23717559.7254   23717561.1034  124636636.516 6  97119472.94343
      2742.921        2137.286
  24585579.124    24585578.6404   24585581.1744  129198073.282 6 100673831.80043
     -3257.767       -2538.511
  22697049.537    22697049.0884   22697050.1354  119273801.201 7  92940643.49345
      -134.215        -104.580
  22812398.824    22812398.7154   22812400.1074  119879989.403 7  93412998.54245
      2994.731        2333.578
  21297445.652    21297445.0244   21297446.2944  111918827.596 8  87209489.97846
     -1124.710        -876.387
  24396312.018    24396311.8154   24396312.5814  128203470.649 6  99898818.79343
     -3862.349       -3009.617
  24239982.351    24239981.4994   24239983.9964  127381985.730 6  99258708.01642
      3589.810        2797.276
  23536802.764    23536802.3614   23536802.0134  123686733.280 7  96379285.55544
     -2556.648       -1992.195
  22913473.012    22913472.6394   22913472.1194  120411148.546 7  93826871.65645
      2319.526        1807.421
  24170171.145    24170171.0414   24170170.5154  127015099.899 5  98972830.56741
      4144.446        3229.481
  22158938.107    22158937.8204   22158938.5844  116446005.817 8  90737163.27845
       723.794         563.990
  23340329.041    23340329.0274   23340329.5954  122654262.773 7  95574782.37544
      3351.295        2611.397
 06  5 13 15 54  0.0000000  0 12G 3G 6G 7G 8G10G13G15G16G21G26G27G29
  23701935.162    23701935.4234   23701937.6804  124554531.796 6  97055495.28343
      2730.332        2127.521
  24604193.721    24604193.5364   24604195.5834  129295892.704 7 100750054.61044
     -3264.051       -2543.416
  22697864.222    22697863.9154   22697865.2534  119278082.485 7  92943979.57645
      -151.723        -118.220
  22795335.338    22795334.9094   22795336.5524  119790320.436 7  93343126.67045
      2982.774        2324.240
  21303918.677    21303917.8904   21303919.1684  111952843.210 8  87235995.64146
     -1143.334        -890.906
  24418372.142    24418372.7654   24418373.2064  128319399.142 6  99989152.63643
     -3866.560       -3012.946
  24219506.473    24219506.4344   24219507.5854  127274381.509 6  99174860.64842
      3583.052        2792.015
  23551433.812    23551433.6964   23551432.7284  123763621.352 6  96439198.28143
     -2569.525       -2002.221
  22900269.833    22900269.7404   22900268.9424  120341766.500 7  93772807.75045
      2305.446        1796.431
  24146523.845    24146523.5074   24146526.1834  126890832.603 5  98875998.99341
      4139.352        3225.464
  22154848.897    22154848.8144   22154849.3084  116424517.312 8  90720419.00745
       708.191         551.842
  23321217.747    23321217.5764   23321218.3854  122553831.715 6  95496524.43944
      3343.833        2605.568
 06  5 13 15 54 30.0000000  0 12G 3G 6G 7G 8G10G13G15G16G21G26G27G29
  23686381.337    23686380.1064   23686381.9364  124472789.002 6  96991799.68343
      2718.514        2118.327
  24622840.180    24622840.5124   24622842.0924  129393882.878 6 100826410.44443
     -3269.430       -2547.599
  22698775.517    22698775.2444   22698776.1214  119282871.568 7  92947711.36445
      -168.270        -131.142
  22778337.445    22778337.2294   22778338.4714  119700995.606 7  93273522.94345
      2971.695        2315.617
  21310494.957    21310494.1844   21310495.1354  111987400.241 7  87262923.18246
     -1161.013        -904.684
  24440453.716    24440453.9174   24440453.9204  128435435.783 7 100079570.73743
     -3869.910       -3015.491
  24199066.020    24199065.6854   24199067.2184  127166966.699 6  99091160.84343
      3577.073        2787.347
  23566135.757    23566135.5344   23566135.0964  123840879.726 7  96499399.63243
     -2581.469       -2011.530
  22887144.105    22887143.9594   22887142.7084  120272790.012 8  93719059.85845
      2292.271        1786.184
  24122901.447    24122901.2464   24122903.4994  126766698.569 5  98779271.27542
      4135.391        3222.321
  22150846.119    22150846.0724   22150846.6194  116403482.759 8  90704028.45745
       693.407         540.296
  23302147.386    23302147.2834   23302148.2814  122453616.721 7  95418434.84244
      3336.763        2600.058
 06  5 13 15 55  0.0000000  0 12G 3G 6G 7G 8G10G13G15G16G21G26G27G29
  23670893.328    23670893.3324   23670895.0454  124391403.120 6  96928382.15543
      2706.836        2109.247
  24641518.215    24641517.9584   24641520.0644  129492034.420 6 100902892.09443
     -3274.482       -2551.574
  22699782.087    22699781.9094   22699782.7784  119288160.904 7  92951832.95945
      -184.769        -143.983
  22761404.076    22761403.7944   22761405.2094  119612009.736 7  93204183.33045
      2960.461        2306.853
  21317172.263    21317171.6584   21317172.6324  112022490.270 8  87290266.05146
     -1178.645        -918.430
  24462553.144    24462553.3334   24462553.3984  128551570.484 6 100170065.20043
     -3872.833       -3017.789
  24178661.220    24178660.7764   24178662.8244  127059736.782 6  99007605.09943
      3571.010        2782.602
  23580905.836    23580905.3174   23580905.2264  123918498.572 7  96559881.90043
     -2593.546       -2020.917
  22874094.523    22874094.2454   22874093.0964  120204213.718 8  93665623.80045
      2278.987        1775.823
  24099303.834    24099304.9184   24099304.9684  126642693.256 5  98682643.82042
      4131.022        3218.951
  22146928.225    22146928.2674   22146928.9714  116382895.459 8  90687986.39945
       678.730         528.867
  23283116.898    23283117.0294   23283118.4094  122353612.780 7  95340509.72244
      3329.915        2594.742
 06  5 13 15 55 30.0000000  0 12G 3G 6G 7G 8G10G13G15G16G21G26G27G29
  23655475.782    23655475.5894   23655476.9014  124310384.024 6  96865250.46143
      2694.499        2099.621
  24660227.273    24660227.2264   24660229.4374  129590351.905 6 100979503.18243
     -3280.138       -2555.970
  22700885.050    22700884.9954   22700885.5694  119293957.562 7  92956349.83045
      -201.729        -157.183
  22744537.091    22744536.8224   22744538.0384  119523372.844 7  93135115.64745
      2948.567        2297.584
  21323952.413    21323951.5214   21323952.5264  112058119.340 8  87318028.94946
     -1196.802        -932.557
  24484672.034    24484672.5564   24484673.3824  128667808.271 6 100260640.02743
     -3876.210       -3020.397
  24158293.428    24158292.7184   24158294.6424  126952702.153 6  98924201.53143
      3564.428        2777.482
  23595746.537    23595745.7344   23595745.3234  123996482.748 7  96620648.81543
     -2605.617       -2030.331
  22861122.849    22861122.5034   22861121.6604  120136047.435 7  93612507.23145
      2265.284        1765.169
  24075733.758    24075733.1084   24075733.1054  126518826.814 6  98586124.55642
      4126.417        3215.387
  22143097.414    22143097.3154   22143097.9884  116362763.338 8  90672299.02745
       663.384         516.920
  23264128.709    23264129.0784   23264130.1684  122253829.418 7  95262756.48644
      3322.297        2588.805
 06  5 13 15 56  0.0000000  0 12G 3G 6G 7G 8G10G13G15G16G21G26G27G29
  23640130.040    23640129.7324   23640130.4554  124229740.504 6  96802411.35143
      2681.732        2089.644
  24678968.671    24678969.0034   24678971.3254  129688838.652 6 101056246.26743
     -3285.798       -2560.369
  22702086.210    22702085.8994   22702086.4864  119300267.433 7  92961266.60745
      -218.739        -170.463
  22727738.069    22727737.8314   22727739.0204  119435093.792 8  93066326.80945
      2936.585        2288.232
  21330835.540    21330834.9174   21330836.1184  112094292.443 7  87346215.75646
     -1214.881        -946.673
  24506812.098    24506812.1634   24506812.5134  128784152.404 6 100351297.68843
     -3879.733       -3023.187
  24137964.285    24137963.4414   24137964.8514  126845871.463 6  98840956.86843
      3557.672        2772.193
  23610655.853    23610655.4414   23610655.7494  124074835.725 6  96681703.09043
     -2617.907       -2039.928
  22848230.780    22848230.6514   22848229.3684  120068299.326 7  93559716.50145
      2251.316        1754.246
  24052190.049    24052189.8904   24052191.1394  126395108.229 6  98489720.51542
      4121.345        3211.418
  22139354.313    22139354.2214   22139354.7764  116343092.851 8  90656971.37545
       648.019         504.936
  23245184.622    23245183.9964   23245185.7704  122154275.020 7  95185181.65244
      3314.673        2582.836
 06  5 13 15 56 30.0000000  0 12G 3G 6G 7G 8G10G13G15G16G21G26G27G29
  23624854.387    23624854.1794   23624856.0274  124149468.167 6  96739861.50343
      2669.285        2079.986
  24697739.916    24697740.5464   24697742.0124  129787484.013 6 101133112.55143
     -3290.812       -2564.289
  22703383.430    22703383.2504   22703383.5844  119307083.231 7  92966577.60845
      -235.938        -183.858
  22711006.618    22711006.0554   22711007.3424  119347168.044 7  92997813.27145
      2924.703        2278.993
  21337821.215    21337820.4974   21337821.6644  112131001.126 8  87374819.87846
     -1232.610        -960.482
  24528970.228    24528970.1864   24528970.8074  128900593.584 6 100442030.98543
     -3883.126       -3025.830
  24117672.611    24117671.7754   24117673.1764  126739240.479 6  98757867.83143
      3550.858        2766.886
  23625633.975    23625633.8034   23625634.1634  124153548.022 6  96743037.38043
     -2629.877       -2049.244
  22835417.855    22835417.2944   22835415.9224  120000964.248 7  93507247.62645
      2237.430        1743.458
  24028674.118    24028674.6054   24028676.3984  126271533.069 6  98393428.23342
      4116.536        3207.638
  22135697.743    22135697.5634   22135698.3834  116323877.636 7  90641998.48045
       632.691         493.004
  23226282.588    23226282.8604   23226283.2984  122054944.882 7  95107781.59944
      3307.007        2576.881
 06  5 13 15 57  0.0000000  0 12G 3G 6G 7G 8G10G13G15G16G21G26G27G29
  23609650.444    23609650.4984   23609651.4724  124069570.020 6  96677603.30743
      2657.186        2070.545
  24716541.512    24716541.3304   24716543.7694  129886286.681 6 101210101.70943
     -3296.200       -2568.468
  22704776.627    22704776.1424   22704776.8084  119314404.989 8  92972282.93145
      -252.563        -196.805
  22694342.573    22694342.1714   22694342.9804  119259598.531 7  92929577.29445
      2912.927        2269.818
  21344908.402    21344907.6384   21344908.8064  112168244.035 8  87403840.28346
     -1250.410        -974.340
  24551145.954    24551146.8644   24551146.5764  129017129.613 6 100532838.25843
     -3886.009       -3028.029
  24097419.067    24097419.0204   24097421.1594  126632811.901 6  98674936.51343
      3544.116        2761.693
  23640680.540    23640680.6734   23640680.9064  124232617.155 7  96804649.69343
     -2641.615       -2058.379
  22822683.190    22822683.0134   22822681.7474  119934044.658 8  93455102.49245
      2223.665        1732.727
  24005186.399    24005186.9014   24005188.6384  126148104.497 6  98297250.18242
      4111.724        3203.896
  22132127.805    22132127.8104   22132128.5034  116305118.186 8  90627380.73445
       617.596         481.237
  23207423.425    23207423.2284   23207424.5404  121955841.380 7  95030558.09444
      3299.495        2571.035
 06  5 13 15 57 30.0000000  0 12G 3G 6G 7G 8G10G13G15G16G21G26G27G29
  23594516.824    23594516.5544   23594517.4354  123990044.087 6  96615635.17643
      2644.193        2060.414
  24735371.613    24735371.2274   24735373.9534  129985238.741 6 101287207.00343
     -3301.265       -2572.387
  22706265.190    22706264.9794   22706265.3664  119322227.802 7  92978378.63245
      -269.629        -210.094
  22677745.793    22677745.5064   22677746.7954  119172382.867 7  92861617.06145
      2900.717        2260.305
  21352096.260    21352095.3624   21352096.3504  112206015.608 8  87433272.63246
     -1268.305        -988.273
  24573339.623    24573339.8674   24573339.5594  129133753.580 6 100623714.00743
     -3889.421       -3030.701
  24077205.372    24077204.6394   24077206.3214  126526584.264 6  98592161.76943
      3537.207        2756.263
  23655794.677    23655793.4784   23655794.0664  124312036.121 7  96866534.54243
     -2653.561       -2067.701
  22810027.403    22810027.3224   22810025.9194  119867538.403 7  93403279.45145
      2209.570        1721.756
  23981726.147    23981725.5864   23981727.3804  126024820.770 6  98201185.02742
      4106.659        3200.000
  22128644.155    22128644.1214   22128644.6194  116286810.541 8  90613115.03845
       602.249         469.295
  23188607.356    23188607.4024   23188608.4944  121856962.211 7  94953509.40844
      3291.815        2565.053
 06  5 13 15 58  0.0000000  0 12G 3G 6G 7G 8G10G13G15G16G21G26G27G29
  23579456.736    23579456.7004   23579457.8614  123910903.652 7  96553967.33543
      2631.456        2050.496
  24754231.911    24754232.3164   24754233.9994  130084349.204 6 101364435.88343
     -3306.491       -2576.498
  22707851.005    22707850.8694   22707851.0394  119330562.404 7  92984873.13945
      -286.451        -223.206
  22661219.331    22661219.0044   22661219.6124  119085534.480 7  92793943.00845
      2888.688        2250.931
  21359386.217    21359385.2604   21359386.7454  112244325.599 8  87463124.54546
     -1286.007       -1002.084
  24595550.695    24595550.7734   24595550.7834  129250473.658 7 100714664.66743
     -3892.241       -3032.897
  24057031.305    24057031.3174   24057033.0794  126420571.475 6  98509554.44643
      3530.124        2750.750
  23670975.129    23670974.6974   23670974.7144  124391813.336 6  96928698.48943
     -2665.324       -2076.875
  22797452.871    22797452.5444   22797451.6574  119801458.173 7  93351788.37745
      2195.478        1710.761
  23958296.286    23958296.3334   23958298.7094  125901695.860 6  98105243.59042
      4101.413        3195.920
  22125248.690    22125248.3104   22125249.3134  116268966.544 7  90599210.62745
       587.046         457.441
  23169837.032    23169836.6544   23169837.6224  121758320.802 7  94876645.98044
      3284.022        2558.996
 06  5 13 15 58 30.0000000  0 12G 3G 6G 7G 8G10G13G15G16G21G26G27G29
  23564470.755    23564470.9764   23564472.2384  123832153.799 6  96492603.91743
      2618.124        2040.073
  24773121.772    24773121.6974   24773123.5384  130183617.223 6 101441787.51343
     -3311.871       -2580.674
  22709534.718    22709534.4204   22709535.1554  119339410.513 7  92991767.75145
      -303.672        -236.632
  22644763.379    22644763.2384   22644764.0714  118999058.672 8  92726559.28245
      2876.084        2241.098
  21366779.048    21366778.2334   21366779.5824  112283175.016 7  87493396.81246
     -1304.227       -1016.289
  24617779.733    24617780.3784   24617779.7834  129367289.526 6 100805690.01643
     -3895.682       -3035.606
  24036900.299    24036899.9764   24036900.6794  126314778.520 6  98427118.41143
      3522.468        2744.754
  23686224.006    23686223.8864   23686224.4794  124471948.847 6  96991141.73243
     -2677.371       -2086.260
  22784960.194    22784959.8034   22784958.9204  119735808.745 7  93300632.99845
      2180.845        1699.366
  23934897.736    23934898.7144   23934898.8214  125778734.696 6  98009429.74842
      4095.625        3191.402
  22121941.760    22121941.6174   22121942.1354  116251588.652 8  90585669.42245
       571.212         445.094
  23151112.027    23151112.0274   23151112.3304  121659921.663 7  94799971.34044
      3275.671        2552.467
 06  5 13 15 59  0.0000000  0 12G 3G 6G 7G 8G10G13G15G16G21G26G27G29
  23549558.768    23549558.7074   23549561.0044  123753791.310 6  96431542.39143
      2605.437        2030.220
  24792040.189    24792040.6044   24792042.1614  130283035.226 6 101519256.32243
     -3316.633       -2584.427
  22711315.293    22711314.6794   22711315.7084  119348766.427 7  92999058.04845
      -320.789        -249.963
  22628377.671    22628377.6564   22628378.6094  118912952.478 7  92659463.56945
      2863.504        2231.305
  21374272.827    21374272.1934   21374273.6144  112322556.561 8  87524083.70246
     -1322.025       -1030.151
  24640025.859    24640026.1294   24640026.0524  129484193.213 7 100896783.74943
     -3898.683       -3037.935
  24016810.067    24016809.1764   24016810.9404  126209202.314 6  98344851.27443
      3515.098        2739.086
  23701540.411    23701539.5214   23701540.0984  124552434.296 6  97053857.66043
     -2689.050       -2095.386
  22772549.073    22772548.8524   22772547.5074  119670587.202 8  93249811.03345
      2166.471        1688.144
  23911529.139    23911529.2664   23911530.5954  125655934.572 6  97913741.40542
      4090.195        3187.137
  22118722.723    22118722.2214   22118723.1244  116234671.368 8  90572487.11645
       555.780         433.074
  23132432.990    23132432.6444   23132433.7394  121561761.311 7  94723482.77244
      3267.578        2546.171
 06  5 13 15 59 30.0000000  0 12G 3G 6G 7G 8G10G13G15G16G21G26G27G29
  23534722.111    23534722.3444   23534723.9254  123675823.839 6  96370788.64243
      2592.006        2019.742
  24810988.323    24810988.2424   24810989.5864  130382604.986 6 101596843.29843
     -3321.593       -2588.263
  22713192.773    22713192.6294   22713193.8364  119358634.843 7  93006747.71945
      -337.641        -263.092
  22612063.611    22612063.4804   22612064.8214  118827223.323 7  92592661.66645
      2851.178        2221.698
  21381869.182    21381868.3544   21381869.5604  112362474.274 8  87555188.41546
     -1339.722       -1043.941
  24662289.218    24662289.0264   24662289.5154  129601187.439 7 100987948.01343
     -3901.658       -3040.252
  23996762.361    23996761.8304   23996761.7984  126103851.019 6  98262759.37743
      3507.791        2733.330
  23716922.745    23716922.8444   23716923.1864  124633272.581 6  97116848.56943
     -2700.687       -2104.450
  22760220.508    22760220.0054   22760219.4344  119605800.146 8  93199327.65245
      2152.113        1676.965
  23888193.973    23888194.6324   23888194.4384  125533303.378 6  97818184.65442
      4084.780        3182.953
  22115591.882    22115591.7584   22115592.5194  116218220.504 8  90559668.26145
       540.441         421.127
  23113800.176    23113800.4564   23113801.5484  121463847.404 7  94647186.25044
      3259.444        2539.815
 06  5 13 16  0  0.0000000  0 12G 3G 6G 7G 8G10G13G15G16G21G26G27G29
  23519960.010    23519960.2734   23519961.5854  123598250.659 6  96310342.05943
      2578.948        2009.564
  24829963.150    24829962.7464   24829964.3974  130482320.915 6 101674543.97942
     -3326.385       -2591.985
  22715167.751    22715167.3164   22715168.6254  119369012.561 7  93014834.26145
      -354.443        -276.193
  22595821.719    22595821.4484   22595822.4474  118741870.620 7  92526153.07745
      2838.739        2212.022
  21389566.261    21389565.5844   21389566.7684  112402923.634 8  87586707.41846
     -1357.283       -1057.620
  24684568.673    24684568.6724   24684568.7414  129718266.800 7 101079178.61543
     -3904.117       -3042.149
  23976756.788    23976756.3774   23976757.1334  125998724.123 6  98180842.33743
      3500.380        2727.554
  23732371.978    23732371.7384   23732371.7404  124714457.707 6  97180109.69643
     -2712.155       -2113.417
  22747974.374    22747973.8154   22747973.3144  119541446.909 7  93149182.28645
      2137.771        1665.803
  23864890.216    23864890.3744   23864891.9524  125410841.171 6  97722759.60842
      4079.326        3178.642
  22112549.813    22112549.5954   22112550.1834  116202233.692 8  90547211.00645
       525.160         409.220
  23095214.323    23095214.5124   23095215.5194  121366179.108 7  94571081.11344
      3251.365        2533.536
 06  5 13 16  0 30.0000000  0 12G 3G 6G 7G 8G10G13G15G16G21G26G27G29
  23505274.224    23505274.2204   23505275.6494  123521074.590 6  96250204.90843
      2565.586        1999.158
  24848966.391    24848965.2604   24848967.9304  130582180.408 6 101752356.63542
     -3331.400       -2595.912
  22717239.247    22717238.9984   22717240.1284  119379898.943 7  93023317.13945
      -371.717        -289.663
  22579651.932    22579651.7284   22579652.9224  118656897.065 7  92459939.93445
      2825.900        2201.979
  21397364.470    21397363.8584   21397365.1124  112443903.212 8  87618639.55246
     -1374.934       -1071.391
  24706863.768    24706864.1034   24706864.7874  129835428.861 6 101170473.66143
     -3907.070       -3044.457
  23956795.042    23956794.3104   23956796.5104  125893824.680 7  98099102.52543
      3492.628        2721.536
  23747886.837    23747886.3594   23747886.2884  124795987.287 6  97243639.24743
     -2723.506       -2122.190
  22735811.112    22735810.8594   22735810.1834  119477529.290 7  93099376.38845
      2123.120        1654.364
  23841618.795    23841618.5244   23841620.2734  125288550.588 6  97627468.28042
      4073.406        3174.034
  22109596.125    22109595.8584   22109596.4664  116186711.557 8  90535115.81545
       509.497         396.993
  23076675.829    23076676.1014   23076677.0384  121268758.562 7  94495169.01544
      3242.979        2526.990
 06  5 13 16  1  0.0000000  0 12G 3G 6G 7G 8G10G13G15G16G21G26G27G29
  23490664.499    23490664.6234   23490666.0604  123444300.789 6  96190381.21343
      2552.023        1988.582
  24867995.593    24867995.7264   24867997.1764  130682183.182 6 101830280.72842
     -3336.188       -2599.594
  22719408.164    22719407.9904   22719409.2354  119391296.399 7  93032198.26545
      -388.736        -302.922
  22563555.442    22563555.0084   22563555.9584  118572307.661 7  92394026.13345
      2812.961        2191.933
  21405263.801    21405263.2004   21405264.3984  112485414.303 8  87650985.84546
     -1392.817       -1085.321
  24729174.931    24729174.9844   24729175.5214  129952673.979 7 101261833.43843
     -3909.760       -3046.588
  23936877.705    23936877.2744   23936878.7644  125789157.990 7  98017544.07043
      3484.553        2715.229
  23763467.314    23763466.5874   23763466.5854  124877861.654 6  97307437.48043
     -2735.133       -2131.294
  22723732.016    22723731.2974   22723730.7954  119414052.066 8  93049913.63245
      2108.226        1642.778
  23818381.216    23818382.3004   23818382.4304  125166437.116 6  97532314.98642
      4067.242        3169.250
  22106731.385    22106730.8544   22106731.7324  116171656.751 8  90523384.77645
       493.769         384.752
  23058185.735    23058185.5294   23058186.2144  121171590.895 7  94419453.96144
      3234.298        2520.245
 06  5 13 16  1 30.0000000  0 12G 3G 6G 7G 8G10G13G15G16G21G26G27G29
  23476131.842    23476131.2974   23476132.9954  123367928.578 7  96130870.45743
      2538.262        1977.863
  24887052.024    24887051.9414   24887053.6464  130782323.517 6 101908311.86242
     -3340.878       -2603.273
  22721673.797    22721673.2454   22721674.3824  119403201.142 7  93041474.68645
      -405.737        -316.165
  22547531.143    22547530.8984   22547532.0344  118488101.640 7  92328411.09145
      2799.908        2181.756
  21413263.226    21413262.7284   21413263.8564  112527452.091 8  87683742.57046
     -1410.751       -1099.290
  24751500.220    24751500.9774   24751501.1764  130069996.318 6 101353253.37543
     -3912.570       -3048.735
  23917004.802    23917004.3804   23917005.3894  125684723.652 7  97936166.66743
      3476.664        2709.059
  23779111.399    23779111.0174   23779111.3694  124960074.525 6  97371499.46943
     -2746.840       -2140.410
  22711736.260    22711735.6654   22711734.9004  119351014.367 8  93000793.40245
      2093.327        1631.161
  23795176.950    23795177.4284   23795179.7684  125044500.512 6  97437299.46242
      4060.839        3164.281
  22103954.551    22103954.4304   22103955.3314  116157066.567 8  90512015.79645
       477.936         372.415
  23039743.005    23039743.1704   23039743.8854  121074674.810 7  94343934.93344
      3225.741        2513.556
 06  5 13 16  2  0.0000000  0 12G 3G 6G 7G 8G10G13G15G16G21G26G27G29
  23461676.079    23461675.6644   23461677.2144  123291963.920 7  96071677.30443
      2524.972        1967.521
  24906134.432    24906134.2224   24906134.7534  130882603.072 6 101986451.88442
     -3345.127       -2606.541
  22724036.050    22724035.9034   22724036.8834  119415616.167 7  93051148.74145
      -422.743        -329.402
  22531581.363    22531581.1624   22531582.4034  118404285.214 7  92263099.61445
      2786.966        2171.677
  21421363.559    21421362.8194   21421364.0654  112570018.573 8  87716911.29546
     -1427.969       -1112.705
  24773841.493    24773841.2244   24773842.4754  130187396.439 6 101444733.91843
     -3914.915       -3050.562
  23897177.001    23897176.4864   23897177.3644  125580527.956 6  97854975.22443
      3468.806        2702.993
  23794820.314    23794820.4014   23794820.0114  125042626.797 6  97435825.88143
     -2757.759       -2148.914
  22699824.938    22699824.7424   22699824.1194  119288421.494 7  92952019.74045
      2078.654        1619.744
  23772008.532    23772008.7374   23772009.7904  124922747.028 6  97342426.58842
      4054.851        3159.671
  22101267.294    22101267.1544   22101267.8694  116142944.832 7  90501011.85945
       462.436         360.357
  23021349.642    23021349.4044   23021350.6724  120978016.276 7  94268616.57744
      3217.099        2506.835
 06  5 13 16  2 30.0000000  0 12G 3G 6G 7G 8G10G13G15G16G21G26G27G29
  23447297.985    23447297.6114   23447298.4454  123216405.908 6  96012801.02943
      2511.228        1956.786
  24925242.719    24925243.3014   24925244.6814  130983014.815 6 102064694.63942
     -3349.808       -2610.248
  22726494.992    22726494.8464   22726495.6834  119428537.829 7  93061217.59145
      -439.726        -342.655
  22515705.767    22515705.4014   22515706.9794  118320857.542 8  92198091.05245
      2773.958        2161.496
  21429563.512    21429562.6824   21429563.6934  112613109.024 8  87750488.30046
     -1445.432       -1126.302
  24796195.577    24796195.6824   24796196.3734  130304869.088 6 101536270.97543
     -3917.525       -3052.589
  23877393.781    23877393.4194   23877395.1744  125476570.330 6  97773969.30343
      3460.816        2696.735
  23810593.026    23810592.4214   23810592.3084  125125512.838 6  97500412.44443
     -2768.987       -2157.638
  22687998.654    22687998.3074   22687997.4254  119226272.634 7  92903592.07345
      2063.693        1608.084
  23748873.701    23748874.4414   23748876.7024  124801176.339 6  97247696.20042
      4049.127        3155.180
  22098668.681    22098668.1144   22098669.2074  116129288.565 7  90490370.65645
       447.025         348.336
  23003004.679    23003005.0464   23003005.5274  120881614.352 7  94193498.20644
      3208.656        2500.275
 06  5 13 16  3  0.0000000  0 12G 3G 6G 7G 8G10G13G15G16G21G26G27G29
  23432998.131    23432997.5664   23432998.6614  123141260.185 6  95954246.03043
      2498.035        1946.516
  24944375.438    24944375.8104   24944377.3574  131083559.880 6 102143041.34142
     -3353.700       -2613.243
  22729050.596    22729050.4684   22729051.5174  119441968.671 7  93071683.19745
      -456.068        -355.367
  22499904.878    22499904.7704   22499906.1434  118237824.133 8  92133389.69245
      2761.238        2151.634
  21437863.405    21437862.6404   21437863.4364  112656725.063 8  87784474.83446
     -1462.611       -1139.690
  24818563.516    24818564.3074   24818565.3464  130422415.042 6 101627865.13243
     -3919.301       -3053.995
  23857658.176    23857657.9544   23857659.4224  125372856.738 6  97693153.54143
      3453.026        2690.646
  23826429.390    23826429.0134   23826428.6104  125208733.239 6  97565259.51743
     -2779.408       -2165.778
  22676257.679    22676257.3994   22676256.2874  119164572.443 8  92855514.01145
      2049.200        1596.789
  23725775.544    23725775.8754   23725777.2364  124679794.482 6  97153112.97642
      4042.990        3150.423
  22096158.872    22096158.9274   22096159.8224  116116101.202 8  90480094.80645
       431.757         336.444
  22984709.877    22984709.7364   22984710.4844  120785474.242 7  94118583.85144
      3200.282        2493.738
 06  5 13 16  3 30.0000000  0 12G 3G 6G 7G 8G10G13G15G16G21G26G27G29
  23418777.285    23418776.1694   23418777.8314  123066529.960 6  95896014.74743
      2484.273        1935.809
  24963533.888    24963534.1944   24963535.2814  131184236.320 6 102221490.53442
     -3357.653       -2616.366
  22731703.644    22731703.3954   22731703.9054  119455908.959 7  93082545.76245
      -472.966        -368.539
  22484180.226    22484179.6944   22484180.8644  118155188.514 7  92068998.30845
      2747.980        2141.288
  21446263.169    21446262.4064   21446263.3664  112700865.772 8  87818870.07746
     -1480.016       -1153.259
  24840946.076    24840945.6754   24840947.1374  130540032.452 6 101719515.05043
     -3921.626       -3055.780
  23837968.573    23837968.8174   23837969.9704  125269390.717 6  97612530.68943
      3445.067        2684.481
  23842329.372    23842328.8654   23842328.5674  125292286.168 6  97630365.67743
     -2790.546       -2174.465
  22664602.209    22664602.0344   22664601.1704  119103323.889 7  92807787.88545
      2034.294        1585.178
  23702714.870    23702714.7684   23702716.0404  124558605.288 6  97058679.92942
      4036.619        3145.415
  22093738.971    22093738.9524   22093739.9424  116103383.986 7  90470185.27245
       416.218         324.332
  22966465.542    22966465.3324   22966466.3944  120689599.156 7  94043876.02544
      3191.659        2487.015
 06  5 13 16  4  0.0000000  0 12G 3G 6G 7G 8G10G13G15G16G21G26G27G29
  23404637.018    23404635.8154   23404637.4014  122992222.251 7  95838112.73643
      2469.295        1924.102
  24982717.642    24982717.0974   24982719.8174  131285045.547 6 102300042.99342
     -3363.125       -2620.574
  22734454.389    22734453.6484   22734454.8784  119470362.587 7  93093808.33145
      -490.636        -382.304
  22468532.027    22468531.6154   22468532.7414  118072957.508 7  92004922.21145
      2733.941        2130.354
  21454763.268    21454762.6574   21454763.5704  112745534.512 8  87853676.90546
     -1498.212       -1167.441
  24863341.903    24863341.3404   24863342.7954  130657723.419 6 101811222.24243
     -3924.606       -3058.145
  23818329.179    23818328.3684   23818329.9504  125166179.768 7  97532106.60543
      3435.542        2677.075
  23858292.102    23858292.2844   23858291.0414  125376173.479 6  97695732.39243
     -2802.240       -2183.535
  22653034.240    22653033.9914   22653032.9894  119042533.813 8  92760419.01545
      2018.291        1572.693
  23679691.217    23679691.1644   23679692.7134  124437615.822 6  96964402.54942
      4029.247        3139.651
  22091409.263    22091409.2494   22091410.0564  116091141.538 8  90460645.71245
       399.821         311.552
  22948272.742    22948273.0514   22948273.1224  120593995.827 7  93969379.97644
      3181.819        2479.332
 06  5 13 16  4 30.0000000  0 12G 3G 6G 7G 8G10G13G15G16G21G26G27G29
  23390576.863    23390576.2174   23390576.7924  122918335.510 6  95780538.76543
      2455.439        1913.333
  25001924.680    25001925.1034   25001927.5604  131385981.597 6 102378694.49242
     -3367.038       -2623.671
  22737301.043    22737300.7754   22737301.8454  119485325.369 7  93105467.68245
      -507.768        -395.684
  22452960.759    22452960.2734   22452961.4264  117991129.604 8  91941160.22245
      2720.363        2119.768
  21463362.989    21463362.2044   21463363.1484  112790725.594 8  87888890.78946
     -1515.439       -1180.867
  24885750.722    24885750.7244   24885751.3054  130775481.638 6 101902981.84643
     -3926.909       -3059.914
  23798736.919    23798736.5604   23798737.3754  125063222.735 6  97451880.35643
      3427.323        2670.635
  23874318.556    23874317.5124   23874317.0974  125460388.489 6  97761354.45343
     -2813.083       -2192.047
  22641553.435    22641553.0064   22641552.0324  118982200.520 8  92713406.10045
      2003.026        1560.778
  23656705.205    23656705.7064   23656706.6184  124316825.224 6  96870280.10343
      4022.536        3134.430
  22089169.556    22089169.2474   22089170.0714  116079369.927 8  90451473.03145
       384.101         299.291
  22930131.626    22930131.5434   22930132.0434  120498662.537 7  93895094.34644
      3172.888        2472.391
 06  5 13 16  5  0.0000000  0 12G 3G 6G 7G 8G10G13G15G16G21G26G27G29
  23376596.595    23376596.8164   23376596.9654  122844870.461 7  95723293.35143
      2441.592        1902.574
  25021155.515    25021156.0854   25021157.1924  131487039.851 6 102457441.10842
     -3371.014       -2626.799
  22740244.649    22740244.6584   22740245.7744  119500794.833 7  93117521.80845
      -524.321        -408.557
  22437466.151    22437465.8994   22437466.7534  117909705.832 7  91877713.14745
      2707.198        2109.510
  21472061.302    21472060.4124   21472061.4744  112836435.698 7  87924509.10646
     -1532.500       -1194.156
  24908170.474    24908170.8594   24908171.2544  130893302.991 6 101994790.65543
     -3928.569       -3061.210
  23779193.346    23779192.8484   23779194.1454  124960520.865 7  97371852.93043
      3418.966        2664.150
  23890405.756    23890405.1194   23890404.7234  125544927.238 6  97827228.78843
     -2823.477       -2200.098
  22630159.389    22630158.9444   22630158.0254  118922323.561 8  92666748.72945
      1988.036        1549.133
  23633757.401    23633758.1204   23633758.9194  124196234.467 6  96776313.35543
      4016.174        3129.487
  22087018.729    22087018.7714   22087019.2324  116068068.071 7  90442666.38145
       368.645         287.259
  22912041.462    22912041.8074   22912042.2734  120403599.853 7  93821019.56444
      3163.875        2465.365
 06  5 13 16  5 30.0000000  0 12G 3G 6G 7G 8G10G13G15G16G21G26G27G29
  23362697.407    23362697.5994   23362698.4344  122771830.833 7  95666379.46343
      2427.438        1891.495
  25040410.644    25040409.3164   25040411.9984  131588219.236 6 102536282.18342
     -3374.841       -2629.711
  22743284.975    22743284.7454   22743286.1014  119516771.648 7  93129971.27245
      -541.141        -421.654
  22422049.422    22422048.9634   22422050.0834  117828689.660 7  91814583.68045
      2693.676        2098.966
  21480858.233    21480857.4194   21480858.3984  112882664.638 8  87960531.69046
     -1549.695       -1207.546
  24930603.338    24930603.6974   24930605.0964  131011186.655 6 102086648.06643
     -3930.395       -3062.650
  23759698.940    23759699.1194   23759699.8964  124858078.198 6  97292027.51743
      3410.390        2657.480
  23906554.322    23906553.9044   23906553.5174  125629788.020 6  97893354.06243
     -2834.023       -2208.343
  22618852.247    22618851.9904   22618851.0024  118862906.329 8  92620449.56045
      1972.763        1537.231
  23610848.407    23610848.8604   23610850.9514  124075847.816 6  96682505.62743
      4009.372        3124.192
  22084957.844    22084957.5484   22084958.3584  116057237.554 8  90434227.01345
       353.047         275.120
  22894003.716    22894004.1634   22894004.7174  120308811.097 7  93747158.22844
      3154.812        2458.306
 06  5 13 16  6  0.0000000  0 12G 3G 6G 7G 8G10G13G15G16G21G26G27G29
  23348880.602    23348880.6524   23348880.8374  122699220.457 7  95609800.03543
      2412.887        1880.161
  25059685.983    25059686.8214   25059687.6504  131689518.137 6 102615216.28342
     -3379.034       -2633.038
  22746422.189    22746421.7764   22746423.0864  119533256.974 7  93142817.02145
      -558.272        -435.031
  22406710.864    22406710.3964   22406711.3714  117748085.227 7  91751775.04145
      2679.547        2087.947
  21489753.887    21489753.2544   21489754.3584  112929412.314 7  87996958.45146
     -1567.260       -1221.244
  24953047.301    24953047.3984   24953048.6474  131129131.029 6 102178552.71943
     -3932.750       -3064.494
  23740255.078    23740254.3024   23740256.0704  124755899.000 6  97212407.39443
      3401.195        2650.261
  23922762.967    23922763.6754   23922762.7654  125714970.202 6  97959729.76543
     -2845.138       -2216.995
  22607633.687    22607633.5324   22607632.4084  118803952.746 8  92574511.71245
      1957.018        1524.955
  23587978.947    23587979.6774   23587981.6384  123955669.716 6  96588860.39943
      4002.144        3118.567
  22082986.810    22082986.5224   22082987.4954  116046880.336 8  90426156.45645
       337.044         262.624
  22876019.061    22876019.3364   22876019.6674  120214300.385 7  93673513.53444
      3145.382        2450.944
 06  5 13 16  6 30.0000000  0 12G 3G 6G 7G 8G10G13G15G16G21G26G27G29
  23335145.895    23335145.1194   23335145.2534  122627044.449 7  95553559.04043
      2398.534        1868.985
  25078985.546    25078985.5544   25078986.4684  131790936.925 6 102694243.79642
     -3382.746       -2635.933
  22749656.219    22749655.8054   22749657.2154  119550252.629 7  93156060.40345
      -575.301        -448.284
  22391451.651    22391451.3884   22391452.1034  117667897.615 7  91689291.18545
      2665.777        2077.238
  21498748.509    21498747.9044   21498748.9824  112976680.014 8  88033790.40546
     -1584.400       -1234.601
  24975503.123    24975503.2434   24975504.0714  131247137.000 6 102270505.40743
     -3934.701       -3065.983
  23720862.359    23720861.3494   23720862.6694  124653988.700 6  97132996.80443
      3392.344        2643.386
  23939034.050    23939034.3304   23939033.6854  125800473.539 6  98026355.70843
     -2855.749       -2225.271
  22596504.284    22596503.9924   22596502.9654  118745467.032 8  92528938.44245
      1941.564        1512.894
  23565151.463    23565151.2554   23565152.7714  123835705.862 6  96495382.15143
      3995.170        3113.135
  22081106.631    22081106.4094   22081106.9114  116036999.080 7  90418456.77645
       321.255         250.322
  22858088.810    22858088.4164   22858089.3044  120120072.461 7  93600089.18244
      3136.060        2443.679
 06  5 13 16  7  0.0000000  0 12G 3G 6G 7G 8G10G13G15G16G21G26G27G29
  23321494.291    23321494.1984   23321494.2544  122555305.651 7  95497658.68643
      2383.863        1857.568
  25098307.483    25098307.6004   25098309.1214  131892473.703 6 102773363.37342
     -3386.540       -2638.846
  22752987.550    22752987.0624   22752988.2364  119567758.492 7  93169701.33045
      -592.263        -461.504
  22376272.187    22376271.9144   22376272.5324  117588129.700 7  91627134.36645
      2651.790        2066.333
  21507842.086    21507841.3794   21507842.6954  113024466.497 7  88071026.58746
     -1601.717       -1248.095
  24997970.550    24997970.5034   24997971.5104  131365202.447 6 102362504.38343
     -3936.781       -3067.617
  23701521.003    23701520.4454   23701521.8384  124552350.675 7  97053798.39343
      3382.983        2636.130
  23955366.248    23955365.6354   23955365.5254  125886295.888 6  98093230.24143
     -2866.181       -2233.383
  22585464.552    22585464.1614   22585463.2004  118687451.769 8  92483731.73545
      1925.803        1500.627
  23542363.819    23542363.9514   23542365.4074  123715959.534 6  96402073.39243
      3987.896        3107.435
  22079317.030    22079316.9454   22079317.4424  116027594.637 7  90411128.63745
       305.330         237.922
  22840211.377    22840211.4344   22840212.4834  120026130.086 7  93526887.32544
      3126.460        2436.201
 06  5 13 16  7 30.0000000  0 12G 3G 6G 7G 8G10G13G15G16G21G26G27G29
  23307927.124    23307927.0084   23307927.1194  122484009.492 7  95442103.23643
      2369.068        1846.022
  25117651.732    25117652.4754   25117653.9294  131994128.838 6 102852575.17042
     -3390.895       -2642.260
  22756416.626    22756416.0444   22756417.3224  119585777.155 7  93183741.85245
      -609.415        -474.874
  22361173.930    22361173.2984   22361174.6064  117508786.771 7  91565308.70545
      2637.522        2055.193
  21517034.606    21517033.8544   21517035.1104  113072773.094 8  88108668.03646
     -1619.032       -1261.571
  25020448.492    25020449.9224   25020450.6014  131483328.408 6 102454550.55642
     -3938.733       -3069.127
  23682232.342    23682232.0584   23682233.2184  124450990.655 6  96974816.60243
      3373.850        2628.960
  23971758.435    23971758.5204   23971757.7694  125972437.915 6  98160353.88543
     -2876.851       -2241.671
  22574515.181    22574514.9424   22574513.5714  118629912.267 7  92438895.77545
      1909.829        1488.179
  23519619.338    23519620.0284   23519621.0164  123596436.722 6  96308938.80343
      3980.339        3101.603
  22077618.742    22077618.6604   22077619.0944  116018670.249 8  90404174.57145
       289.244         225.383
  22822389.823    22822390.0984   22822391.1884  119932478.762 7  93453912.31544
      3116.683        2428.577
 06  5 13 16  8  0.0000000  0 12G 3G 6G 7G 8G10G13G15G16G21G26G27G29
  23294444.285    23294443.8524   23294444.2194  122413155.716 7  95386892.53344
      2354.242        1834.481
  25137017.728    25137018.1294   25137018.1374  132095897.185 6 102931875.36442
     -3394.483       -2645.099
  22759942.200    22759941.7444   22759942.6514  119604304.914 7  93198179.07045
      -626.307        -488.035
  22346156.027    22346155.7774   22346156.9854  117429868.826 7  91503814.21545
      2623.273        2044.082
  21526325.340    21526324.6344   21526325.7594  113121595.565 7  88146711.50346
     -1636.222       -1274.989
  25042938.102    25042939.2314   25042939.0724  131601509.724 6 102546639.84642
     -3940.616       -3070.644
  23662997.356    23662997.1464   23662998.7024  124349908.926 6  96896051.66043
      3364.303        2621.515
  23988209.407    23988209.8474   23988209.7384  126058894.234 6  98227722.43443
     -2887.476       -2250.007
  22563656.037    22563655.6944   22563654.5084  118572847.677 8  92394429.87145
      1893.985        1475.819
  23496918.275    23496917.4754   23496919.3064  123477137.678 6  96215978.56143
      3972.581        3095.512
  22076011.386    22076011.2164   22076011.8224  116010223.315 7  90397592.56645
       273.450         213.078
  22804624.282    22804624.2114   22804624.7504  119839117.697 7  93381163.46344
      3106.857        2420.939
 06  5 13 16  8 30.0000000  0 12G 3G 6G 7G 8G10G13G15G16G21G26G27G29
  23281044.924    23281044.8984   23281045.1394  122342743.705 7  95332026.03644
      2339.347        1822.899
  25156403.146    25156403.0254   25156405.1554  132197772.370 6 103011258.60242
     -3397.865       -2647.602
  22763564.035    22763563.8084   22763564.6694  119623338.411 7  93213010.35145
      -643.038        -501.061
  22331219.426    22331218.9664   22331220.0784  117351375.272 7  91442650.41645
      2609.158        2033.128
  21535713.260    21535712.5644   21535713.6274  113170929.077 8  88185153.19646
     -1653.052       -1288.087
  25065436.201    25065435.9194   25065437.7144  131719740.769 6 102638767.91442
     -3941.889       -3071.545
  23643814.880    23643814.4544   23643816.1114  124249105.278 6  96817503.37743
      3355.236        2614.474
  24004720.450    24004719.9824   24004720.4004  126145658.842 6  98295331.16343
     -2897.534       -2257.823
  22552887.308    22552886.7994   22552885.9524  118516256.927 8  92350333.14545
      1878.220        1463.558
  23474257.272    23474258.3824   23474259.7394  123358062.245 6  96123192.56143
      3965.201        3089.766
  22074494.233    22074494.0314   22074494.4874  116002250.860 8  90391380.26745
       257.670         200.794
  22786913.555    22786913.3934   22786913.9964  119746046.467 7  93308640.45444
      3097.384        2413.552
 06  5 13 16  9  0.0000000  0 12G 3G 6G 7G 8G10G13G15G16G21G26G27G29
  23267731.019    23267730.7844   23267731.4564  122272779.050 7  95277508.14544
      2324.353        1811.198
  25175809.709    25175810.6634   25175811.5634  132299755.977 6 103090726.49641
     -3401.467       -2650.459
  22767283.042    22767282.3144   22767283.9914  119642880.106 7  93228237.61045
      -660.041        -514.317
  22316364.281    22316363.9234   22316365.1604  117273311.502 7  91381821.51145
      2594.640        2021.803
  21545198.429    21545198.0194   21545199.1194  113220775.186 8  88223994.33346
     -1670.382       -1301.597
  25087944.294    25087945.6754   25087947.1784  131838022.522 6 102730935.47542
     -3943.923       -3073.205
  23624686.730    23624685.6654   23624688.0514  124148585.849 6  96739176.60143
      3345.656        2607.014
  24021290.765    24021289.7524   24021289.4114  126232732.764 6  98363180.93643
     -2907.776       -2265.805
  22542209.510    22542209.1404   22542208.4654  118460145.641 8  92306610.07745
      1862.044        1450.954
  23451642.606    23451642.6274   23451643.9034  123239216.577 6  96030585.60643
      3957.413        3083.693
  22073068.008    22073068.0524   22073068.5594  115994756.484 8  90385540.49045
       241.539         188.204
  22769258.792    22769258.9434   22769259.4054  119653270.509 7  93236347.49945
      3087.156        2405.591
 06  5 13 16  9 30.0000000  0 12G 3G 6G 7G 8G10G13G15G16G21G26G27G29
  23254502.890    23254502.6824   23254503.4724  122203264.283 7  95223340.81044
      2309.275        1799.450
  25195237.725    25195237.3484   25195239.0704  132401844.795 5 103170276.27242
     -3405.336       -2653.547
  22771098.200    22771097.6504   22771098.9324  119662929.271 7  93243860.33945
      -677.146        -527.654
  22301591.609    22301591.4774   22301592.0164  117195680.280 7  91321329.65645
      2580.073        2010.444
  21554781.080    21554780.5224   21554781.7924  113271132.248 8  88263233.60546
     -1687.522       -1314.959
  25110462.763    25110462.3544   25110464.4374  131956352.611 6 102823140.71042
     -3945.601       -3074.491
  23605613.005    23605612.7064   23605614.2004  124048353.588 6  96661073.59743
      3335.891        2599.369
  24037918.344    24037918.2514   24037917.6924  126320113.466 6  98431269.74543
     -2918.216       -2273.963
  22531623.615    22531623.1024   22531622.4004  118404515.284 8  92263261.75345
      1845.917        1438.370
  23429071.271    23429071.4904   23429072.5784  123120603.856 6  95938160.15043
      3949.546        3077.561
  22071732.964    22071732.7614   22071733.5894  115987740.498 8  90380073.48445
       225.448         175.683
  22751660.778    22751660.8684   22751661.1634  119560792.031 7  93164286.33045
      3077.237        2397.853
 06  5 13 16 10  0.0000000  0 12G 3G 6G 7G 8G10G13G15G16G21G26G27G29
  23241360.882    23241360.3324   23241361.3324  122134200.672 7  95169525.02644
      2294.531        1787.943
  25214683.012    25214683.2294   25214684.9624  132504035.879 5 103249905.80141
     -3407.990       -2655.652
  22775009.423    22775009.2914   22775010.4434  119683484.320 7  93259877.24545
      -693.515        -540.398
  22286901.513    22286901.2214   22286902.2154  117118482.930 7  91261175.88545
      2565.881        1999.372
  21564460.525    21564459.8134   21564461.0084  113321997.907 8  88302869.19546
     -1704.135       -1327.900
  25132988.439    25132989.0714   25132990.9864  132074728.075 6 102915381.25042
     -3946.855       -3075.441
  23586594.478    23586594.1174   23586595.2454  123948410.139 6  96583195.59543
      3326.498        2592.070
  24054604.498    24054604.1564   24054603.3204  126407797.310 6  98499594.81743
     -2927.829       -2281.427
  22521129.065    22521128.4644   22521127.7744  118349366.438 8  92220288.67045
      1830.168        1426.109
  23406545.043    23406544.6994   23406546.2004  123002225.900 6  95845917.63343
      3941.823        3071.569
  22070489.040    22070488.5784   22070489.1904  115981202.124 7  90374978.64245
       209.883         163.548
  22734119.689    22734119.6574   22734120.1294  119468612.411 7  93092458.04444
      3067.595        2390.332
 06  5 13 16 10 30.0000000  0 11G 3G 7G 8G10G13G15G16G21G26G27G29
  23228303.692    23228303.4104   23228303.7104  122065585.868 7  95116058.96244
      2279.358        1776.133
  22779016.289    22779016.2454   22779017.3934  119704539.704 7  93276284.03945
      -710.279        -553.460
  22272293.609    22272293.0674   22272294.1394  117041717.334 7  91201358.55245
      2551.430        1988.134
  21574235.500    21574234.8514   21574236.0664  113373365.607 8  88342896.00046
     -1720.724       -1340.820
  25155522.589    25155521.4834   25155522.5194  132193141.910 5 103007651.75842
     -3948.029       -3076.384
  23567630.633    23567630.0294   23567631.6464  123848753.703 6  96505541.22843
      3316.764        2584.479
  24071345.682    24071345.8434   24071345.9794  126495776.878 6  98568150.29443
     -2937.704       -2289.138
  22510725.530    22510725.2344   22510724.4974  118294696.528 8  92177688.74545
      1814.063        1413.551
  23384062.926    23384062.9724   23384063.8434  122884080.876 6  95753856.58743
      3934.137        3065.564
  22069334.626    22069334.4204   22069335.0944  115975136.717 7  90370252.33445
       194.126         151.270
  22716634.820    22716634.9904   22716635.6654  119376729.080 7  93020860.61244
      3057.624        2382.554
 06  5 13 16 11  0.0000000  0 11G 3G 7G 8G10G13G15G16G21G26G27G29
  23215332.848    23215333.1344   23215333.6984  121997427.590 7  95062948.61044
      2264.421        1764.461
  22783119.412    22783118.8774   22783120.2224  119726100.415 7  93293084.56445
      -727.363        -566.777
  22257769.051    22257768.9144   22257769.9884  116965391.250 8  91141883.69445
      2536.817        1976.727
  21584106.814    21584106.0074   21584107.2384  113425239.280 7  88383317.07146
     -1737.611       -1353.991
  25178062.573    25178063.8004   25178064.4724  132311597.147 6 103099954.48042
     -3949.101       -3077.167
  23548723.162    23548722.5174   23548723.5394  123749392.759 7  96428117.12643
      3307.081        2576.932
  24088145.012    24088144.2994   24088144.1524  126584055.252 6  98636938.60443
     -2947.551       -2296.793
  22500414.933    22500414.6134   22500413.5364  118240513.270 7  92135468.01845
      1797.976        1401.027
  23361626.201    23361626.3914   23361627.2914  122766177.643 6  95661983.95743
      3926.016        3059.221
  22068271.729    22068271.2644   22068271.7774  115969550.033 7  90365899.08745
       178.146         138.817
  22699208.071    22699207.9864   22699208.5244  119285150.002 7  92949500.28244
      3047.538        2374.701
 06  5 13 16 11 30.0000000  0 11G 3G 7G 8G10G13G15G16G21G26G27G29
  23202450.862    23202450.3904   23202451.0714  121929727.863 7  95010195.61644
      2248.572        1752.135
  22787318.209    22787317.8394   22787318.7744  119748165.077 7  93310277.73245
      -744.323        -579.991
  22243328.762    22243328.4154   22243329.6454  116889506.770 7  91082752.94245
      2521.657        1964.931
  21594073.997    21594073.2704   21594074.3194  113477616.564 8  88424130.55546
     -1754.686       -1367.284
  25200613.016    25200612.8094   25200613.2724  132430091.321 6 103192287.57442
     -3950.951       -3078.675
  23529871.633    23529871.4164   23529872.7374  123650329.721 7  96350925.14443
      3296.710        2568.850
  24104999.823    24104999.5264   24105000.2474  126672629.480 6  98705957.46042
     -2957.779       -2304.763
  22490196.629    22490196.4454   22490195.7064  118186817.015 8  92093626.77345
      1781.281        1388.013
  23339236.598    23339236.2934   23339237.8024  122648518.481 6  95570301.50743
      3917.443        3052.573
  22067299.264    22067299.2334   22067299.9654  115964441.703 8  90361918.58045
       161.851         126.120
  22681838.980    22681838.4224   22681839.6554  119193877.023 7  92878378.52144
      3036.780        2366.322
 06  5 13 16 12  0.0000000  0 11G 3G 7G 8G10G13G15G16G21G26G27G29
  23189656.071    23189656.4864   23189657.2934  121862493.883 7  94957805.48744
      2233.113        1740.064
  22791613.172    22791612.7754   22791614.4374  119770737.842 7  93327866.81945
      -761.448        -593.343
  22228974.102    22228973.5604   22228974.2254  116814071.241 7  91023972.01745
      2506.721        1953.282
  21604137.208    21604136.7004   21604137.6744  113530500.802 8  88465339.07046
     -1771.354       -1380.273
  25223169.183    25223168.0084   25223170.4584  132548626.794 6 103284652.79742
     -3952.120       -3079.539
  23511078.995    23511078.4384   23511079.3654  123551572.334 6  96273971.33643
      3286.629        2561.012
  24121911.937    24121911.6094   24121911.7614  126761501.778 6  98775208.57443
     -2967.814       -2312.617
  22480072.798    22480072.4844   22480071.7044  118133616.000 8  92052171.43745
      1764.859        1375.208
  23316894.828    23316894.7934   23316895.6104  122531111.465 6  95478815.55443
      3909.055        3046.007
  22066419.503    22066419.2244   22066419.9374  115959816.754 7  90358314.73045
       145.699         113.532
  22664529.694    22664530.0574   22664530.7114  119102917.352 7  92807500.91044
      3026.390        2358.218
 06  5 13 16 12 30.0000000  0 11G 3G 7G 8G10G13G15G16G21G26G27G29
  23176951.402    23176951.1974   23176951.8724  121795728.520 7  94905780.53644
      2217.667        1728.043
  22796005.641    22796005.2784   22796006.3994  119793818.557 7  93345851.79045
      -777.675        -605.981
  22214704.781    22214704.5684   22214705.5544  116739087.455 7  90965543.09445
      2491.913        1941.753
  21614297.037    21614296.3864   21614297.5274  113583890.702 8  88506941.60446
     -1788.146       -1393.361
  25245732.056    25245733.3104   25245734.3104  132667201.709 6 103377048.72742
     -3953.226       -3080.458
  23492344.823    23492344.5314   23492345.4464  123453123.840 7  96197258.24943
      3276.530        2553.087
  24138880.125    24138879.9564   24138878.9484  126850669.709 6  98844690.04443
     -2977.219       -2319.923
  22470043.537    22470043.1884   22470042.6044  118080912.274 8  92011103.60545
      1748.561        1362.524
  23294601.526    23294601.1684   23294602.9714  122413959.787 6  95387528.56944
      3900.788        3039.562
  22065631.277    22065630.9684   22065631.7744  115955675.648 8  90355087.90445
       130.028         101.327
  22647280.781    22647280.9984   22647281.5664  119012273.557 7  92736869.44244
      3016.162        2350.266
 06  5 13 16 13  0.0000000  0 11G 3G 7G 8G10G13G15G16G21G26G27G29
  23164334.631    23164334.4864   23164335.5004  121729427.197 7  94854117.14144
      2202.208        1716.016
  22800493.073    22800492.7654   22800493.8544  119817399.373 7  93364226.49545
      -794.518        -619.107
  22200521.356    22200520.7164   22200521.6004  116664550.735 7  90907462.53645
      2477.120        1930.222
  21624551.389    21624550.7884   21624551.8564  113637777.498 8  88548931.32446
     -1804.499       -1406.105
  25268303.101    25268303.0434   25268303.8834  132785807.163 6 103469468.40142
     -3953.992       -3081.045
  23473668.836    23473668.1514   23473670.0454  123354980.212 7  96120782.67943
      3266.354        2545.201
  24155903.111    24155903.1074   24155902.2554  126940123.969 6  98914394.62443
     -2986.539       -2327.198
  22460108.045    22460107.7784   22460107.0324  118028700.295 8  91970418.91345
      1732.085        1349.681
  23272356.186    23272356.3964   23272357.8414  122297059.585 6  95296437.55044
      3892.442        3033.074
  22064934.115    22064933.9314   22064934.5964  115952011.853 7  90352232.98945
       114.091          88.903
  22630091.364    22630091.1684   22630091.9924  118921940.845 7  92666480.33244
      3005.821        2342.184
 06  5 13 16 13 30.0000000  0 11G 3G 7G 8G10G13G15G16G21G26G27G29
  23151807.346    23151807.1324   23151807.6764  121663595.417 7  94802819.63944
      2186.062        1703.397
  22805075.903    22805075.7734   22805076.8684  119841482.865 7  93382992.82545
      -811.664        -632.483
  22186423.355    22186423.1664   22186424.0994  116590466.940 7  90849734.90645
      2461.413        1917.972
  21634900.682    21634899.7654   21634900.9454  113692162.713 8  88591309.42146
     -1821.608       -1419.444
  25290879.849    25290879.2694   25290880.8824  132904444.407 6 103561912.99141
     -3955.472       -3082.166
  23455052.124    23455051.1154   23455052.1084  123257147.680 7  96044549.49343
      3255.492        2536.762
  24172979.928    24172979.4914   24172980.1494  127029865.412 6  98984322.99843
     -2996.371       -2334.852
  22450267.151    22450266.8844   22450265.9814  117976985.751 8  91930121.86845
      1715.110        1336.446
  23250159.349    23250160.0544   23250161.0974  122180417.421 7  95205547.60844
      3883.298        3025.939
  22064328.423    22064328.1994   22064328.8214  115948828.564 8  90349752.51145
        97.678          76.110
  22612961.543    22612961.6094   22612962.5134  118831925.223 7  92596338.32945
      2994.714        2333.520
 06  5 13 16 14  0.0000000  0 11G 3G 7G 8G10G13G15G16G21G26G27G29
  23139371.611    23139371.2614   23139371.7614  121598244.422 7  94751896.76444
      2170.161        1691.035
  22809755.625    22809755.5134   22809757.0964  119866077.217 7  93402157.23545
      -828.771        -645.799
  22172414.091    22172413.7814   22172414.7514  116516847.755 7  90792369.30945
      2445.859        1905.848
  21645345.807    21645345.1444   21645346.2644  113747053.868 8  88634081.75546
     -1838.371       -1432.509
  25313463.111    25313462.4144   25313463.5834  133023120.250 5 103654387.65641
     -3956.592       -3083.087
  23436496.429    23436495.8084   23436496.9784  123159638.296 7  95968568.14443
      3244.554        2528.219
  24190112.710    24190112.7014   24190113.3714  127119900.464 6  99054480.13843
     -3006.352       -2342.621
  22440522.912    22440522.4604   22440521.5034  117925779.317 7  91890220.73345
      1698.089        1323.185
  23228014.505    23228014.5844   23228016.0694  122064045.068 6  95114867.86744
      3874.162        3018.829
  22063815.827    22063815.5604   22063815.9094  115946134.918 8  90347653.56145
        81.283          63.333
  22595894.784    22595894.9154   22595895.4514  118742237.861 7  92526452.12744
      2983.866        2325.068
 06  5 13 16 14 30.0000000  0 11G 3G 7G 8G10G13G15G16G21G26G27G29
  23127026.046    23127025.5854   23127026.6764  121533367.696 7  94701343.42444
      2154.809        1679.068
  22814531.615    22814531.3074   22814532.6844  119891172.514 7  93421711.96245
      -844.600        -658.149
  22158492.050    22158491.6284   22158492.6244  116443686.280 8  90735360.38845
      2431.167        1894.403
  21655885.638    21655884.9524   21655886.0494  113802440.381 8  88677240.08246
     -1854.418       -1445.007
  25336049.677    25336049.5904   25336051.3214  133141823.355 5 103746883.49341
     -3957.237       -3083.570
  23418001.344    23418001.1864   23418002.0694  123062446.007 7  95892833.87943
      3234.616        2520.468
  24207299.475    24207299.4174   24207300.4874  127210217.655 6  99124857.14443
     -3015.003       -2349.359
  22430873.775    22430873.5994   22430872.5504  117875073.662 8  91850709.80145
      1681.886        1310.557
  23205919.780    23205919.9974   23205920.9524  121947936.581 6  95024393.74244
      3865.973        3012.419
  22063394.859    22063394.4954   22063395.0874  115943921.953 7  90345929.16445
        65.833          51.288
  22578889.158    22578888.9644   22578889.3284  118652872.004 7  92456816.44644
      2973.560        2317.035
 06  5 13 16 15  0.0000000  0 10G 3G 7G 8G10G15G16G21G26G27G29
  23114770.446    23114770.0104   23114770.9864  121468964.051 7  94651158.72444
      2138.383        1666.275
  22819402.307    22819401.6304   22819402.6304  119916764.649 7  93441653.90545
      -861.874        -671.597
  22144656.393    22144656.2464   22144657.0614  116370981.346 8  90678707.20245
      2415.461        1882.158
  21666518.450    21666517.8034   21666518.8524  113858316.560 8  88720779.95446
     -1871.129       -1458.033
  23399566.683    23399566.2254   23399567.1724  122965569.949 6  95817345.93443
      3223.319        2511.723
  24224538.837    24224538.3484   24224539.2964  127300810.640 6  99195449.05943
     -3024.684       -2356.912
  22421319.718    22421319.6214   22421318.5094  117824867.150 8  91811587.81945
      1664.682        1297.155
  23183875.240    23183875.5274   23183876.4274  121832091.646 7  94934124.99244
      3856.638        3005.143
  22063064.415    22063064.1234   22063064.8714  115942186.388 8  90344576.76345
        49.346          38.443
  22561944.238    22561943.9874   22561944.7644  118563826.348 7  92387430.25744
      2962.307        2308.291
 06  5 13 16 15 30.0000000  0 10G 3G 7G 8G10G15G16G21G26G27G29
  23102607.424    23102607.2534   23102607.3144  121405046.272 7  94601352.66444
      2122.427        1653.867
  22824368.135    22824367.9264   22824368.7604  119942863.291 7  93461990.50445
      -878.251        -684.357
  22130910.606    22130910.2944   22130911.1404  116298745.938 8  90622419.88745
      2399.964        1870.111
  21677246.170    21677245.6864   21677246.7224  113914691.442 7  88764708.43046
     -1887.585       -1470.835
  23381194.323    23381193.6744   23381194.8944  122869024.101 6  95742115.42043
      3212.530        2503.254
  24241832.965    24241832.1784   24241832.5244  127391687.348 6  99266262.06343
     -3033.980       -2364.123
  22411863.346    22411863.0274   22411861.9614  117775172.248 8  91772864.48145
      1647.887        1284.069
  23161883.598    23161883.7304   23161884.9954  121716523.747 6  94844072.05644
      3847.552        2998.088
  22062827.103    22062826.8984   22062827.6674  115940938.764 7  90343604.56645
        33.471          26.087
  22545062.534    22545062.6934   22545063.0284  118475113.889 7  92318303.69244
      2951.549        2299.906
 06  5 13 16 16  0.0000000  0 10G 3G 7G 8G10G15G16G21G26G27G29
  23090535.033    23090534.8504   23090535.4544  121341605.876 7  94551918.51344
      2106.615        1641.501
  22829428.737    22829428.2164   22829429.5124  119969457.005 7  93482712.89645
      -894.738        -697.203
  22117252.505    22117252.2374   22117252.9664  116226971.964 8  90566492.12345
      2384.758        1858.250
  21688066.838    21688066.0234   21688067.0044  113971552.781 7  88809015.95846
     -1903.444       -1483.202
  23362883.265    23362882.6714   23362884.0494  122772800.669 7  95667136.15643
      3202.119        2495.152
  24259177.621    24259177.1404   24259177.1444  127482835.006 6  99337286.19943
     -3042.758       -2370.986
  22402502.553    22402502.1494   22402501.0414  117725980.674 8  91734533.40145
      1631.325        1271.168
  23139943.362    23139943.0464   23139944.0144  121601225.589 6  94754229.34344
      3838.697        2991.200
  22062680.321    22062680.1914   22062681.0704  115940168.759 7  90343004.55145
        17.723          13.814
  22528243.099    22528243.1114   22528243.8974  118386726.531 7  92249430.45544
      2940.850        2291.580
 06  5 13 16 16 30.0000000  0 10G 3G 7G 8G10G15G16G21G26G27G29
  23078553.642    23078553.5924   23078554.6824  121278643.694 7  94502857.05944
      2090.224        1628.726
  22834582.805    22834582.5944   22834583.9284  119996543.285 7  93503819.08445
      -911.703        -710.427
  22103682.300    22103681.9364   22103682.9844  116155660.064 8  90510924.41645
      2368.664        1845.712
  21698978.823    21698978.1044   21698979.5484  114028897.143 8  88853699.86646
     -1920.194       -1496.262
  23344634.405    23344633.9214   23344634.2674  122676900.836 6  95592409.10343
      3190.547        2486.129
  24276572.855    24276572.9844   24276573.1744  127574249.458 6  99408518.18143
     -3052.129       -2378.269
  22393237.446    22393237.0164   22393235.8284  117677292.245 8  91696594.36645
      1613.769        1257.473
  23118054.640    23118054.5814   23118055.1314  121486198.648 7  94664597.97444
      3828.990        2983.610
  22062624.683    22062624.4534   22062624.9484  115939874.595 7  90342775.33145
         1.166           0.904
  22511485.606    22511485.4444   22511485.9404  118298664.810 7  92180810.96844
      2929.356        2282.623
 06  5 13 16 17  0.0000000  0 10G 3G 7G 8G10G15G16G21G26G27G29
  23066662.906    23066662.6804   23066663.5464  121216158.132 7  94454167.00644
      2074.710        1616.675
  22839830.305    22839829.9884   22839831.2044  120024117.511 7  93525305.48145
      -927.517        -722.746
  22090199.880    22090199.3374   22090200.3614  116084808.870 8  90455715.70145
      2353.825        1834.158
  21709982.086    21709981.4594   21709982.5824  114086718.863 8  88898755.73746
     -1935.455       -1508.144
  23326447.074    23326446.2094   23326446.8394  122581323.506 6  95517933.27143
      3180.271        2478.129
  24294018.079    24294018.3384   24294017.8144  127665924.297 6  99479953.08143
     -3060.646       -2384.914
  22384067.639    22384067.3614   22384066.0184  117629105.171 8  91659046.01545
      1597.705        1244.970
  23096216.939    23096216.8934   23096217.7754  121371441.842 7  94575177.13144
      3820.541        2977.053
  22062658.266    22062658.1134   22062658.9284  115940052.742 7  90342914.14245
       -13.984         -10.879
  22494789.999    22494789.7234   22494790.5024  118210927.261 7  92112444.08145
      2918.841        2274.419
 06  5 13 16 17 30.0000000  0 11G 3G 7G 8G10G15G16G19G21G26G27G29
  23054866.981    23054867.1504   23054867.9084  121154171.476 7  94405865.73144
      2057.921        1603.586
  22845174.572    22845173.7294   22845174.8124  120052198.762 7  93547186.94745
      -944.698        -736.119
  22076809.254    22076808.8564   22076809.7694  116014440.812 7  90400883.45745
      2337.417        1821.367
  21721079.744    21721078.8774   21721080.0794  114145036.200 8  88944197.81046
     -1952.266       -1521.242
  23308324.857    23308324.3054   23308325.2674  122486091.848 6  95443726.84844
      3168.423        2468.906
  24311516.759    24311515.4914   24311516.5424  127757876.861 6  99551604.39543
     -3069.795       -2392.049
  25368956.198    25368955.4704   25368955.6684  133314770.479 6 103881653.78543
      3665.438        2856.183
  22374997.468    22374997.0904   22374996.3094  117581441.269 8  91621905.30345
      1579.922        1231.105
  23074435.133    23074435.0714   23074436.0074  121256978.534 7  94485984.95144
      3810.496        2969.231
  22062785.838    22062785.7144   22062786.5214  115940723.150 7  90343436.54145
       -30.716         -23.955
  22478159.535    22478159.5864   22478160.3904  118123536.123 7  92044347.10345
      2907.110        2265.298
 06  5 13 16 18  0.0000000  0 11G 3G 7G 8G10G15G16G19G21G26G27G29
  23043165.269    23043165.1854   23043165.7074  121092677.056 7  94357947.98444
      2041.449        1590.740
  22850612.129    22850611.6984   22850612.8374  120080777.361 7  93569455.97945
      -961.044        -748.875
  22063509.241    22063508.8824   22063509.6334  115944549.489 7  90346422.68345
      2321.719        1809.123
  21732269.268    21732268.6474   21732269.7774  114203838.677 7  88990017.91546
     -1968.124       -1533.612
  23290267.537    23290266.7324   23290268.0004  122391199.806 7  95369785.02744
      3157.392        2460.325
  24329065.256    24329064.6804   24329065.2194  127850095.838 6  99623463.27343
     -3078.463       -2398.821
  25348042.663    25348041.8474   25348041.6554  133204866.704 6 103796014.44743
      3661.351        2853.040
  22366025.443    22366025.2064   22366024.4684  117534293.600 8  91585166.86345
      1563.064        1217.976
  23052708.049    23052707.7144   23052709.2004  121142802.834 7  94397016.93944
      3801.147        2961.941
  22063005.749    22063005.3874   22063006.0934  115941877.103 7  90344335.73245
       -46.553         -36.265
  22461594.402    22461594.3334   22461594.7944  118036484.977 7  91976515.08445
      2896.033        2256.654
 06  5 13 16 18 30.0000000  0 11G 3G 7G 8G10G15G16G19G21G26G27G29
  23031556.527    23031556.7584   23031557.2754  121031672.857 7  94310412.26544
      2024.909        1577.866
  22856144.015    22856143.7834   22856145.1974  120109848.133 7  93592108.50245
      -977.417        -761.616
  22050299.702    22050299.3964   22050300.2754  115875132.659 7  90292331.64045
      2305.715        1796.669
  21743550.157    21743549.5514   21743550.7054  114263120.022 8  89036211.16346
     -1984.248       -1546.161
  23272273.876    23272273.7804   23272275.0414  122296646.112 7  95296106.86744
      3145.772        2451.258
  24346663.139    24346662.9324   24346662.7524  127942574.347 6  99695524.40443
     -3087.012       -2405.445
  25327151.783    25327150.8634   25327150.8104  133095086.646 6 103710471.49943
      3656.927        2849.556
  22357151.601    22357151.0934   22357150.0374  117487659.280 8  91548828.42145
      1545.585        1204.368
  23031035.314    23031035.7354   23031036.7244  121028913.767 7  94308272.25644
      3791.247        2954.228
  22063316.108    22063316.1744   22063316.8094  115943510.355 7  90345608.40245
       -62.644         -48.805
  22445093.108    22445093.2794   22445093.6434  117949771.822 7  91908946.41145
      2884.539        2247.711
 06  5 13 16 19  0.0000000  0 11G 3G 7G 8G10G15G16G19G21G26G27G29
  23020042.328    23020041.9414   23020042.9084  120971164.241 7  94263262.69844
      2008.480        1565.054
  22861770.276    22861770.1584   22861771.2614  120139413.107 7  93615146.12245
      -994.083        -774.599
  22037181.422    22037180.9874   22037182.0494  115806196.056 7  90238614.80245
      2289.650        1784.139
  21754922.200    21754921.6124   21754922.9544  114322881.490 8  89082778.53046
     -2000.182       -1558.586
  23254346.688    23254346.4994   23254347.5054  122202436.915 6  95222697.12244
      3134.342        2442.319
  24364311.073    24364310.6234   24364310.7124  128035313.248 6  99767788.44943
     -3096.012       -2412.490
  25306286.464    25306285.5684   25306285.1824  132985435.560 6 103625029.13643
      3652.712        2846.290
  22348375.961    22348375.5664   22348374.7214  117441542.773 8  91512893.45045
      1528.297        1190.879
  23009418.459    23009418.9444   23009419.8704  120915317.286 6  94219755.55644
      3781.315        2946.479
  22063719.110    22063718.8054   22063719.5354  115945625.857 7  90347256.83045
       -78.746         -61.366
  22428657.329    22428657.7034   22428658.2914  117863401.929 7  91841645.20144
      2872.995        2238.683
 06  5 13 16 19 30.0000000  0 11G 3G 7G 8G10G15G16G19G21G26G27G29
  23008622.773    23008622.3484   23008623.4334  120911154.711 7  94216502.01944
      1992.171        1552.329
  22867491.067    22867490.4754   22867491.3554  120169473.042 7  93638569.44145
     -1010.172        -787.160
  22024155.475    22024155.1634   22024156.4344  115737743.589 7  90185275.20945
      2273.827        1771.813
  21766386.013    21766385.1064   21766386.5164  114383122.959 8  89129719.93046
     -2015.910       -1570.855
  23236485.763    23236485.5004   23236486.2294  122108576.609 7  95149559.27844
      3123.032        2433.512
  24382008.265    24382008.1004   24382007.5854  128128311.251 6  99840254.41443
     -3103.856       -2418.563
  25285445.653    25285444.9104   25285445.3194  132875918.397 6 103539691.17043
      3648.475        2842.963
  22339699.218    22339699.0224   22339698.1354  117395947.874 8  91477364.97145
      1511.238        1177.584
  22987858.325    22987858.5234   22987859.9874  120802017.916 7  94131470.32944
      3771.947        2939.180
  22064213.754    22064213.3724   22064213.8384  115948224.970 7  90349282.11245
       -94.553         -73.690
  22412288.101    22412288.0924   22412288.5504  117777379.204 7  91774614.52345
      2861.917        2230.059
 06  5 13 16 20  0.0000000  0 11G 3G 7G 8G10G15G16G19G21G26G27G29
  22997297.685    22997297.5344   22997298.3264  120851641.905 7  94170128.39144
      1975.761        1539.535
  22873304.103    22873303.2344   22873304.8204  120200022.320 7  93662374.08645
     -1026.432        -799.803
  22011221.246    22011220.7314   22011221.5384  115669772.382 8  90132310.64045
      2257.791        1759.309
  21777939.458    21777938.9114   21777940.2034  114443837.866 8  89177030.23746
     -2031.571       -1583.052
  23218690.889    23218690.5724   23218690.7974  122015063.183 7  95076691.67644
      3111.402        2424.430
  24399753.075    24399752.9004   24399753.0254  128221561.218 6  99912916.70043
     -3112.219       -2425.093
  25264630.555    25264629.4304   25264629.7134  132766532.944 6 103454455.78943
      3644.085        2839.539
  22331121.712    22331121.3094   22331120.3804  117350871.714 8  91442240.70645
      1494.057        1164.173
  22966354.923    22966355.1704   22966356.4894  120689014.315 7  94043415.58844
      3761.867        2931.313
  22064799.083    22064799.2784   22064799.6614  115951303.043 8  90351680.60745
      -110.455         -86.071
  22395984.190    22395984.1894   22395984.7194  117691701.238 7  91707852.48645
      2850.236        2220.936
 06  5 13 16 20 30.0000000  0 11G 3G 7G 8G10G15G16G19G21G26G27G29
  22986068.433    22986068.4174   22986069.1864  120792631.475 7  94124146.21144
      1958.257        1525.933
  22879211.094    22879210.4624   22879211.4784  120231063.154 7  93686561.77945
     -1043.357        -812.990
  21998379.379    21998378.8014   21998379.9234  115602288.406 8  90079725.73445
      2240.841        1746.114
  21789583.646    21789582.8564   21789584.2114  114505027.603 8  89224710.54346
     -2048.037       -1595.863
  23200963.103    23200962.2744   23200963.1234  121921903.268 7  95004099.57244
      3099.075        2414.887
  24417545.482    24417545.7064   24417545.7054  128315064.083 6  99985776.03143
     -3121.320       -2432.158
  25243841.272    25243840.2214   25243840.3954  132657285.776 6 103369328.14143
      3638.823        2835.467
  22322643.800    22322643.3544   22322642.2604  117306319.577 8  91407524.71745
      1475.881        1150.057
  22944908.987    22944908.7684   22944909.9384  120576312.853 7  93955596.27444
      3751.321        2923.119
  22065476.672    22065476.6554   22065477.3064  115954863.473 7  90354454.95245
      -127.259         -99.148
  22379747.051    22379746.7494   22379747.2164  117606373.969 7  91641363.71445
      2837.957        2211.403
 06  5 13 16 21  0.0000000  0 11G 3G 7G 8G10G15G16G19G21G26G27G29
  22974936.071    22974935.9794   22974937.4224  120734131.223 7  94078561.58144
      1941.161        1512.633
  22885212.459    22885211.9344   22885213.1964  120262600.557 7  93711136.38245
     -1059.821        -825.852
  21985631.805    21985631.3594   21985632.2134  115535299.705 8  90027526.75745
      2224.300        1733.209
  21801318.819    21801318.1274   21801319.1214  114566696.187 8  89272763.97946
     -2064.013       -1608.335
  23183303.853    23183303.9864   23183304.1484  121829105.437 6  94931789.59844
      3086.920        2405.376
  24435387.248    24435387.3794   24435386.6324  128408823.074 6 100058834.95243
     -3130.122       -2439.039
  25223080.125    25223079.5154   25223079.4464  132548185.446 6 103284314.96244
      3633.770        2831.513
  22314266.723    22314266.4224   22314265.2634  117262298.692 8  91373222.69345
      1458.156        1136.214
  22923521.403    22923521.7204   22923522.3434  120463922.442 7  93868019.34744
      3740.780        2914.905
  22066247.443    22066247.1844   22066247.7134  115958912.245 7  90357609.82845
      -143.357        -111.724
  22363577.871    22363577.7264   22363577.9944  117521405.247 7  91575154.33245
      2825.946        2202.016
 06  5 13 16 21 30.0000000  0 12G 3G 7G 8G10G15G16G18G19G21G26G27G29
  22963901.321    22963901.3314   22963902.0634  120676141.713 7  94033374.98544
      1924.302        1499.450
  22891307.524    22891307.0074   22891308.5114  120294631.775 7  93736095.77145
     -1075.855        -838.340
  21972978.671    21972978.3664   21972978.8994  115468807.140 8  89975714.37245
      2208.172        1720.638
  21813144.238    21813143.7374   21813144.7964  114628839.985 8  89321187.70745
     -2079.527       -1620.421
  23165714.631    23165714.2044   23165714.6144  121736670.992 7  94859762.79544
      3074.933        2396.054
  24453277.089    24453276.7304   24453276.9274  128502834.115 6 100132090.30343
     -3137.935       -2445.148
  25615045.475    25615045.1574   25615046.7374  134607985.282 6 104889345.60942
      3931.037        3063.101
  25202347.354    25202346.2704   25202346.1214  132439233.461 6 103199417.39143
      3629.037        2827.779
  22305991.132    22305990.6774   22305989.3254  117218808.815 8  91339334.47545
      1440.722        1122.620
  22902193.660    22902193.5914   22902194.7704  120351844.304 7  93780685.71544
      3730.554        2906.926
  22067110.272    22067110.1074   22067110.6704  115963447.261 7  90361143.59645
      -159.395        -124.216
  22347477.350    22347477.3784   22347477.3064  117436795.808 7  91509224.90045
      2814.154        2192.847
 06  5 13 16 22  0.0000000  0 12G 3G 7G 8G10G15G16G18G19G21G26G27G29
  22952962.311    22952961.6764   22952962.7774  120618655.583 7  93988580.55144
      1907.637        1486.477
  22897494.476    22897494.5054   22897495.8664  120327146.303 7  93761431.74345
     -1092.160        -851.036
  21960418.764    21960418.2264   21960418.7904  115402803.236 7  89924282.75045
      2191.920        1707.982
  21825058.182    21825057.5294   21825058.6654  114691447.979 8  89369973.13945
     -2094.678       -1632.216
  23148192.116    23148192.2944   23148192.5244  121644593.382 7  94788014.03344
      3063.065        2386.805
  24471212.470    24471212.2624   24471212.5504  128597084.938 6 100205532.44543
     -3145.714       -2451.215
  25592605.029    25592605.5764   25592605.9354  134490062.004 6 104797457.37142
      3930.380        3062.685
  25181641.186    25181640.3764   25181640.9464  132330422.787 6 103114629.91644
      3624.519        2824.321
  22297814.989    22297814.5804   22297813.2894  117175842.354 8  91305854.02545
      1423.348        1109.099
  22880923.793    22880924.1544   22880925.0944  120240072.429 7  93693590.75444
      3720.463        2899.073
  22068063.824    22068063.8804   22068064.2974  115968459.041 7  90365048.85845
      -175.080        -136.419
  22331443.912    22331443.7044   22331444.0724  117352538.338 7  91443569.75845
      2802.437        2183.707
 06  5 13 16 22 30.0000000  0 12G 3G 7G 8G10G15G16G18G19G21G26G27G29
  22942120.925    22942120.1804   22942121.0164  120561682.155 7  93944185.66244
      1890.410        1473.051
  22903775.068    22903774.8064   22903776.1864  120360150.401 7  93787149.17445
     -1108.611        -863.846
  21947953.467    21947952.8414   21947953.4704  115337297.458 8  89873239.27945
      2174.991        1694.811
  21837061.354    21837060.9354   21837062.0774  114754525.348 7  89419124.32546
     -2110.509       -1644.560
  23130740.434    23130739.9234   23130740.5694  121552882.753 7  94716551.22644
      3050.702        2377.158
  24489194.559    24489194.6284   24489194.5164  128691580.251 6 100279165.13243
     -3154.036       -2457.681
  25570172.401    25570171.5544   25570172.4224  134372175.440 6 104705597.79842
      3928.957        3061.584
  25160964.052    25160963.7204   25160963.6744  132221763.473 6 103029960.16544
      3619.250        2820.184
  22289739.915    22289739.6424   22289738.4064  117133408.182 8  91272788.32945
      1405.412        1095.129
  22859714.508    22859714.6214   22859715.7534  120128617.003 6  93606742.40344
      3709.721        2890.707
  22069110.008    22069109.5734   22069110.1304  115973955.049 7  90369331.43345
      -191.459        -149.189
  22315479.110    22315478.9404   22315479.1754  117268642.445 7  91378196.35345
      2790.503        2174.436
 06  5 13 16 23  0.0000000  0 12G 3G 7G 8G10G15G16G18G19G21G26G27G29
  22931378.096    22931377.2774   22931377.8154  120505227.109 7  93900194.70544
      1873.285        1459.718
  22910149.447    22910149.0364   22910150.0854  120393646.500 7  93813250.01345
     -1124.771        -876.433
  21935583.832    21935583.6614   21935584.0194  115272295.819 7  89822588.66745
      2158.344        1681.832
  21849154.173    21849153.5974   21849154.9074  114818073.497 8  89468642.34445
     -2126.053       -1656.656
  23113360.136    23113359.0394   23113359.2724  121461545.551 7  94645379.42044
      3038.357        2367.550
  24507222.996    24507223.0274   24507222.9194  128786321.205 6 100352989.19843
     -3161.864       -2463.776
  25547746.545    25547747.2844   25547746.2804  134254330.609 6 104613770.73142
      3927.504        3060.406
  25140316.927    25140316.2664   25140316.5394  132113262.553 6 102945413.96644
      3614.154        2816.253
  22281767.394    22281766.9694   22281765.7374  117091511.855 8  91240141.81145
      1387.666        1081.309
  22838566.784    22838566.9084   22838568.1334  120017484.816 7  93520145.97744
      3698.939        2882.304
  22070248.129    22070248.1864   22070248.9184  115979938.124 7  90373993.55045
      -207.517        -161.700
  22299584.106    22299583.8244   22299584.2154  117185113.785 7  91313109.09945
      2778.210        2164.844
 06  5 13 16 23 30.0000000  0 12G 3G 7G 8G10G15G16G18G19G21G26G27G29
  22920732.322    22920732.0054   22920732.9084  120449286.131 7  93856604.33544
      1855.832        1446.116
  22916616.250    22916615.7614   22916616.4244  120427627.142 7  93839728.43145
     -1141.167        -889.204
  21923309.688    21923309.2054   21923309.8514  115207794.092 7  89772327.59245
      2141.382        1668.614
  21861335.015    21861334.3604   21861335.3904  114882084.277 8  89518520.86045
     -2141.733       -1668.889
  23096049.091    23096048.4024   23096049.0294  121370578.325 7  94574495.88244
      3025.658        2357.644
  24525296.740    24525296.0174   24525297.0924  128881299.032 6 100426997.86343
     -3170.126       -2470.215
  25525329.054    25525329.3234   25525330.6564  134136523.922 6 104521973.33142
      3926.104        3059.300
  25119699.112    25119698.4214   25119698.5834  132004916.102 6 102860988.10044
      3608.810        2812.086
  22273896.162    22273895.7864   22273894.4904  117050148.203 8  91207910.29845
      1369.570        1067.216
  22817479.801    22817479.6884   22817481.2704  119906672.318 7  93433798.69744
      3688.104        2873.831
  22071478.283    22071478.1974   22071479.1124  115986402.006 7  90379030.33845
      -223.680        -174.287
  22283757.848    22283757.7984   22283758.2124  117101948.356 7  91248304.85245
      2765.765        2155.123
 06  5 13 16 24  0.0000000  0 12G 3G 7G 8G10G15G16G18G19G21G26G27G29
  22910185.841    22910185.6514   22910186.3044  120393864.564 7  93813418.71244
      1838.722        1432.771
  22923175.094    22923174.8614   22923175.5114  120462094.618 7  93866586.16145
     -1157.207        -901.724
  21911131.563    21911131.0444   21911131.4534  115143797.679 8  89722460.27745
      2124.674        1655.593
  21873604.681    21873603.7894   21873604.8114  114946559.326 8  89568761.14446
     -2157.053       -1680.819
  23078810.457    23078809.6404   23078810.2484  121279987.135 7  94503905.38244
      3013.292        2348.017
  24543416.554    24543415.2994   24543415.3594  128976514.303 6 100501191.53243
     -3177.827       -2476.205
  25502919.572    25502919.6934   25502920.2414  134018761.091 6 104430210.12542
      3924.541        3058.094
  25099112.684    25099111.7154   25099111.8884  131896730.712 6 102776687.82644
      3603.195        2807.668
  22266127.116    22266126.8794   22266125.8154  117009321.668 8  91176097.19545
      1351.874        1053.422
  22796455.136    22796454.9324   22796456.0694  119796185.883 7  93347705.41344
      3677.256        2865.396
  22072800.041    22072800.3404   22072801.0924  115993349.948 7  90384444.30645
      -239.876        -186.915
  22268001.962    22268001.9844   22268002.8004  117019151.618 7  91183787.90845
      2753.820        2145.837
 06  5 13 16 24 30.0000000  0 12G 3G 7G 8G10G15G16G18G19G21G26G27G29
  22899739.594    22899739.1934   22899739.9524  120338968.374 7  93770642.52144
      1820.698        1418.723
  22929826.599    22929826.3904   22929827.5974  120497051.499 7  93893825.21445
     -1173.717        -914.594
  21899050.591    21899050.1774   21899050.8364  115080312.774 8  89672991.52845
      2107.137        1641.922
  21885962.491    21885961.7024   21885962.6834  115011500.429 7  89619364.58745
     -2172.800       -1693.098
  23061644.328    23061643.5284   23061644.2904  121189778.898 7  94433613.25944
      3000.167        2337.794
  24561579.973    24561579.7534   24561579.7294  129071968.187 6 100575571.12243
     -3185.908       -2482.537
  25480519.386    25480519.5324   25480520.3404  133901047.790 6 104338485.38042
      3922.564        3056.541
  25078557.239    25078557.0574   25078556.9664  131788713.241 6 102692518.53744
      3597.475        2803.225
  22258461.579    22258461.2974   22258460.4214  116969038.287 8  91144707.42545
      1333.272        1038.898
  22775493.569    22775493.7334   22775494.4594  119686032.495 7  93261871.65744
      3665.705        2856.399
  22074215.454    22074215.2834   22074216.0254  116000785.526 7  90390238.26545
      -256.329        -199.734
  22252317.505    22252317.4924   22252318.0604  116936729.787 7  91119563.13345
      2740.822        2135.717
 06  5 13 16 25  0.0000000  0 12G 3G 7G 8G10G15G16G18G19G21G26G27G29
  22889392.552    22889392.2594   22889392.9374  120284595.406 7  93728274.00544
      1803.689        1405.457
  22936571.180    22936570.6304   22936571.9634  120532492.950 7  93921441.85545
     -1189.483        -926.879
  21887066.837    21887066.4504   21887067.0084  115017337.334 7  89623919.76145
      2090.680        1629.097
  21898407.519    21898407.1544   21898408.1574  115076901.589 7  89670326.49245
     -2187.771       -1704.770
  23044550.461    23044550.3364   23044550.9364  121099952.512 7  94363618.70044
      2987.800        2328.141
  24579788.700    24579788.5824   24579788.6084  129167654.424 6 100650131.71243
     -3193.323       -2488.296
  25458129.024    25458128.5634   25458129.1274  133783383.232 6 104246798.67842
      3921.244        3055.498
  25058033.534    25058033.2504   25058032.9574  131680862.258 6 102608478.90644
      3592.218        2799.117
  22250899.360    22250898.7664   22250898.0134  116929295.590 8  91113738.82645
      1315.756        1025.253
  22754595.259    22754595.1894   22754596.2674  119576211.403 7  93176296.83444
      3655.139        2848.149
  22075722.579    22075722.4264   22075723.1834  116008705.089 7  90396409.34645
      -272.004        -211.956
  22236704.538    22236704.5124   22236704.8844  116854681.254 7  91055629.23545
      2728.580        2126.169
 06  5 13 16 25 30.0000000  0 12G 3G 7G 8G10G15G16G18G19G21G26G27G29
  22879146.177    22879145.7264   22879146.5234  120230749.031 7  93686315.74544
      1785.965        1391.678
  22943407.971    22943407.5254   22943408.6334  120568419.075 7  93949436.17645
     -1205.887        -939.659
  21875180.526    21875180.3404   21875180.8334  114954875.063 8  89575247.86845
      2073.367        1615.613
  21910940.464    21910939.9364   21910940.9774  115142762.037 7  89721646.29645
     -2203.127       -1716.722
  23027530.913    23027530.2124   23027531.1804  121010512.108 7  94293924.89944
      2974.784        2318.014
  24598040.951    24598041.2574   24598040.7154  129263571.572 6 100724872.26043
     -3201.109       -2494.353
  25435747.709    25435747.5204   25435748.6944  133665770.932 6 104155152.78843
      3919.473        3054.160
  25037543.018    25037542.3124   25037542.0134  131573181.596 6 102524571.90244
      3586.177        2794.444
  22243439.931    22243439.6024   22243438.8984  116890096.622 8  91083194.09345
      1297.409        1010.989
  22733760.687    22733761.0174   22733761.7374  119466726.752 7  93090984.13544
      3643.721        2839.260
  22077321.672    22077321.5334   22077322.5924  116017109.099 7  90402957.91245
      -288.251        -224.602
  22221162.951    22221163.1504   22221163.2514  116773009.306 8  90991988.75645
      2715.899        2116.287
 06  5 13 16 26  0.0000000  0 12G 3G 7G 8G10G15G16G18G19G21G26G27G29
  22868999.878    22868999.5234   22869000.4824  120177431.535 7  93644769.68944
      1768.242        1377.818
  22950336.642    22950336.0514   22950337.1334  120604828.349 7  93977806.93945
     -1221.916        -952.124
  21863392.309    21863392.1884   21863392.6744  114892928.034 8  89526977.45645
      2056.020        1602.101
  21923560.661    21923559.6974   21923560.8874  115209080.049 7  89773322.64845
     -2218.429       -1728.628
  23010585.242    23010584.5754   23010585.0634  120921460.646 7  94224534.16244
      2961.650        2307.792
  24616337.156    24616336.9434   24616337.2284  129359717.455 6 100799791.07143
     -3209.162       -2500.642
  25413377.541    25413377.0824   25413378.2594  133548213.306 6 104063549.45543
      3917.495        3052.596
  25017084.808    25017083.8914   25017084.2244  131465674.712 6 102440800.29344
      3580.307        2789.865
  22236084.358    22236083.9154   22236083.4074  116851442.910 7  91053074.29445
      1279.161         996.736
  22712991.599    22712991.5774   22712992.1774  119357581.797 7  93005936.15444
      3632.229        2830.327
  22079013.345    22079013.0854   22079014.1254  116025997.621 7  90409883.99045
      -304.540        -237.284
  22205693.119    22205693.2074   22205693.7854  116691716.136 7  90928643.43345
      2703.247        2106.438
 06  5 13 16 26 30.0000000  0 12G 3G 7G 8G10G15G16G18G19G21G26G27G29
  22858954.069    22858954.0464   22858955.1784  120124640.419 7  93603633.80644
      1750.803        1364.277
  22957356.105    22957355.4674   22957356.7994  120641715.979 7  94006550.50645
     -1237.843        -964.550
  21851702.062    21851701.6094   21851702.2504  114831494.060 7  89479106.82745
      2038.941        1588.765
  21936266.248    21936265.6224   21936266.7074  115275849.411 7  89825350.70945
     -2233.328       -1740.259
  22993712.575    22993712.4544   22993713.2244  120832796.852 7  94155445.47144
      2948.706        2297.681
  24634675.086    24634675.3024   24634675.3864  129456085.128 6 100874882.68743
     -3216.229       -2506.194
  25391016.994    25391016.8604   25391016.7074  133430708.744 6 103971987.46143
      3915.835        3051.274
  24996659.907    24996659.3204   24996659.1564  131358340.136 6 102357162.85444
      3574.526        2785.360
  22228832.107    22228831.6634   22228830.9404  116813331.582 7  91023377.18745
      1261.084         982.667
  22692286.268    22692286.3234   22692286.8504  119248775.302 7  92921151.90144
      3620.917        2821.482
  22080795.923    22080795.7824   22080796.9644  116035366.352 7  90417184.25945
      -320.438        -249.706
  22190295.125    22190295.3084   22190296.1574  116610800.029 7  90865591.91945
      2690.469        2096.457
 06  5 13 16 27  0.0000000  0 12G 3G 7G 8G10G15G16G18G19G21G26G27G29
  22849009.865    22849009.8604   22849010.2874  120072382.884 7  93562913.73144
      1732.815        1350.267
  22964467.022    22964466.8084   22964468.1024  120679085.926 7  94035669.83245
     -1253.879        -977.034
  21840110.541    21840110.3004   21840110.9364  114770580.839 8  89431641.98845
      2021.481        1575.203
  21949058.336    21949057.8144   21949059.0784  115343073.404 7  89877733.02145
     -2248.532       -1752.082
  22976915.689    22976914.9894   22976916.9314  120744528.828 7  94086665.11644
      2935.421        2287.353
  24653056.051    24653055.7984   24653056.0444  129552677.638 6 100950149.51743
     -3223.416       -2511.753
  25368668.040    25368667.9704   25368669.1554  133313264.293 6 103880472.39043
      3913.477        3049.496
  24976269.404    24976268.6684   24976268.5064  131251186.705 6 102273666.64944
      3568.634        2780.765
  22221684.124    22221683.8014   22221683.1414  116775769.251 8  90994107.74345
      1242.748         968.397
  22671647.095    22671647.2934   22671648.0734  119140315.745 7  92836637.96344
      3609.374        2812.525
  22082671.319    22082671.1184   22082671.9644  116045220.531 8  90424862.82945
      -336.726        -262.363
  22174970.893    22174970.7894   22174971.4184  116530268.300 7  90802839.93245
      2677.765        2086.581
 06  5 13 16 27 30.0000000  0 12G 3G 7G 8G10G15G16G18G19G21G26G27G29
  22839167.990    22839167.6174   22839168.5734  120020664.334 7  93522613.56144
      1714.845        1336.259
  22971670.665    22971670.5804   22971671.6314  120716940.459 7  94065166.73045
     -1270.033        -989.615
  21828619.372    21828619.1474   21828619.6884  114710193.944 8  89384587.27545
      2003.984        1561.557
  21961937.492    21961936.9554   21961938.1914  115410753.720 8  89930470.89845
     -2263.745       -1763.966
  22960195.623    22960195.3494   22960196.4954  120656663.100 7  94018198.22444
      2921.990        2276.871
  24671479.928    24671480.2074   24671479.5894  129649496.056 6 101025592.36943
     -3231.070       -2517.695
  25346331.677    25346331.3784   25346332.1384  133195886.087 6 103789008.76443
      3911.387        3047.878
  24955914.928    24955913.8754   24955913.8594  131144220.439 6 102190316.31044
      3562.162        2775.713
  22214641.719    22214641.3534   22214641.2214  116738761.375 8  90965270.39545
      1224.138         953.876
  22651075.575    22651075.4624   22651075.9844  119032209.867 7  92752399.62944
      3597.552        2803.291
  22084639.456    22084639.1944   22084640.1444  116055563.514 7  90432922.35645
      -352.978        -275.051
  22159720.481    22159720.4194   22159721.2304  116450127.249 7  90740392.36545
      2664.646        2076.351
 06  5 13 16 28  0.0000000  0 12G 3G 7G 8G10G15G16G18G19G21G26G27G29
  22829428.220    22829428.0574   22829429.1024  119969482.546 7  93482731.70244
      1697.101        1322.426
  22978965.409    22978965.1944   22978966.5044  120755274.239 7  94095037.07545
     -1285.877       -1001.979
  21817227.940    21817227.4694   21817227.9974  114650331.180 8  89337940.98545
      1986.535        1547.954
  21974902.899    21974901.9204   21974902.8684  115478883.899 7  89983559.32245
     -2278.504       -1775.448
  22943552.033    22943551.5894   22943552.3224  120569198.344 7  93950043.80644
      2908.617        2266.458
  24689945.306    24689945.6974   24689945.5244  129746533.196 6 101101205.62843
     -3238.075       -2523.165
  25324007.452    25324008.2184   25324008.5744  133078572.732 6 103697595.77043
      3909.341        3046.263
  24935594.786    24935594.3844   24935593.4974  131037440.119 6 102107110.98344
      3555.967        2770.887
  22207704.100    22207704.1204   22207703.5094  116702304.847 7  90936862.68745
      1205.929         939.702
  22630570.264    22630570.3794   22630571.3014  118924456.480 7  92668435.96745
      3585.687        2794.056
  22086699.564    22086699.3264   22086700.2074  116066390.312 7  90441358.84045
      -369.072        -287.582
  22144543.876    22144543.9274   22144544.4314  116370374.447 7  90678247.35445
      2651.931        2066.436
 06  5 13 16 28 30.0000000  0 12G 3G 7G 8G10G15G16G18G19G21G26G27G29
  22819791.926    22819791.1904   22819792.1584  119918841.955 7  93443271.50744
      1679.029        1308.336
  22986351.726    22986351.4564   22986352.7434  120794088.713 7  94125282.02945
     -1302.060       -1014.594
  21805936.920    21805936.7824   21805937.3794  114590997.523 8  89291706.98345
      1968.877        1534.199
  21987953.021    21987952.3774   21987953.5354  115547464.580 7  90036998.80845
     -2293.569       -1787.205
  22926985.221    22926984.8144   22926985.9954  120482139.663 7  93882205.81044
      2895.076        2255.892
  24708453.363    24708453.3094   24708454.0044  129843789.388 6 101176989.56243
     -3245.730       -2529.112
  25301696.932    25301696.9364   25301697.7434  132961329.278 6 103606237.32443
      3906.534        3044.046
  24915311.357    24915310.4694   24915310.4914  130930850.919 6 102024054.51744
      3549.579        2765.900
  22200872.769    22200872.3694   22200871.5684  116666403.961 8  90908888.03545
      1187.347         925.214
  22610133.479    22610133.7124   22610134.7274  118817061.102 7  92584751.25545
      3573.747        2784.736
  22088852.223    22088852.2174   22088853.2924  116077703.032 7  90450173.94345
      -385.230        -300.183
  22129441.818    22129441.9294   22129442.6464  116291014.532 7  90616408.53345
      2638.571        2056.018
 06  5 13 16 29  0.0000000  0 12G 3G 7G 8G10G15G16G18G19G21G26G27G29
  22810259.097    22810258.7904   22810259.6044  119868748.118 7  93404237.39944
      1660.737        1294.065
  22993830.030    22993829.4704   22993830.8604  120833385.873 7  94155903.11445
     -1317.859       -1026.910
  21794748.025    21794747.5594   21794748.3024  114532198.196 8  89245889.31545
      1951.126        1520.354
  22001089.557    22001089.0164   22001090.0754  115616497.087 7  90090790.37945
     -2308.664       -1798.954
  22910496.731    22910496.7184   22910497.5434  120395493.605 7  93814689.34044
      2881.347        2245.213
  24727002.562    24727002.0694   24727002.2734  129941265.381 6 101252944.82943
     -3252.846       -2534.677
  25279400.808    25279400.6304   25279401.5274  132844161.322 6 103514937.72843
      3904.253        3042.241
  24895066.498    24895065.0164   24895065.3194  130824459.792 6 101941152.43844
      3542.954        2760.747
  22194147.416    22194147.1474   22194146.6804  116631063.663 7  90881350.18645
      1168.721         910.706
  22589766.550    22589766.5324   22589767.5914  118710030.388 7  92501350.70545
      3561.616        2775.296
  22091098.250    22091098.2384   22091099.1354  116089505.292 7  90459370.49345
      -401.466        -312.827
  22114416.194    22114416.2854   22114416.6364  116212053.284 7  90554880.35945
      2625.373        2045.751
 06  5 13 16 29 30.0000000  0 12G 3G 7G 8G10G15G16G18G19G21G26G27G29
  22800828.694    22800828.8124   22800829.6694  119819192.240 7  93365622.48344
      1642.444        1279.814
  23001397.506    23001397.2134   23001398.5254  120873154.113 7  94186891.23245
     -1333.986       -1039.473
  21783659.092    21783658.5064   21783659.1164  114473924.937 8  89200481.56145
      1933.147        1506.358
  22014309.659    22014309.0924   22014310.1124  115685969.263 8  90144924.54345
     -2323.451       -1810.482
  22894086.232    22894085.4624   22894086.7064  120309252.526 7  93747488.42044
      2867.471        2234.397
  24745591.149    24745590.2724   24745590.1494  130038948.061 6 101329061.09243
     -3259.842       -2540.103
  25257117.103    25257117.4024   25257117.7334  132727061.090 6 103423690.85643
      3901.693        3040.303
  24874856.798    24874855.8124   24874855.3364  130718259.008 6 101858398.69644
      3536.333        2755.610
  22187527.346    22187527.2464   22187526.4114  116596274.626 7  90854241.85745
      1149.945         896.070
  22569467.289    22569467.3484   22569468.3354  118603356.925 7  92418228.50745
      3549.247        2765.646
  22093435.365    22093435.2294   22093435.9634  116101786.281 7  90468940.05045
      -417.884        -325.615
  22099464.709    22099464.7734   22099465.1354  116133482.496 7  90493656.38645
      2612.036        2035.347
 06  5 13 16 30  0.0000000  0 12G 3G 7G 8G10G15G16G18G19G21G26G27G29
  22791503.892    22791503.9174   22791504.6094  119770189.006 7  93327438.16244
      1624.137        1265.562
  23009057.032    23009056.8534   23009058.2024  120913405.109 7  94218255.56145
     -1349.962       -1051.901
  21772672.667    21772672.4674   21772672.9664  114416192.563 8  89155495.31145
      1915.163        1492.327
  22027615.390    22027614.7244   22027615.8714  115755891.802 7  90199409.65645
     -2338.556       -1822.256
  22877754.954    22877754.5164   22877755.6914  120223432.202 7  93680615.35044
      2853.402        2223.409
  24764220.640    24764220.5804   24764221.2074  130136848.393 6 101405346.97743
     -3267.095       -2545.796
  25234849.776    25234849.3414   25234851.1184  132610043.699 6 103332508.54943
      3898.935        3038.132
  24854686.310    24854685.8574   24854685.1924  130612264.330 7 101775805.51044
      3529.461        2750.217
  22181014.831    22181014.5974   22181013.7894  116562051.053 8  90827574.10545
      1131.068         881.354
  22549238.967    22549239.1034   22549239.6984  118497056.775 7  92335397.22145
      3536.760        2755.886
  22095865.894    22095865.7314   22095866.5334  116114558.839 7  90478892.70245
      -434.111        -338.281
  22084590.318    22084590.4494   22084590.9224  116055317.114 7  90432748.32545
      2598.401        2024.730
 06  5 13 16 30 30.0000000  0 12G 3G 7G 8G10G15G16G18G19G21G26G27G29
  22782283.690    22782283.9894   22782284.7784  119721738.937 7  93289684.85944
      1605.350        1250.911
  23016807.773    23016807.4274   23016808.8984  120954136.418 7  94249994.25845
     -1366.153       -1064.541
  21761789.428    21761789.3504   21761790.0554  114359001.650 8  89110930.96745
      1896.898        1478.105
  22041005.950    22041005.3564   22041006.7144  115826261.241 7  90254242.98445
     -2353.510       -1833.897
  22861504.598    22861503.9754   22861505.0374  120138034.210 7  93614071.43344
      2839.104        2212.285
  24782891.377    24782890.9634   24782890.7794  130234962.426 6 101481799.45943
     -3274.513       -2551.590
  25212598.205    25212597.8944   25212597.9874  132493110.695 6 103241392.16743
      3895.779        3035.655
  24834554.886    24834554.5154   24834554.3504  130506477.292 7 101693374.16044
      3522.316        2744.661
  22174610.096    22174609.7094   22174608.6334  116528393.441 7  90801347.53245
      1112.050         866.523
  22529082.010    22529082.0344   22529082.6314  118391131.485 7  92252858.01045
      3524.132        2746.065
  22098389.414    22098389.3354   22098390.1254  116127820.886 7  90489226.77045
      -450.654        -351.158
  22069793.239    22069793.0354   22069793.9094  115977558.049 7  90372156.86245
      2584.822        2014.141
 06  5 13 16 31  0.0000000  0 12G 3G 7G 8G10G15G16G18G19G21G26G27G29
  22773171.266    22773170.9554   22773171.9034  119673850.544 7  93252369.27144
      1586.401        1236.145
  23024651.080    23024650.8674   23024652.4674  120995352.944 7  94282111.01945
     -1382.528       -1077.300
  21751011.430    21751010.9184   21751011.5434  114302360.803 8  89066795.27445
      1878.339        1463.630
  22054482.834    22054482.3014   22054483.4284  115897082.016 8  90309428.00945
     -2368.597       -1845.670
  22845335.820    22845335.4504   22845336.7624  120053067.515 7  93547863.52944
      2824.573        2200.958
  24801603.497    24801602.6764   24801602.7314  130333293.639 6 101558421.12243
     -3281.646       -2557.156
  25190363.974    25190363.1134   25190363.9544  132376270.395 6 103150347.93543
      3892.622        3033.221
  24814465.940    24814465.2014   24814465.6214  130400907.370 6 101611112.00244
      3514.915        2738.903
  22168314.180    22168313.7224   22168312.9244  116495309.078 8  90775567.66645
      1092.789         851.504
  22508997.984    22508998.0214   22508998.8084  118285590.570 7  92170618.36044
      3511.170        2735.972
  22101007.835    22101007.3264   22101008.1994  116141578.532 8  90499947.02945
      -467.286        -364.121
  22055075.198    22055075.0164   22055075.6124  115900213.880 7  90311888.70245
      2570.711        2003.142
 06  5 13 16 31 30.0000000  0 12G 3G 7G 8G10G15G16G18G19G21G26G27G29
  22764165.167    22764165.1304   22764166.1154  119626523.149 7  93215490.83444
      1568.368        1222.104
  23032586.339    23032586.0104   23032587.6914  121037051.188 7  94314603.07945
     -1397.915       -1089.282
  21740337.753    21740337.1074   21740337.5944  114246269.934 7  89023088.10345
      1860.514        1449.740
  22068044.699    22068043.9774   22068045.1384  115968350.248 7  90364961.69345
     -2382.972       -1856.869
  22829249.610    22829249.0344   22829250.4164  119968533.048 7  93481992.47244
      2810.644        2190.117
  24820355.877    24820355.2324   24820355.3094  130431838.068 6 101635208.98643
     -3288.359       -2562.327
  25168147.477    25168146.9504   25168148.1124  132259523.593 6 103059376.56943
      3890.003        3031.141
  24794418.449    24794417.1844   24794416.9034  130295555.326 6 101529019.53244
      3508.062        2733.554
  22162127.228    22162126.9094   22162126.3564  116462797.430 8  90750233.97545
      1074.233         837.071
  22488988.245    22488987.7714   22488988.8494  118180435.193 7  92088679.10545
      3498.654        2726.227
  22103719.553    22103719.1884   22103719.9664  116155829.457 8  90511051.64945
      -483.177        -376.512
  22040435.780    22040436.0684   22040436.3694  115823284.808 7  90251943.98545
      2557.435        1992.800
 06  5 13 16 32  0.0000000  0 12G 3G 7G 8G10G15G16G18G19G21G26G27G29
  22755265.378    22755265.3804   22755266.4484  119579756.323 7  93179049.22244
      1549.410        1207.307
  23040612.362    23040611.7254   23040613.6574  121079227.504 7  94347467.63245
     -1413.819       -1101.691
  21729768.344    21729767.9514   21729768.5664  114190728.622 8  88979809.16045
      1842.092        1435.375
  22081690.574    22081690.3004   22081691.3714  116040061.176 7  90420840.31445
     -2397.717       -1868.347
  22813245.424    22813245.0444   22813246.4254  119884431.210 7  93416458.50845
      2795.989        2178.678
  24839147.869    24839146.6414   24839147.3504  130530590.231 6 101712158.66043
     -3295.337       -2567.763
  25145948.371    25145947.9764   25145949.4054  132142870.371 6 102968478.11743
      3886.641        3028.574
  24774410.418    24774411.1974   24774410.9174  130190421.721 6 101447097.28644
      3500.625        2727.722
  22156049.097    22156048.8044   22156048.0764  116430857.333 8  90725345.70145
      1054.962         822.046
  22469051.151    22469051.1494   22469052.2874  118075665.866 7  92007040.68245
      3485.665        2716.093
  22106524.955    22106524.5494   22106525.4444  116170571.059 7  90522538.59345
      -499.603        -389.299
  22025875.947    22025875.8364   22025876.3234  115746770.402 7  90192322.38945
      2543.409        1981.874
 06  5 13 16 32 30.0000000  0 12G 3G 7G 8G10G15G16G18G19G21G26G27G29
  22746472.218    22746472.4964   22746473.4454  119533548.584 7  93143043.23644
      1530.534        1192.623
  23048728.194    23048728.1814   23048729.6254  121121877.599 7  94380701.43345
     -1429.753       -1114.102
  21719303.715    21719303.3004   21719303.7244  114135735.694 7  88936957.51545
      1823.681        1421.049
  22095420.469    22095419.8964   22095420.8124  116112209.474 8  90477059.74745
     -2412.523       -1879.891
  22797323.553    22797323.1394   22797324.4074  119800761.810 7  93351261.57345
      2781.441        2167.360
  24857978.123    24857978.3864   24857977.6954  130629544.538 6 101789265.85343
     -3302.183       -2573.151
  25123767.475    25123767.4534   25123768.5444  132026309.842 6 102877651.84743
      3883.403        3026.020
  24754447.254    24754446.8894   24754446.4364  130085506.684 6 101365345.41844
      3493.337        2722.060
  22150079.646    22150079.2314   22150078.7864  116399486.789 7  90700901.10345
      1035.945         807.222
  22449187.261    22449187.7524   22449188.7254  117971282.536 7  91925703.04145
      3472.650        2705.950
  22109422.613    22109422.5174   22109423.2134  116185799.728 7  90534405.08645
      -515.892        -401.983
  22011394.403    22011394.3254   22011394.8914  115670669.946 7  90133023.36045
      2529.434        1970.977
 06  5 13 16 33  0.0000000  0 12G 3G 7G 8G10G15G16G18G19G21G26G27G29
  22737786.868    22737786.5554   22737787.0894  119487904.855 7  93107476.73144
      1511.640        1177.902
  23056934.826    23056934.6504   23056935.9164  121165003.143 7  94414305.72245
     -1445.909       -1126.683
  21708944.141    21708943.7584   21708944.2354  114081296.195 7  88894537.11345
      1804.842        1406.357
  22109233.192    22109232.4184   22109233.6154  116184796.422 7  90533620.99445
     -2427.394       -1891.479
  22781485.323    22781484.7514   22781486.5434  119717530.457 7  93286405.93945
      2766.568        2155.750
  24876847.035    24876846.3124   24876846.5474  130728702.045 6 101866531.47743
     -3309.031       -2578.443
  25101606.025    25101605.4694   25101606.6964  131909847.433 6 102786901.90943
      3879.920        3023.282
  24734525.200    24734524.3334   24734524.4634  129980815.988 6 101283768.29444
      3485.293        2715.799
  22144218.909    22144218.7794   22144218.2054  116368690.570 7  90676904.21945
      1016.453         792.029
  22429398.500    22429398.8914   22429399.6924  117867291.315 7  91844670.93345
      3459.368        2695.587
  22112413.881    22112413.6044   22112414.4224  116201518.173 7  90546653.23645
      -532.678        -415.068
  21996992.512    21996992.5104   21996993.4514  115594988.479 7  90074050.80045
      2515.245        1959.922
 06  5 13 16 33 30.0000000  0 12G 3G 7G 8G10G15G16G18G19G21G26G27G29
  22729208.771    22729208.9514   22729209.9844  119442828.777 7  93072352.55944
      1493.079        1163.447
  23065232.239    23065231.8224   23065232.9384  121208604.433 7  94448280.62545
     -1461.167       -1138.589
  21698690.541    21698690.2844   21698690.7984  114027413.608 8  88852550.65845
      1786.807        1392.310
  22123129.302    22123128.9264   22123129.8514  116257821.803 7  90590523.86445
     -2441.376       -1902.384
  22765730.972    22765730.8114   22765732.3284  119634741.979 7  93221895.43445
      2752.295        2144.631
  24895753.936    24895753.8614   24895754.5034  130828061.556 6 101943954.35643
     -3315.345       -2583.369
  25079462.881    25079462.3884   25079463.8864  131793487.521 6 102696231.79743
      3876.950        3021.001
  24714646.881    24714645.8954   24714645.4944  129876354.502 6 101202369.80944
      3478.261        2710.327
  22138468.385    22138468.1414   22138467.2314  116338471.546 7  90653357.09845
       997.784         777.493
  22409684.928    22409685.4454   22409686.1234  117763697.198 7  91763948.27745
      3446.601        2685.654
  22115498.323    22115498.0644   22115498.9424  116217727.510 7  90559283.90045
      -548.339        -427.294
  21982671.338    21982671.2304   21982671.9674  115519729.985 8  90015407.83945
      2501.708        1949.365
 06  5 13 16 34  0.0000000  0 12G 3G 7G 8G10G15G16G18G19G21G26G27G29
  22720738.657    22720738.3754   22720739.3074  119398316.588 7  93037667.80744
      1473.980        1148.567
  23073618.820    23073618.2124   23073619.4544  121252674.909 7  94482621.18245
     -1477.129       -1151.024
  21688542.566    21688541.9554   21688542.7584  113974084.576 7  88810995.59745
      1767.953        1377.621
  22137107.510    22137107.0854   22137108.1404  116331278.062 7  90647762.49545
     -2456.030       -1913.775
  22750060.801    22750060.5604   22750062.0614  119552393.566 7  93157727.77745
      2737.032        2132.756
  24914698.422    24914698.6104   24914698.9734  130927615.856 6 102021529.09743
     -3322.114       -2588.661
  25057339.071    25057339.3864   25057340.5934  131677227.545 6 102605639.58643
      3873.199        3018.068
  24694811.588    24694810.8034   24694810.4094  129772119.802 6 101121148.11844
      3470.352        2704.167
  22132827.113    22132826.6634   22132825.8094  116308825.532 8  90630256.39945
       978.212         762.239
  22390046.827    22390046.9694   22390048.1394  117660497.827 7  91683533.19845
      3433.002        2675.084
  22118674.912    22118674.9704   22118675.8544  116234422.193 7  90572292.73445
      -565.091        -440.326
  21968430.071    21968430.0624   21968430.6494  115444891.293 7  89957091.97545
      2487.194        1938.086
 06  5 13 16 34 30.0000000  0 12G 3G 7G 8G10G15G16G18G19G21G26G27G29
  22712376.639    22712376.4894   22712377.4234  119354374.495 7  93003427.22844
      1455.244        1133.952
  23082094.447    23082093.9354   23082095.8444  121297217.808 7  94517329.88345
     -1492.531       -1163.016
  21678500.774    21678500.4464   21678501.1744  113921316.025 7  88769877.26445
      1749.657        1363.368
  22151168.359    22151167.7944   22151169.0454  116405167.771 7  90705338.87945
     -2470.160       -1924.791
  22734475.910    22734475.2804   22734476.9864  119470493.075 7  93093909.17845
      2722.610        2121.497
  24933681.304    24933680.2844   24933681.5214  131027366.656 6 102099256.94943
     -3328.176       -2593.385
  25035236.270    25035236.2924   25035237.2114  131561074.911 7 102515131.03043
      3869.786        3015.433
  24675020.889    24675019.7154   24675019.4594  129668119.492 6 101040109.03544
      3462.715        2698.211
  22127295.774    22127295.2844   22127294.5824  116279758.363 8  90607606.71645
       959.309         747.526
  22370484.991    22370485.3304   22370486.4174  117557700.959 7  91603431.78345
      3419.858        2664.818
  22121945.236    22121944.9204   22121945.8844  116251606.646 7  90585683.22045
      -580.888        -452.650
  21954270.074    21954270.1034   21954270.3994  115370479.000 7  89899108.38145
      2473.360        1927.285
 06  5 13 16 35  0.0000000  0 12G 3G 7G 8G10G15G16G18G19G21G26G27G29
  22704123.667    22704123.5544   22704124.4184  119311003.140 7  92969631.34644
      1435.650        1118.696
  23090660.204    23090659.7984   23090661.9054  121342230.891 7  94552404.95545
     -1508.881       -1175.754
  21668565.921    21668565.5354   21668566.3754  113869108.671 8  88729196.22645
      1730.257        1348.258
  22165311.316    22165310.6244   22165311.4494  116479487.811 7  90763250.56945
     -2485.073       -1936.422
  22718976.223    22718975.7624   22718977.3464  119389042.229 7  93030441.02945
      2707.023        2109.372
  24952699.494    24952699.1894   24952700.4304  131127310.600 6 102177135.41643
     -3335.117       -2598.799
  25013154.207    25013153.9514   25013154.6684  131445031.155 7 102424707.45043
      3865.831        3012.320
  24655275.604    24655274.0854   24655273.8944  129564355.491 6 100959254.06144
      3454.380        2691.731
  22121874.533    22121874.4144   22121873.5964  116251270.353 8  90585408.26145
       939.331         731.953
  22351000.538    22351000.5404   22351001.9404  117455308.606 7  91523645.61245
      3405.789        2653.850
  22125308.110    22125308.0644   22125308.8864  116269279.257 7  90599454.07745
      -597.927        -465.914
  21940191.310    21940191.2614   21940191.4904  115296494.396 7  89841458.02845
      2458.377        1915.606
 06  5 13 16 35 30.0000000  0 12G 3G 7G 8G10G15G16G18G19G21G26G27G29
  22695980.685    22695980.7094   22695981.3464  119268213.172 7  92936288.52444
      1416.282        1103.578
  23099317.157    23099316.8834   23099318.3614  121387721.631 7  94587852.30345
     -1524.613       -1187.999
  21658740.100    21658739.8134   21658740.2854  113817473.426 7  88688960.97445
      1711.294        1333.467
  22179537.163    22179536.3944   22179537.5184  116554244.928 7  90821502.86145
     -2499.319       -1947.520
  22703564.462    22703564.1354   22703565.3234  119308052.495 7  92967332.20845
      2691.669        2097.424
  24971756.515    24971755.7834   24971755.8364  131227453.943 6 102255169.19143
     -3341.677       -2603.919
  24991094.920    24991094.4134   24991094.9114  131329107.611 7 102334377.50744
      3861.934        3009.319
  24635576.755    24635575.3854   24635575.3584  129460839.383 6 100878592.19044
      3446.069        2685.257
  22116565.739    22116565.3674   22116564.3854  116223371.510 8  90563668.95145
       919.865         716.794
  22331595.060    22331595.0704   22331596.7024  117353332.569 7  91444183.86345
      3391.854        2643.008
  22128765.653    22128765.4124   22128766.2154  116287448.230 7  90613611.68545
      -614.064        -478.483
  21926195.670    21926195.8004   21926196.3114  115222948.462 7  89784149.50945
      2443.954        1904.388
 06  5 13 16 36  0.0000000  0 12G 3G 7G 8G10G15G16G18G19G21G26G27G29
  22687949.112    22687949.0094   22687949.8204  119226006.385 7  92903400.10444
      1396.792        1088.428
  23108064.400    23108064.0134   23108064.9694  121433688.709 7  94623670.86745
     -1540.426       -1200.323
  21649023.446    21649023.2124   21649023.7464  113766412.325 7  88649173.09345
      1692.208        1318.605
  22193845.606    22193844.9914   22193846.1784  116629437.297 7  90880094.31845
     -2513.861       -1958.850
  22688240.979    22688240.4824   22688241.9644  119227526.828 7  92904584.86045
      2676.109        2085.276
  24990850.547    24990849.8484   24990850.8404  131327794.193 6 102333356.34543
     -3348.144       -2608.923
  24969058.618    24969058.3814   24969058.9514  131213306.030 7 102244142.48144
      3857.948        3006.172
  24615925.833    24615925.0114   24615924.9354  129357574.852 6 100798126.32844
      3437.895        2678.878
  22111369.118    22111368.6644   22111367.9404  116196063.377 8  90542389.80645
       900.204         701.463
  22312269.786    22312269.7894   22312271.0874  117251776.316 7  91365049.18045
      3377.925        2632.138
  22132317.475    22132317.3864   22132318.3834  116306113.473 7  90628156.00845
      -630.717        -491.460
  21912284.374    21912284.2654   21912284.8684  115149843.523 7  89727184.61045
      2429.240        1892.921
 06  5 13 16 36 30.0000000  0 12G 3G 7G 8G10G15G16G18G19G21G26G27G29
  22680029.767    22680029.3174   22680030.1404  119184389.461 7  92870971.35244
      1377.800        1073.601
  23116902.753    23116902.6414   23116903.5394  121480135.434 7  94659863.12945
     -1555.904       -1212.399
  21639417.501    21639417.0744   21639417.7164  113715931.831 8  88609837.64545
      1673.333        1303.904
  22208237.355    22208236.8444   22208238.0704  116705067.390 7  90939026.86445
     -2527.716       -1969.642
  22673007.293    22673006.9634   22673008.6364  119147473.056 7  92842205.27845
      2660.946        2073.472
  25009982.343    25009982.4054   25009982.5844  131428334.310 6 102411699.23043
     -3354.244       -2613.701
  24947047.201    24947047.3064   24947047.3174  131097635.132 6 102154009.41444
      3853.937        3003.054
  24596324.768    24596324.1604   24596323.5664  129254569.535 6 100717862.52244
      3429.511        2672.346
  22106286.177    22106285.7704   22106284.8184  116169351.939 8  90521575.65045
       880.849         686.377
  22293025.241    22293025.8524   22293026.5794  117150647.582 7  91286247.64045
      3364.098        2621.378
  22135964.588    22135964.4794   22135965.3954  116325279.527 7  90643090.55045
      -646.814        -504.019
  21898458.274    21898458.0174   21898458.3684  115077186.457 8  89670568.69445
      2414.904        1881.740
 06  5 13 16 37  0.0000000  0 12G 3G 7G 8G10G15G16G18G19G21G26G27G29
  22672219.599    22672219.4574   22672220.4234  119143348.111 7  92838991.07844
      1358.228        1058.365
  23125829.053    23125828.9234   23125830.4264  121527045.269 7  94696416.44945
     -1571.561       -1224.586
  21629919.050    21629918.5504   21629919.4294  113666018.169 8  88570943.89445
      1653.984        1288.825
  22222709.157    22222708.7124   22222709.9114  116781117.670 7  90998286.84645
     -2542.375       -1981.067
  22657860.874    22657860.1404   22657861.5274  119067878.319 7  92780183.39045
      2645.091        2061.086
  25029148.575    25029149.0154   25029148.5824  131529056.268 6 102490183.91343
     -3360.445       -2618.514
  24925057.648    24925057.8364   24925057.7314  130982081.702 7 102063968.05944
      3849.479        2999.599
  24576771.050    24576769.5014   24576769.0084  129151810.839 6 100637790.84744
      3420.855        2665.602
  22101313.843    22101313.5644   22101312.4494  116143222.638 7  90501215.09745
       861.006         670.918
  22273860.420    22273860.4674   22273860.8284  117049933.730 7  91207769.35645
      3349.809        2610.241
  22139703.895    22139703.7964   22139704.8784  116344930.139 7  90658402.69745
      -663.432        -516.960
  21884714.812    21884714.7514   21884715.1424  115004963.895 7  89614291.35645
      2399.797        1869.974
 06  5 13 16 37 30.0000000  0 12G 3G 7G 8G10G15G16G18G19G21G26G27G29
  22664520.433    22664520.4514   22664521.1224  119102888.868 7  92807464.49844
      1338.922        1043.318
  23134844.195    23134843.9344   23134845.5874  121574420.922 7  94733332.66745
     -1586.946       -1236.586
  21620529.723    21620529.6234   21620530.5354  113616677.798 8  88532496.82245
      1635.035        1274.062
  22237261.529    22237260.9194   22237262.4164  116857590.703 7  91057876.21445
     -2556.146       -1991.801
  22642803.044    22642802.5404   22642804.0964  118988749.714 7  92718524.69545
      2629.781        2049.203
  25048351.003    25048350.4284   25048351.2424  131629961.982 6 102568811.71443
     -3366.638       -2623.330
  24903092.347    24903092.2424   24903092.5634  130866652.364 7 101974023.18944
      3845.556        2996.536
  24557264.861    24557263.5634   24557263.1554  129049306.609 6 100557917.47444
      3412.589        2659.179
  22096453.499    22096453.2354   22096452.0804  116117681.639 8  90481313.17845
       841.548         655.735
  22254775.750    22254775.8744   22254776.5134  116949642.793 7  91129620.61345
      3335.898        2599.403
  22143536.179    22143536.4284   22143537.0644  116365069.460 7  90674095.67045
      -679.422        -529.424
  21871055.187    21871055.3234   21871055.3664  114933182.593 7  89558357.87245
      2385.320        1858.690
 06  5 13 16 38  0.0000000  0 12G 3G 7G 8G10G15G16G18G19G21G26G27G29
  22656931.893    22656931.5904   22656932.4224  119063009.807 7  92776389.90844
      1319.453        1028.142
  23143946.991    23143946.7074   23143948.6644  121622258.105 7  94770608.54845
     -1602.426       -1248.654
  21611249.650    21611249.2934   21611250.1274  113567909.860 7  88494495.83145
      1615.958        1259.189
  22251893.722    22251892.6004   22251894.1294  116934481.322 7  91117790.97745
     -2570.210       -2002.777
  22627834.399    22627833.7834   22627835.5894  118910087.015 7  92657228.96245
      2614.112        2036.971
  25067586.392    25067586.2734   25067586.2534  131731045.713 6 102647578.23243
     -3372.498       -2627.930
  24881150.286    24881150.0594   24881150.4174  130751346.995 7 101884174.92744
      3841.278        2993.197
  24537806.349    24537806.3554   24537805.9054  128947056.273 6 100478241.91544
      3403.570        2652.121
  22091704.602    22091704.0424   22091703.2694  116092726.421 8  90461867.67845
       821.916         640.447
  22235770.870    22235771.2654   22235771.9844  116849774.370 7  91051801.08945
      3321.748        2588.359
  22147461.102    22147461.0504   22147462.1494  116385693.972 7  90690166.70545
      -695.706        -542.115
  21857479.296    21857479.3944   21857479.6714  114861841.371 8  89502767.30045
      2370.472        1847.122
 06  5 13 16 38 30.0000000  0 12G 3G 7G 8G10G15G16G18G19G21G26G27G29
  22649454.175    22649454.1194   22649454.2054  119023713.668 7  92745769.54144
      1300.022        1012.992
  23153138.151    23153138.1364   23153139.0354  121670556.028 7  94808243.42645
     -1617.553       -1260.434
  21602079.007    21602078.4764   21602079.3124  113519716.770 8  88456942.77545
      1596.726        1244.194
  22266604.825    22266603.7184   22266605.1864  117011788.359 7  91178030.21445
     -2583.885       -2013.433
  22612954.625    22612954.0844   22612955.6714  118831894.711 7  92596300.14645
      2598.769        2025.027
  25086855.999    25086855.3024   25086856.4514  131832306.490 6 102726482.74443
     -3378.358       -2632.482
  24859232.529    24859232.2354   24859232.5494  130636168.906 7 101794425.82944
      3837.128        2989.943
  24518398.712    24518397.6894   24518397.0344  128845064.321 6 100398767.69744
      3395.318        2645.694
  22087067.450    22087067.2314   22087066.1464  116068358.943 8  90442879.98345
       802.310         625.156
  22216847.649    22216848.1294   22216848.8074  116750332.707 7  90974314.10745
      3307.454        2577.219
  22151478.239    22151478.0954   22151478.9774  116406803.999 7  90706616.09145
      -711.877        -554.722
  21843987.827    21843987.9994   21843988.3564  114790943.459 7  89447522.17045
      2355.781        1835.665
 06  5 13 16 39  0.0000000  0 12G 3G 7G 8G10G15G16G18G19G21G26G27G29
  22642086.560    22642086.5554   22642087.1364  118984997.180 7  92715600.79944
      1280.616         997.901
  23162415.454    23162414.9254   23162416.5194  121719308.544 7  94846232.45045
     -1632.923       -1272.412
  21593016.923    21593016.4594   21593017.2794  113472095.767 7  88419835.49245
      1577.809        1229.474
  22281393.456    22281392.8384   22281394.1064  117089505.000 7  91238588.62845
     -2597.665       -2024.157
  22598164.048    22598163.6254   22598164.8154  118754170.032 7  92535735.56345
      2582.471        2012.312
  25106157.735    25106157.4154   25106158.0204  131933736.852 6 102805519.36743
     -3384.083       -2636.941
  24837338.091    24837338.2094   24837339.0954  130521116.284 7 101704774.54844
      3832.740        2986.556
  24499038.285    24499038.0184   24499037.5974  128743328.580 6 100319493.10744
      3386.456        2638.819
  22082541.714    22082541.3664   22082540.4774  116044576.199 7  90424348.09445
       782.759         609.953
  22198005.736    22198005.9864   22198006.7854  116651315.962 7  90897158.21645
      3293.207        2566.125
  22155586.850    22155586.7824   22155587.6114  116428394.356 7  90723439.74045
      -727.840        -567.150
  21830580.072    21830580.3314   21830580.7304  114720486.034 7  89392620.28345
      2341.054        1824.208
 06  5 13 16 39 30.0000000  0 12G 3G 7G 8G10G15G16G18G19G21G26G27G29
  22634831.043    22634830.9404   22634831.4984  118946868.502 7  92685890.11644
      1261.355         982.866
  23171780.026    23171779.6224   23171780.8924  121768521.040 7  94884579.87344
     -1647.777       -1283.984
  21584065.458    21584064.7644   21584065.7224  113425054.983 8  88383180.32445
      1558.434        1214.353
  22296261.282    22296260.4114   22296261.8654  117167635.819 7  91299469.76645
     -2611.102       -2034.634
  22583464.032    22583463.3784   22583465.0684  118676922.294 7  92475542.66145
      2567.206        2000.411
  25125492.460    25125492.0784   25125492.7984  132035340.860 6 102884691.22343
     -3389.337       -2641.032
  24815470.402    24815470.2064   24815470.7894  130406198.199 7 101615228.11144
      3828.445        2983.186
  24479730.422    24479729.2254   24479727.9964  128641858.837 6 100240425.81044
      3377.955        2632.183
  22078128.860    22078128.4504   22078127.4614  116021385.282 7  90406277.18645
       763.368         594.835
  22179246.083    22179246.3334   22179247.0264  116552733.786 7  90820340.95345
      3278.901        2554.977
  22159787.835    22159787.7574   22159788.6604  116450471.421 7  90740642.65745
      -743.825        -579.621
  21817258.374    21817258.4034   21817258.8454  114650478.026 7  89338068.59345
      2326.274        1812.678
 06  5 13 16 40  0.0000000  0 12G 3G 7G 8G10G15G16G18G19G21G26G27G29
  22627687.574    22627687.7464   22627688.1944  118909331.020 7  92656640.07944
      1241.558         967.454
  23181232.666    23181232.1084   23181233.3244  121818193.620 7  94923285.79244
     -1663.382       -1296.133
  21575224.847    21575224.3284   21575225.3514  113378598.209 8  88346980.23345
      1538.744        1199.033
  22311208.201    22311207.2314   22311208.4494  117246180.414 7  91360673.33345
     -2624.926       -2045.397
  22568856.109    22568855.6054   22568857.1674  118600156.023 7  92415724.86345
      2550.997        1987.781
  25144859.468    25144859.5264   25144860.0844  132137118.407 6 102963998.34343
     -3395.280       -2645.674
  24793628.340    24793628.3094   24793628.3294  130291419.037 7 101525789.84444
      3823.821        2979.599
  24460471.926    24460471.3124   24460470.2604  128540660.178 6 100161569.79344
      3368.831        2625.071
  22073828.830    22073828.5124   22073827.8144  115998789.451 7  90388670.03845
       743.204         579.115
  22160570.204    22160570.4654   22160571.0144  116454591.243 7  90743866.26745
      3264.025        2543.407
  22164081.790    22164081.6724   22164082.8074  116473036.425 7  90758225.82945
      -760.333        -592.470
  21804022.529    21804022.5574   21804022.9264  114580923.293 8  89283870.11545
      2310.817        1800.639
 06  5 13 16 40 30.0000000  0 12G 3G 7G 8G10G15G16G18G19G21G26G27G29
  22620655.942    22620655.6154   22620656.5454  118872378.565 7  92627845.91444
      1221.785         952.035
  23190770.759    23190770.6294   23190771.6224  121868317.526 7  94962343.42245
     -1678.508       -1307.919
  21566494.458    21566494.1824   21566494.5974  113332719.309 7  88311230.44045
      1519.412        1183.958
  22326231.289    22326230.6544   22326231.9304  117325129.200 7  91422191.82745
     -2638.488       -2055.955
  22554338.242    22554337.9814   22554339.6054  118523866.824 7  92356278.87845
      2534.784        1975.151
  25164258.806    25164258.1514   25164259.2174  132239059.602 6 103043432.97943
     -3400.757       -2649.946
  24771812.092    24771812.2134   24771812.1334  130176774.314 7 101436456.35344
      3819.117        2975.955
  24441265.385    24441264.8294   24441263.6174  128439727.908 6 100082921.36143
      3360.000        2618.162
  22069640.941    22069640.6794   22069639.9314  115976781.932 8  90371521.31345
       723.608         563.851
  22141976.913    22141977.0824   22141977.8304  116356883.798 7  90667730.60345
      3249.573        2532.138
  22168466.892    22168466.7054   22168467.9124  116496080.947 7  90776182.61245
      -776.348        -604.940
  21790871.714    21790871.8184   21790872.2084  114511816.187 7  89230020.43245
      2296.003        1789.079
 06  5 13 16 41  0.0000000  0 12G 3G 7G 8G10G15G16G18G19G21G26G27G29
  22613737.479    22613736.8874   22613737.5384  118836017.941 7  92599512.90244
      1202.074         936.675
  23200396.149    23200395.5894   23200396.9064  121918896.177 7  95001755.27245
     -1693.675       -1319.730
  21557875.613    21557875.1844   21557875.8364  113287426.093 8  88275937.03245
      1499.889        1168.740
  22341332.529    22341331.8974   22341332.8754  117404485.272 7  91484027.71345
     -2652.044       -2066.521
  22539913.368    22539912.7864   22539914.2534  118448062.579 7  92297210.70645
      2518.455        1962.430
  25183688.759    25183689.2554   25183689.1554  132341167.149 6 103122997.23943
     -3406.535       -2654.444
  24750023.073    24750022.6564   24750023.0554  130062271.304 6 101347233.20344
      3814.204        2972.108
  24422110.403    24422109.9944   24422109.7044  128339070.091 6 100004486.73644
      3350.462        2610.753
  22065566.358    22065566.0424   22065565.3824  115955369.660 8  90354836.37445
       703.704         548.355
  22123468.578    22123468.5604   22123469.0134  116259619.864 7  90591940.54045
      3234.561        2520.446
  22172944.205    22172944.2784   22172945.3344  116519610.012 7  90794516.96245
      -792.328        -617.386
  21777807.664    21777807.7674   21777807.9224  114443164.314 7  89176525.49645
      2280.712        1777.176
 06  5 13 16 41 30.0000000  0 12G 3G 7G 8G10G15G16G18G19G21G26G27G29
  22606929.925    22606929.9944   22606931.0674  118800246.653 7  92571639.12344
      1182.353         921.322
  23210105.847    23210105.8704   23210107.4014  121969924.139 7  95041517.28745
     -1708.636       -1331.379
  21549367.505    21549367.1394   21549367.7204  113242715.559 7  88241097.66645
      1480.417        1153.571
  22356509.681    22356508.8644   22356510.1324  117484242.318 7  91546176.04545
     -2665.511       -2077.025
  22525580.500    22525579.6394   22525580.7344  118372741.883 7  92238519.35945
      2502.311        1949.864
  25203149.703    25203149.5014   25203149.9254  132443434.382 6 103202685.92943
     -3411.788       -2658.556
  24728260.421    24728260.4444   24728260.0564  129947908.803 7 101258119.53144
      3809.588        2968.521
  24403007.330    24403007.1114   24403006.9244  128238685.758 6  99926265.19043
      3341.391        2603.676
  22061604.463    22061603.9584   22061603.3544  115934548.839 8  90338612.36145
       683.927         532.927
  22105043.961    22105044.0024   22105044.9434  116162798.153 7  90516495.07545
      3219.695        2508.859
  22177513.105    22177513.0494   22177513.8084  116543618.664 7  90813225.01545
      -808.515        -630.020
  21764829.779    21764829.7944   21764830.3034  114374965.591 7  89123383.66545
      2265.516        1765.339
 06  5 13 16 42  0.0000000  0 12G 3G 7G 8G10G15G16G18G19G21G26G27G29
  22600234.888    22600234.5454   22600235.4444  118765062.745 7  92544223.03344
      1162.959         906.194
  23219900.743    23219900.2114   23219902.1134  122021396.697 7  95081625.72145
     -1723.519       -1342.998
  21540969.891    21540969.3094   21540970.1844  113198585.927 7  88206710.93445
      1461.008        1138.443
  22371761.921    22371761.2864   22371762.7094  117564394.923 7  91608632.58445
     -2678.646       -2087.255
  22511338.971    22511338.5604   22511339.6954  118297904.063 7  92180204.21745
      2486.262        1937.361
  25222640.480    25222640.1054   25222640.0144  132545855.513 6 103282494.56943
     -3416.885       -2662.516
  24706524.957    24706524.8654   24706524.2974  129833686.333 7 101169115.06844
      3804.858        2964.799
  24383957.225    24383956.7024   24383956.2294  128138574.757 6  99848256.61543
      3332.289        2596.596
  22057754.463    22057754.1844   22057753.2324  115914317.123 8  90322847.36845
       664.306         517.630
  22086703.711    22086703.5284   22086703.9474  116066418.418 7  90441394.01345
      3205.025        2497.408
  22182172.389    22182172.1464   22182173.1414  116568103.304 7  90832303.97945
      -824.397        -642.397
  21751938.099    21751938.1584   21751938.5094  114307218.477 7  89070593.72445
      2250.375        1753.553
 06  5 13 16 42 30.0000000  0 12G 3G 7G 8G10G15G16G18G19G21G26G27G29
  22593652.799    22593653.1134   22593653.8494  118730476.007 7  92517272.30444
      1142.496         890.227
  23229781.477    23229780.7524   23229782.9094  122073320.802 7  95122086.05844
     -1738.704       -1354.843
  21532684.765    21532684.2294   21532685.0124  113155047.157 7  88172784.59445
      1440.959        1122.826
  22387090.734    22387090.1764   22387091.7154  117644949.434 7  91671402.31645
     -2692.266       -2097.876
  22497191.891    22497191.2824   22497192.7554  118223560.282 7  92122273.99045
      2469.534        1924.298
  25242160.899    25242161.0394   25242160.9904  132648437.137 6 103362428.26043
     -3422.490       -2666.826
  24684817.918    24684817.6804   24684817.3624  129719615.016 7 101080228.42444
      3799.342        2960.542
  24364961.194    24364960.6864   24364959.6574  128038748.620 6  99770470.05643
      3322.221        2588.725
  22054018.466    22054018.1054   22054017.3304  115894684.230 8  90307549.04645
       644.093         501.904
  22068449.168    22068449.1824   22068449.9354  115970492.094 7  90366646.24145
      3189.572        2485.381
  22186924.072    22186923.7414   22186924.3794  116593071.737 7  90851759.94645
      -840.743        -655.100
  21739134.198    21739134.2594   21739134.5964  114239933.733 8  89018164.06745
      2234.683        1741.307
 06  5 13 16 43  0.0000000  0 12G 3G 7G 8G10G15G16G18G19G21G26G27G29
  22587185.230    22587184.9634   22587185.5744  118696487.030 7  92490787.36944
      1122.894         874.989
  23239747.958    23239747.5464   23239749.0514  122125694.066 7  95162896.40544
     -1753.466       -1366.360
  21524512.200    21524511.8304   21524512.5684  113112100.988 8  88139320.04945
      1421.549        1107.693
  22402495.912    22402495.4984   22402496.7254  117725902.694 7  91734482.74445
     -2705.109       -2107.880
  22483139.012    22483138.4174   22483139.9604  118149712.304 7  92064730.08245
      2453.277        1911.648
  25261711.321    25261711.4284   25261711.5204  132751175.986 6 103442484.47043
     -3427.289       -2670.625
  24663140.228    24663140.0734   24663139.3614  129605696.652 6 100991460.96744
      3794.752        2956.916
  24346019.622    24346019.0014   24346018.4114  127939209.320 6  99692906.98543
      3313.172        2581.700
  22050396.347    22050396.1774   22050395.1004  115875650.250 8  90292717.38845
       624.365         486.522
  22050281.830    22050281.6574   22050282.2394  115875021.462 7  90292253.55945
      3174.667        2473.772
  22191766.822    22191766.7774   22191767.1364  116618522.408 7  90871591.66845
      -856.466        -667.380
  21726418.652    21726418.5184   21726418.8894  114173112.309 7  88966095.44045
      2219.616        1729.564
 06  5 13 16 43 30.0000000  0 12G 3G 7G 8G10G15G16G18G19G21G26G27G29
  22580829.112    22580829.1944   22580829.7954  118663087.297 7  92464761.55444
      1103.245         859.673
  23249797.832    23249797.1294   23249798.3714  122178504.947 7  95204047.82644
     -1767.745       -1377.452
  21516451.031    21516450.5174   21516451.4264  113069738.796 8  88106310.55245
      1402.104        1092.571
  22417974.858    22417974.0444   22417975.4924  117807242.763 7  91797864.58645
     -2718.032       -2117.938
  22469178.997    22469178.5444   22469180.1904  118076352.902 7  92007566.88345
      2436.884        1898.870
  25281289.789    25281289.6414   25281289.2214  132854059.178 6 103522653.12143
     -3432.052       -2674.300
  24641489.954    24641489.5344   24641489.3474  129491923.774 7 100902806.84044
      3789.750        2953.056
  24327131.529    24327130.7504   24327130.2904  127839950.019 6  99615562.11643
      3303.663        2574.263
  22046886.481    22046886.2324   22046885.2464  115857206.070 7  90278345.29245
       604.814         471.287
  22032199.570    22032199.8524   22032200.2434  115779999.694 7  90218210.65245
      3159.648        2462.070
  22196699.634    22196699.4634   22196700.2624  116644444.879 7  90891791.00545
      -872.134        -679.582
  21713789.525    21713789.4104   21713790.0584  114106746.517 7  88914381.85045
      2204.228        1717.588
 06  5 13 16 44  0.0000000  0 12G 3G 7G 8G10G15G16G18G19G21G26G27G29
  22574588.234    22574588.0574   22574588.9534  118630290.055 7  92439205.24644
      1082.891         843.802
  23259932.344    23259931.7404   23259933.5334  122231763.727 7  95245548.20344
     -1783.059       -1389.418
  21508503.423    21508502.9184   21508503.8294  113027974.001 8  88073766.56645
      1381.777        1076.692
  22433528.464    22433528.0874   22433529.3544  117888979.509 7  91861555.53445
     -2731.532       -2128.478
  22455315.001    22455314.5784   22455316.1094  118003496.843 7  91950795.92745
      2419.652        1885.432
  25300896.490    25300896.7814   25300896.9454  132957096.764 6 103602942.04943
     -3437.460       -2678.534
  24619869.651    24619869.4264   24619868.6004  129378310.937 7 100814277.44144
      3784.071        2948.612
  24308297.986    24308297.7564   24308297.4614  127740985.555 6  99538446.96143
      3293.373        2566.266
  22043491.539    22043491.1294   22043490.2184  115839364.531 8  90264442.81045
       584.317         455.297
  22014205.682    22014205.8844   22014206.4834  115685441.502 7  90144528.96945
      3143.885        2449.750
  22201724.531    22201724.2724   22201724.8134  116670850.359 7  90912366.69645
      -888.446        -692.295
  21701249.769    21701249.9184   21701249.9384  114040850.164 7  88863034.05145
      2188.416        1705.241
 06  5 13 16 44 30.0000000  0 12G 3G 7G 8G10G15G16G18G19G21G26G27G29
  22568460.271    22568460.1114   22568460.9364  118598086.416 7  92414111.44944
      1063.265         828.519
  23270150.205    23270149.8574   23270151.6224  122285458.671 7  95287388.39944
     -1797.278       -1400.478
  21500667.613    21500667.3504   21500668.3364  112986798.105 8  88041681.47445
      1362.427        1061.645
  22449155.569    22449155.0624   22449156.3744  117971100.666 7  91925546.03545
     -2743.855       -2138.081
  22441545.178    22441544.6494   22441546.4784  117931136.747 7  91894411.49245
      2403.406        1872.785
  25320531.534    25320531.9294   25320531.8174  133060276.246 6 103683341.48443
     -3441.683       -2681.824
  24598278.499    24598278.7884   24598278.7664  129264850.936 7 100725867.13344
      3779.196        2944.820
  24289520.189    24289520.1524   24289519.6964  127642308.795 6  99461555.94743
      3284.083        2559.048
  22040209.212    22040208.8164   22040207.9194  115822116.100 8  90251002.45945
       564.855         440.147
  21996299.078    21996299.0924   21996299.8454  115591339.830 7  90071203.01045
      3128.942        2438.133
  22206839.426    22206838.9134   22206839.7674  116697727.852 7  90933310.17845
      -903.882        -704.325
  21688797.958    21688798.0414   21688798.1144  113975415.209 7  88812045.78045
      2173.253        1693.454
 06  5 13 16 45  0.0000000  0 12G 3G 7G 8G10G15G16G18G19G21G26G27G29
  22562445.246    22562445.0424   22562445.8894  118566476.999 7  92389480.71444
      1043.319         812.990
  23280450.201    23280450.0634   23280451.6214  122339587.601 7  95329566.77344
     -1811.883       -1411.853
  21492944.619    21492943.9574   21492945.0354  112946211.778 8  88010055.77745
      1342.567        1046.144
  22464855.380    22464854.7894   22464855.9984  118053603.099 7  91989833.61545
     -2756.773       -2148.140
  22427870.206    22427869.4894   22427871.4454  117859274.299 7  91838414.81945
      2386.686        1859.750
  25340192.279    25340192.1184   25340191.8064  133163594.351 6 103763848.97243
     -3446.691       -2685.748
  24576717.624    24576717.1534   24576717.1764  129151545.880 7 100637577.55344
      3773.844        2940.643
  24270799.222    24270797.8294   24270797.5084  127543922.111 6  99384890.96443
      3274.138        2551.270
  22037039.916    22037039.5504   22037038.4734  115805461.159 8  90238024.60745
       544.882         424.591
  21978478.935    21978479.4044   21978479.9594  115497696.885 7  89998234.50445
      3113.333        2425.976
  22212043.307    22212043.1334   22212043.9674  116725076.181 7  90954620.54645
      -919.855        -716.775
  21676434.395    21676434.1604   21676434.3994  113910442.858 8  88761417.98645
      2157.606        1681.239
 06  5 13 16 45 30.0000000  0 13G 3G 7G 8G10G15G16G18G19G21G26G27G28
                                G29
  22556545.521    22556545.0834   22556545.9114  118535472.472 7  92365321.36844
      1023.116         797.219
  23290835.216    23290834.4534   23290836.0844  122394158.262 7  95372089.32144
     -1826.750       -1423.454
  21485335.340    21485335.0694   21485335.7284  112906226.136 7  87978898.14645
      1322.518        1030.531
  22480629.372    22480628.3734   22480629.8744  118136494.164 7  92054424.03345
     -2769.919       -2158.388
  22414292.458    22414291.9484   22414293.3254  117787921.599 7  91782815.36645
      2369.567        1846.420
  25359880.858    25359880.7024   25359880.8454  133267058.336 6 103844470.19643
     -3451.669       -2689.585
  24555188.341    24555187.8284   24555187.4364  129038407.390 7 100549417.77444
      3768.213        2936.237
  24252132.981    24252132.7264   24252132.6604  127445838.151 6  99308461.97343
      3264.015        2543.395
  22033985.813    22033985.2754   22033983.9704  115789409.931 8  90225517.14845
       524.660         408.815
  21960749.454    21960749.3014   21960749.6504  115404525.146 7  89925633.17945
      3097.559        2413.676
  22217338.792    22217338.8254   22217339.3784  116752904.570 7  90976304.98145
      -935.842        -729.233
  25544103.007    25544103.0314   25544104.5254  134235167.422 6 104598847.55442
      3816.188        2973.605
  21664160.630    21664160.7674   21664160.8994  113845944.458 8  88711159.50345
      2141.792        1668.938
 06  5 13 16 46  0.0000000  0 13G 3G 7G 8G10G15G16G18G19G21G26G27G28
                                G29
  22550760.202    22550759.8014   22550760.4774  118505069.384 7  92341630.62444
      1003.409         781.881
  23301302.552    23301301.8434   23301303.2184  122449164.436 7  95414951.27844
     -1840.883       -1434.452
  21477839.820    21477839.8474   21477840.4604  112866837.871 8  87948206.00045
      1302.879        1015.245
  22496475.397    22496474.6864   22496476.2224  118219767.052 7  92119311.98045
     -2782.134       -2167.894
  22400810.879    22400810.4524   22400812.0714  117717076.686 7  91727611.61645
      2352.896        1833.406
  25379595.740    25379594.9754   25379595.3724  133370661.110 6 103925199.58143
     -3455.802       -2692.856
  24533689.426    24533689.5714   24533689.6114  128925433.640 7 100461386.26043
      3762.897        2932.155
  24233526.297    24233525.3834   24233525.6374  127348055.222 5  99232267.57243
      3254.131        2535.677
  22031045.203    22031044.9834   22031043.8364  115773958.514 8  90213477.06545
       504.993         393.502
  21943108.367    21943108.6534   21943109.1394  115311822.916 7  89853397.70245
      3082.169        2401.687
  22222725.092    22222724.5854   22222725.6844  116781207.377 7  90998359.08145
      -951.388        -741.348
  25522320.652    25522320.4414   25522322.5224  134120703.708 6 104509655.27242
      3814.442        2972.334
  21651976.504    21651976.4554   21651976.8684  113781917.500 8  88661268.39145
      2126.283        1656.846
 06  5 13 16 46 30.0000000  0 12G 3G 7G 8G10G15G18G19G21G26G27G28G29
  22545087.163    22545086.9924   22545087.8214  118475258.809 7  92318401.59644
       983.602         766.436
  23311850.496    23311850.2084   23311851.3734  122504594.308 7  95458143.36044
     -1854.966       -1445.410
  21470456.779    21470456.5064   21470457.0554  112828038.774 8  87917972.94645
      1283.272         999.943
  22512391.806    22512391.3504   22512393.0134  118303409.595 7  92184487.98545
     -2794.461       -2177.503
  22387424.394    22387424.0424   22387425.9204  117646731.937 7  91672797.58045
      2336.166        1820.395
  24512221.643    24512221.6704   24512221.3094  128812617.651 7 100373477.75744
      3757.588        2927.991
  24214974.160    24214973.7684   24214973.9784  127250566.260 5  99156302.31443
      3244.320        2528.045
  22028217.145    22028216.9914   22028216.1984  115759097.844 8  90201897.30745
       485.266         378.135
  21925555.780    21925556.0644   21925556.5854  115219583.231 7  89781522.64445
      3066.673        2389.629
  22228199.124    22228198.8124   22228199.5374  116809973.816 7  91020774.45745
      -966.820        -753.370
  25500548.329    25500549.3444   25500550.7304  134006289.409 6 104420501.37642
      3812.710        2970.909
  21639880.717    21639880.6604   21639881.2324  113718353.645 7  88611738.13145
      2110.851        1644.827
 06  5 13 16 47  0.0000000  0 12G 3G 7G 8G10G15G18G19G21G26G27G28G29
  22539527.704    22539527.6954   22539528.6394  118446046.260 7  92295638.56944
       963.675         750.912
  23322479.653    23322479.2624   23322480.0424  122560450.683 7  95501667.77144
     -1869.033       -1456.372
  21463186.816    21463186.4444   21463187.2094  112789834.453 7  87888203.35845
      1263.520         984.561
  22528379.350    22528378.7544   22528380.1534  118387423.724 7  92249953.52545
     -2806.748       -2187.084
  22374134.744    22374134.4454   22374136.0984  117576894.205 7  91618378.59945
      2319.360        1807.298
  24490784.386    24490784.4884   24490784.1994  128699966.171 6 100285697.42143
      3752.289        2923.847
  24196479.604    24196479.3294   24196479.8484  127153378.264 5  99080571.55143
      3234.651        2520.501
  22025502.845    22025502.5034   22025501.6484  115744832.862 8  90190781.73045
       465.508         362.726
  21908092.505    21908092.6144   21908093.5524  115127813.076 7  89710013.46245
      3051.173        2377.534
  22233761.580    22233761.7424   22233762.5174  116839207.091 7  91043553.57945
      -982.370        -765.496
  25478787.177    25478786.8074   25478789.5234  133891931.860 6 104331391.83242
      3811.107        2969.693
  21627874.273    21627874.2444   21627874.6134  113655259.264 7  88562573.70345
      2095.278        1632.688
 06  5 13 16 47 30.0000000  0 12G 3G 7G 8G10G15G18G19G21G26G27G28G29
  22534083.579    22534083.3634   22534084.2834  118417434.709 7  92273343.86144
       943.699         735.369
  23333189.799    23333189.4224   23333190.5044  122616733.390 7  95545524.39544
     -1883.183       -1467.407
  21456030.407    21456029.9554   21456031.0414  112752228.068 8  87858899.69645
      1243.583         969.034
  22544437.453    22544437.0364   22544438.3294  118471808.999 7  92315708.27345
     -2819.017       -2196.632
  22360942.812    22360942.2074   22360943.5104  117507567.700 7  91564357.94245
      2302.257        1793.974
  24469379.987    24469379.2794   24469379.3074  128587483.527 7 100198048.68943
      3746.590        2919.427
  24178044.222    24178043.4564   24178043.1524  127056495.989 6  99005078.96343
      3224.172        2512.347
  22022901.952    22022901.6734   22022900.6684  115731165.908 8  90180132.13345
       445.521         347.172
  21890719.261    21890719.4544   21890720.4424  115036517.099 7  89638873.76345
      3035.259        2365.148
  22239413.909    22239413.7724   22239414.5114  116868908.346 7  91066697.39645
      -997.857        -777.529
  25457036.992    25457036.8364   25457038.0224  133777634.763 6 104242329.23142
      3808.958        2968.016
  21615957.731    21615957.7514   21615958.0834  113592637.858 7  88513777.82345
      2079.509        1620.406
 06  5 13 16 48  0.0000000  0 12G 3G 7G 8G10G15G18G19G21G26G27G28G29
  22528752.759    22528752.6344   22528753.4724  118389421.669 7  92251515.52944
       923.758         719.801
  23343980.305    23343979.7334   23343981.1594  122673437.261 7  95589709.12244
     -1897.252       -1478.364
  21448987.548    21448987.3014   21448988.0304  112715217.314 7  87830060.15545
      1223.723         953.551
  22560564.921    22560564.3944   22560565.8134  118556559.522 7  92381747.63645
     -2831.163       -2206.089
  22347847.348    22347846.8254   22347848.3074  117438751.545 7  91510734.94745
      2285.255        1780.719
  24448007.191    24448006.7174   24448006.3764  128475168.887 7 100110530.86444
      3740.949        2915.031
  24159666.317    24159665.0914   24159665.2574  126959918.971 6  98929824.30943
      3213.832        2504.281
  22020414.151    22020414.0534   22020413.0874  115718094.102 8  90169946.32945
       425.751         331.752
  21873436.716    21873436.7414   21873437.2814  114945694.802 7  89568103.17345
      3019.489        2352.839
  22245154.167    22245154.0034   22245155.1354  116899073.414 7  91090202.64445
     -1013.284        -789.564
  25435298.346    25435298.4324   25435299.7674  133663397.834 6 104153313.57442
      3806.766        2966.298
  21604130.802    21604130.8624   21604131.4224  113530487.742 8  88465349.16145
      2063.762        1608.135
 06  5 13 16 48 30.0000000  0 12G 3G 7G 8G10G15G18G19G21G26G27G28G29
  22523536.053    22523535.9034   22523536.7054  118362007.525 7  92230153.84044
       903.535         704.053
  23354850.318    23354849.9224   23354851.2244  122730560.028 7  95634220.32544
     -1911.305       -1489.310
  21442058.044    21442057.9334   21442058.3434  112678802.967 8  87801685.34945
      1203.538         937.809
  22576761.160    22576760.6194   22576762.1424  118641672.398 7  92448069.34745
     -2843.331       -2215.574
  22334849.557    22334848.9184   22334850.2784  117370447.526 7  91457511.05245
      2267.945        1767.228
  24426666.360    24426666.2964   24426665.8974  128363023.966 7 100023145.29144
      3735.028        2910.406
  24141346.906    24141345.5864   24141345.2874  126863649.019 5  98854808.81543
      3203.551        2496.260
  22018040.053    22018039.7364   22018038.9604  115705617.337 8  90160224.17545
       405.645         316.088
  21856244.089    21856244.3364   21856244.9074  114855348.088 7  89497703.13645
      3003.432        2340.359
  22250982.700    22250982.3004   22250983.2824  116929700.681 7  91114068.01845
     -1028.999        -801.817
  25413571.372    25413570.9834   25413573.0544  133549222.983 6 104064346.29942
      3804.467        2964.534
  21592393.844    21592393.9804   21592394.5554  113468810.098 7  88417288.66845
      2047.712        1595.621
 06  5 13 16 49  0.0000000  0 12G 3G 7G 8G10G15G18G19G21G26G27G28G29
  22518435.078    22518434.9394   22518435.2274  118335201.104 7  92209265.72844
       883.370         688.360
  23365801.127    23365801.0254   23365801.9054  122788107.420 7  95679062.43144
     -1925.292       -1500.235
  21435244.275    21435243.7054   21435244.2984  112642994.203 8  87773782.42445
      1183.534         922.229
  22593027.865    22593027.4944   22593028.5254  118727153.140 7  92514677.70245
     -2855.568       -2225.120
  22321951.488    22321950.5004   22321951.7724  117302665.613 7  91404693.99145
      2250.622        1753.729
  24405359.556    24405359.9604   24405359.3484  128251059.294 7  99935900.14543
      3729.171        2905.851
  24123087.322    24123086.6984   24123086.0414  126767697.166 6  98780041.26243
      3192.989        2488.019
  22015780.506    22015780.2274   22015779.7234  115693744.036 8  90150972.29445
       385.657         300.502
  21839144.257    21839144.4694   21839145.1784  114765487.506 7  89427681.90145
      2987.171        2327.664
  22256899.928    22256899.6934   22256900.4904  116960796.995 7  91138298.86845
     -1044.382        -813.804
  25391858.358    25391858.2994   25391859.2194  133435120.077 6 103975435.06842
      3802.104        2962.626
  21580749.070    21580749.1004   21580749.5254  113407614.495 7  88369603.84246
      2031.838        1583.250
